<?xml version="1.0" encoding="UTF-8" standalone="no" ?>
<gpx xmlns="http://www.topografix.com/GPX/1/1" xmlns:xsi="http://www.w3.org/2001/XMLSchema-instance" xsi:schemaLocation="http://www.topografix.com/GPX/1/1 http://www.topografix.com/GPX/1/1/gpx.xsd" version="1.1" creator="VisuGPX - https://www.visugpx.com">
  <metadata>
    <name>Foret de la Mairis</name>
    <desc><![CDATA[Départ depuis Saint Colomban, traverser le hameau de Gorblaou et prendre la direction de la Baisse de Béasse. Attention, Prendre la direction de Peira Cava et non de Béasse comme nous l\'avons fait par erreur.
Nous nous sommes arreté aux granges du lac, mais on peut continuer jusqu\'à Peira Cava. RetourRetour par un petit bout de route jusqu\'à la borne 173 où l\'on descend le vallon de la Mairis, puis celui de St Colomban.]]></desc>
  </metadata>
  <trk>
    <name><![CDATA[20 juin 2013 09:01:50]]></name>
    <cmt><![CDATA[20 juin 2013 09:01:50]]></cmt>
    <trkseg>
      <trkpt lat="43.95416" lon="7.32512">
        <ele>717</ele>
        <time>2013-06-20T07:01:50Z</time>
      </trkpt>
      <trkpt lat="43.95411" lon="7.32513">
        <ele>717</ele>
        <time>2013-06-20T07:01:52Z</time>
      </trkpt>
      <trkpt lat="43.95409" lon="7.32513">
        <ele>720</ele>
        <time>2013-06-20T07:03:31Z</time>
      </trkpt>
      <trkpt lat="43.95407" lon="7.32513">
        <ele>723</ele>
        <time>2013-06-20T07:03:41Z</time>
      </trkpt>
      <trkpt lat="43.95405" lon="7.32519">
        <ele>725</ele>
        <time>2013-06-20T07:03:49Z</time>
      </trkpt>
      <trkpt lat="43.95402" lon="7.32523">
        <ele>726</ele>
        <time>2013-06-20T07:03:54Z</time>
      </trkpt>
      <trkpt lat="43.95399" lon="7.32524">
        <ele>727</ele>
        <time>2013-06-20T07:04:00Z</time>
      </trkpt>
      <trkpt lat="43.95399" lon="7.3253">
        <ele>727</ele>
        <time>2013-06-20T07:04:05Z</time>
      </trkpt>
      <trkpt lat="43.95403" lon="7.32534">
        <ele>730</ele>
        <time>2013-06-20T07:04:17Z</time>
      </trkpt>
      <trkpt lat="43.95405" lon="7.32541">
        <ele>731</ele>
        <time>2013-06-20T07:04:20Z</time>
      </trkpt>
      <trkpt lat="43.95406" lon="7.32548">
        <ele>731</ele>
        <time>2013-06-20T07:04:22Z</time>
      </trkpt>
      <trkpt lat="43.95406" lon="7.32555">
        <ele>733</ele>
        <time>2013-06-20T07:04:25Z</time>
      </trkpt>
      <trkpt lat="43.95406" lon="7.32561">
        <ele>734</ele>
        <time>2013-06-20T07:04:35Z</time>
      </trkpt>
      <trkpt lat="43.95411" lon="7.32566">
        <ele>734</ele>
        <time>2013-06-20T07:04:42Z</time>
      </trkpt>
      <trkpt lat="43.95413" lon="7.32572">
        <ele>734</ele>
        <time>2013-06-20T07:04:46Z</time>
      </trkpt>
      <trkpt lat="43.95414" lon="7.32578">
        <ele>735</ele>
        <time>2013-06-20T07:04:48Z</time>
      </trkpt>
      <trkpt lat="43.95416" lon="7.32586">
        <ele>735</ele>
        <time>2013-06-20T07:04:51Z</time>
      </trkpt>
      <trkpt lat="43.95417" lon="7.32593">
        <ele>734</ele>
        <time>2013-06-20T07:04:55Z</time>
      </trkpt>
      <trkpt lat="43.95424" lon="7.32598">
        <ele>733</ele>
        <time>2013-06-20T07:05:04Z</time>
      </trkpt>
      <trkpt lat="43.95427" lon="7.32603">
        <ele>731</ele>
        <time>2013-06-20T07:05:07Z</time>
      </trkpt>
      <trkpt lat="43.9543" lon="7.32608">
        <ele>729</ele>
        <time>2013-06-20T07:05:12Z</time>
      </trkpt>
      <trkpt lat="43.95431" lon="7.32615">
        <ele>729</ele>
        <time>2013-06-20T07:05:18Z</time>
      </trkpt>
      <trkpt lat="43.95431" lon="7.32623">
        <ele>729</ele>
        <time>2013-06-20T07:05:22Z</time>
      </trkpt>
      <trkpt lat="43.95428" lon="7.3263">
        <ele>731</ele>
        <time>2013-06-20T07:05:26Z</time>
      </trkpt>
      <trkpt lat="43.95433" lon="7.32637">
        <ele>736</ele>
        <time>2013-06-20T07:05:52Z</time>
      </trkpt>
      <trkpt lat="43.95437" lon="7.32645">
        <ele>738</ele>
        <time>2013-06-20T07:05:59Z</time>
      </trkpt>
      <trkpt lat="43.95442" lon="7.32652">
        <ele>739</ele>
        <time>2013-06-20T07:06:07Z</time>
      </trkpt>
      <trkpt lat="43.95445" lon="7.32657">
        <ele>739</ele>
        <time>2013-06-20T07:06:09Z</time>
      </trkpt>
      <trkpt lat="43.95448" lon="7.32663">
        <ele>739</ele>
        <time>2013-06-20T07:06:13Z</time>
      </trkpt>
      <trkpt lat="43.9545" lon="7.3267">
        <ele>738</ele>
        <time>2013-06-20T07:06:18Z</time>
      </trkpt>
      <trkpt lat="43.95453" lon="7.32676">
        <ele>740</ele>
        <time>2013-06-20T07:06:26Z</time>
      </trkpt>
      <trkpt lat="43.95453" lon="7.32682">
        <ele>741</ele>
        <time>2013-06-20T07:06:35Z</time>
      </trkpt>
      <trkpt lat="43.95453" lon="7.32687">
        <ele>743</ele>
        <time>2013-06-20T07:07:12Z</time>
      </trkpt>
      <trkpt lat="43.95454" lon="7.3269">
        <ele>743</ele>
        <time>2013-06-20T07:07:18Z</time>
      </trkpt>
      <trkpt lat="43.95454" lon="7.32694">
        <ele>743</ele>
        <time>2013-06-20T07:07:24Z</time>
      </trkpt>
      <trkpt lat="43.95455" lon="7.32701">
        <ele>743</ele>
        <time>2013-06-20T07:07:27Z</time>
      </trkpt>
      <trkpt lat="43.95455" lon="7.32708">
        <ele>742</ele>
        <time>2013-06-20T07:07:35Z</time>
      </trkpt>
      <trkpt lat="43.95457" lon="7.32715">
        <ele>742</ele>
        <time>2013-06-20T07:07:38Z</time>
      </trkpt>
      <trkpt lat="43.9546" lon="7.3272">
        <ele>742</ele>
        <time>2013-06-20T07:07:41Z</time>
      </trkpt>
      <trkpt lat="43.95465" lon="7.32725">
        <ele>741</ele>
        <time>2013-06-20T07:07:45Z</time>
      </trkpt>
      <trkpt lat="43.95465" lon="7.32732">
        <ele>740</ele>
        <time>2013-06-20T07:07:53Z</time>
      </trkpt>
      <trkpt lat="43.95462" lon="7.32738">
        <ele>740</ele>
        <time>2013-06-20T07:07:58Z</time>
      </trkpt>
      <trkpt lat="43.95464" lon="7.32747">
        <ele>739</ele>
        <time>2013-06-20T07:08:13Z</time>
      </trkpt>
      <trkpt lat="43.95466" lon="7.32752">
        <ele>739</ele>
        <time>2013-06-20T07:08:15Z</time>
      </trkpt>
      <trkpt lat="43.95468" lon="7.32758">
        <ele>738</ele>
        <time>2013-06-20T07:08:19Z</time>
      </trkpt>
      <trkpt lat="43.95469" lon="7.32765">
        <ele>737</ele>
        <time>2013-06-20T07:08:24Z</time>
      </trkpt>
      <trkpt lat="43.95471" lon="7.32773">
        <ele>736</ele>
        <time>2013-06-20T07:08:27Z</time>
      </trkpt>
      <trkpt lat="43.9547" lon="7.3278">
        <ele>735</ele>
        <time>2013-06-20T07:08:30Z</time>
      </trkpt>
      <trkpt lat="43.9547" lon="7.32784">
        <ele>734</ele>
        <time>2013-06-20T07:08:37Z</time>
      </trkpt>
      <trkpt lat="43.95471" lon="7.32798">
        <ele>733</ele>
        <time>2013-06-20T07:08:52Z</time>
      </trkpt>
      <trkpt lat="43.95477" lon="7.32804">
        <ele>729</ele>
        <time>2013-06-20T07:09:09Z</time>
      </trkpt>
      <trkpt lat="43.95481" lon="7.3281">
        <ele>727</ele>
        <time>2013-06-20T07:09:12Z</time>
      </trkpt>
      <trkpt lat="43.95483" lon="7.32823">
        <ele>721</ele>
        <time>2013-06-20T07:09:19Z</time>
      </trkpt>
      <trkpt lat="43.95479" lon="7.32823">
        <ele>720</ele>
        <time>2013-06-20T07:09:24Z</time>
      </trkpt>
      <trkpt lat="43.95476" lon="7.32823">
        <ele>720</ele>
        <time>2013-06-20T07:09:29Z</time>
      </trkpt>
      <trkpt lat="43.95477" lon="7.32832">
        <ele>720</ele>
        <time>2013-06-20T07:09:33Z</time>
      </trkpt>
      <trkpt lat="43.95479" lon="7.3284">
        <ele>721</ele>
        <time>2013-06-20T07:09:36Z</time>
      </trkpt>
      <trkpt lat="43.95478" lon="7.32846">
        <ele>722</ele>
        <time>2013-06-20T07:09:38Z</time>
      </trkpt>
      <trkpt lat="43.95479" lon="7.32853">
        <ele>722</ele>
        <time>2013-06-20T07:09:40Z</time>
      </trkpt>
      <trkpt lat="43.95479" lon="7.32859">
        <ele>722</ele>
        <time>2013-06-20T07:09:42Z</time>
      </trkpt>
      <trkpt lat="43.95479" lon="7.32866">
        <ele>722</ele>
        <time>2013-06-20T07:09:45Z</time>
      </trkpt>
      <trkpt lat="43.95479" lon="7.32873">
        <ele>722</ele>
        <time>2013-06-20T07:09:49Z</time>
      </trkpt>
      <trkpt lat="43.95478" lon="7.32879">
        <ele>722</ele>
        <time>2013-06-20T07:09:54Z</time>
      </trkpt>
      <trkpt lat="43.95473" lon="7.32879">
        <ele>722</ele>
        <time>2013-06-20T07:10:04Z</time>
      </trkpt>
      <trkpt lat="43.95468" lon="7.32884">
        <ele>722</ele>
        <time>2013-06-20T07:10:08Z</time>
      </trkpt>
      <trkpt lat="43.95466" lon="7.32891">
        <ele>722</ele>
        <time>2013-06-20T07:10:12Z</time>
      </trkpt>
      <trkpt lat="43.95465" lon="7.32897">
        <ele>722</ele>
        <time>2013-06-20T07:10:17Z</time>
      </trkpt>
      <trkpt lat="43.95465" lon="7.32901">
        <ele>721</ele>
        <time>2013-06-20T07:10:24Z</time>
      </trkpt>
      <trkpt lat="43.95465" lon="7.32908">
        <ele>721</ele>
        <time>2013-06-20T07:10:26Z</time>
      </trkpt>
      <trkpt lat="43.95464" lon="7.32912">
        <ele>720</ele>
        <time>2013-06-20T07:10:38Z</time>
      </trkpt>
      <trkpt lat="43.95466" lon="7.32921">
        <ele>719</ele>
        <time>2013-06-20T07:10:41Z</time>
      </trkpt>
      <trkpt lat="43.95468" lon="7.32928">
        <ele>719</ele>
        <time>2013-06-20T07:10:43Z</time>
      </trkpt>
      <trkpt lat="43.95464" lon="7.32933">
        <ele>719</ele>
        <time>2013-06-20T07:11:10Z</time>
      </trkpt>
      <trkpt lat="43.95462" lon="7.32937">
        <ele>721</ele>
        <time>2013-06-20T07:12:12Z</time>
      </trkpt>
      <trkpt lat="43.9546" lon="7.32935">
        <ele>717</ele>
        <time>2013-06-20T07:13:33Z</time>
      </trkpt>
      <trkpt lat="43.95458" lon="7.32929">
        <ele>719</ele>
        <time>2013-06-20T07:20:00Z</time>
      </trkpt>
      <trkpt lat="43.95455" lon="7.32934">
        <ele>719</ele>
        <time>2013-06-20T07:20:09Z</time>
      </trkpt>
      <trkpt lat="43.95451" lon="7.32941">
        <ele>718</ele>
        <time>2013-06-20T07:20:12Z</time>
      </trkpt>
      <trkpt lat="43.95447" lon="7.32947">
        <ele>717</ele>
        <time>2013-06-20T07:20:15Z</time>
      </trkpt>
      <trkpt lat="43.95441" lon="7.32944">
        <ele>718</ele>
        <time>2013-06-20T07:20:18Z</time>
      </trkpt>
      <trkpt lat="43.95437" lon="7.32947">
        <ele>717</ele>
        <time>2013-06-20T07:20:24Z</time>
      </trkpt>
      <trkpt lat="43.95437" lon="7.32958">
        <ele>716</ele>
        <time>2013-06-20T07:20:28Z</time>
      </trkpt>
      <trkpt lat="43.95438" lon="7.32965">
        <ele>716</ele>
        <time>2013-06-20T07:20:31Z</time>
      </trkpt>
      <trkpt lat="43.95432" lon="7.33005">
        <ele>705</ele>
        <time>2013-06-20T07:20:51Z</time>
      </trkpt>
      <trkpt lat="43.95428" lon="7.33009">
        <ele>705</ele>
        <time>2013-06-20T07:20:54Z</time>
      </trkpt>
      <trkpt lat="43.95429" lon="7.33014">
        <ele>705</ele>
        <time>2013-06-20T07:21:02Z</time>
      </trkpt>
      <trkpt lat="43.95436" lon="7.33001">
        <ele>726</ele>
        <time>2013-06-20T07:21:02Z</time>
      </trkpt>
      <trkpt lat="43.95427" lon="7.33007">
        <ele>725</ele>
        <time>2013-06-20T07:21:18Z</time>
      </trkpt>
      <trkpt lat="43.95417" lon="7.33002">
        <ele>723</ele>
        <time>2013-06-20T07:21:34Z</time>
      </trkpt>
      <trkpt lat="43.95424" lon="7.32978">
        <ele>720</ele>
        <time>2013-06-20T07:21:58Z</time>
      </trkpt>
      <trkpt lat="43.95431" lon="7.32969">
        <ele>721</ele>
        <time>2013-06-20T07:22:14Z</time>
      </trkpt>
      <trkpt lat="43.95428" lon="7.3295">
        <ele>722</ele>
        <time>2013-06-20T07:22:46Z</time>
      </trkpt>
      <trkpt lat="43.95423" lon="7.32945">
        <ele>728</ele>
        <time>2013-06-20T07:24:54Z</time>
      </trkpt>
      <trkpt lat="43.95415" lon="7.32943">
        <ele>727</ele>
        <time>2013-06-20T07:25:58Z</time>
      </trkpt>
      <trkpt lat="43.95407" lon="7.32934">
        <ele>726</ele>
        <time>2013-06-20T07:27:02Z</time>
      </trkpt>
      <trkpt lat="43.9543" lon="7.32908">
        <ele>726</ele>
        <time>2013-06-20T07:27:18Z</time>
      </trkpt>
      <trkpt lat="43.95413" lon="7.32883">
        <ele>728</ele>
        <time>2013-06-20T07:27:50Z</time>
      </trkpt>
      <trkpt lat="43.95385" lon="7.32878">
        <ele>729</ele>
        <time>2013-06-20T07:28:06Z</time>
      </trkpt>
      <trkpt lat="43.95367" lon="7.32869">
        <ele>729</ele>
        <time>2013-06-20T07:28:21Z</time>
      </trkpt>
      <trkpt lat="43.95348" lon="7.32877">
        <ele>730</ele>
        <time>2013-06-20T07:28:38Z</time>
      </trkpt>
      <trkpt lat="43.95332" lon="7.32876">
        <ele>730</ele>
        <time>2013-06-20T07:28:54Z</time>
      </trkpt>
      <trkpt lat="43.95317" lon="7.32878">
        <ele>731</ele>
        <time>2013-06-20T07:29:10Z</time>
      </trkpt>
      <trkpt lat="43.95303" lon="7.32882">
        <ele>731</ele>
        <time>2013-06-20T07:29:26Z</time>
      </trkpt>
      <trkpt lat="43.95287" lon="7.32887">
        <ele>731</ele>
        <time>2013-06-20T07:29:42Z</time>
      </trkpt>
      <trkpt lat="43.95277" lon="7.32883">
        <ele>732</ele>
        <time>2013-06-20T07:29:58Z</time>
      </trkpt>
      <trkpt lat="43.95262" lon="7.32901">
        <ele>732</ele>
        <time>2013-06-20T07:30:13Z</time>
      </trkpt>
      <trkpt lat="43.95258" lon="7.32913">
        <ele>732</ele>
        <time>2013-06-20T07:30:30Z</time>
      </trkpt>
      <trkpt lat="43.95257" lon="7.32919">
        <ele>733</ele>
        <time>2013-06-20T07:31:02Z</time>
      </trkpt>
      <trkpt lat="43.95247" lon="7.32919">
        <ele>733</ele>
        <time>2013-06-20T07:31:18Z</time>
      </trkpt>
      <trkpt lat="43.95238" lon="7.3292">
        <ele>734</ele>
        <time>2013-06-20T07:31:34Z</time>
      </trkpt>
      <trkpt lat="43.9523" lon="7.32924">
        <ele>735</ele>
        <time>2013-06-20T07:31:50Z</time>
      </trkpt>
      <trkpt lat="43.95221" lon="7.32935">
        <ele>735</ele>
        <time>2013-06-20T07:32:06Z</time>
      </trkpt>
      <trkpt lat="43.95227" lon="7.32938">
        <ele>737</ele>
        <time>2013-06-20T07:32:54Z</time>
      </trkpt>
      <trkpt lat="43.95223" lon="7.3295">
        <ele>737</ele>
        <time>2013-06-20T07:34:14Z</time>
      </trkpt>
      <trkpt lat="43.95214" lon="7.32956">
        <ele>739</ele>
        <time>2013-06-20T07:35:50Z</time>
      </trkpt>
      <trkpt lat="43.95192" lon="7.32966">
        <ele>741</ele>
        <time>2013-06-20T07:36:22Z</time>
      </trkpt>
      <trkpt lat="43.95182" lon="7.32975">
        <ele>743</ele>
        <time>2013-06-20T07:36:54Z</time>
      </trkpt>
      <trkpt lat="43.95166" lon="7.32987">
        <ele>746</ele>
        <time>2013-06-20T07:37:26Z</time>
      </trkpt>
      <trkpt lat="43.95153" lon="7.32993">
        <ele>749</ele>
        <time>2013-06-20T07:37:58Z</time>
      </trkpt>
      <trkpt lat="43.95153" lon="7.33005">
        <ele>751</ele>
        <time>2013-06-20T07:38:30Z</time>
      </trkpt>
      <trkpt lat="43.95166" lon="7.33011">
        <ele>753</ele>
        <time>2013-06-20T07:38:46Z</time>
      </trkpt>
      <trkpt lat="43.95169" lon="7.33018">
        <ele>755</ele>
        <time>2013-06-20T07:39:18Z</time>
      </trkpt>
      <trkpt lat="43.95151" lon="7.33017">
        <ele>758</ele>
        <time>2013-06-20T07:39:50Z</time>
      </trkpt>
      <trkpt lat="43.95144" lon="7.3302">
        <ele>760</ele>
        <time>2013-06-20T07:40:06Z</time>
      </trkpt>
      <trkpt lat="43.95134" lon="7.33026">
        <ele>762</ele>
        <time>2013-06-20T07:40:38Z</time>
      </trkpt>
      <trkpt lat="43.95146" lon="7.33045">
        <ele>763</ele>
        <time>2013-06-20T07:40:54Z</time>
      </trkpt>
      <trkpt lat="43.95158" lon="7.33051">
        <ele>766</ele>
        <time>2013-06-20T07:41:10Z</time>
      </trkpt>
      <trkpt lat="43.95153" lon="7.33054">
        <ele>771</ele>
        <time>2013-06-20T07:41:58Z</time>
      </trkpt>
      <trkpt lat="43.95146" lon="7.33063">
        <ele>772</ele>
        <time>2013-06-20T07:42:14Z</time>
      </trkpt>
      <trkpt lat="43.95131" lon="7.33065">
        <ele>774</ele>
        <time>2013-06-20T07:42:30Z</time>
      </trkpt>
      <trkpt lat="43.95114" lon="7.33071">
        <ele>777</ele>
        <time>2013-06-20T07:43:02Z</time>
      </trkpt>
      <trkpt lat="43.95117" lon="7.33087">
        <ele>782</ele>
        <time>2013-06-20T07:43:50Z</time>
      </trkpt>
      <trkpt lat="43.95104" lon="7.33085">
        <ele>785</ele>
        <time>2013-06-20T07:44:22Z</time>
      </trkpt>
      <trkpt lat="43.95093" lon="7.33074">
        <ele>790</ele>
        <time>2013-06-20T07:44:54Z</time>
      </trkpt>
      <trkpt lat="43.95083" lon="7.33067">
        <ele>793</ele>
        <time>2013-06-20T07:45:10Z</time>
      </trkpt>
      <trkpt lat="43.95072" lon="7.33061">
        <ele>799</ele>
        <time>2013-06-20T07:45:41Z</time>
      </trkpt>
      <trkpt lat="43.95063" lon="7.33056">
        <ele>801</ele>
        <time>2013-06-20T07:45:58Z</time>
      </trkpt>
      <trkpt lat="43.95055" lon="7.3305">
        <ele>803</ele>
        <time>2013-06-20T07:46:14Z</time>
      </trkpt>
      <trkpt lat="43.95038" lon="7.33043">
        <ele>806</ele>
        <time>2013-06-20T07:46:29Z</time>
      </trkpt>
      <trkpt lat="43.95027" lon="7.33045">
        <ele>808</ele>
        <time>2013-06-20T07:46:46Z</time>
      </trkpt>
      <trkpt lat="43.95015" lon="7.3304">
        <ele>811</ele>
        <time>2013-06-20T07:47:02Z</time>
      </trkpt>
      <trkpt lat="43.95009" lon="7.33027">
        <ele>815</ele>
        <time>2013-06-20T07:47:17Z</time>
      </trkpt>
      <trkpt lat="43.94997" lon="7.33026">
        <ele>817</ele>
        <time>2013-06-20T07:47:33Z</time>
      </trkpt>
      <trkpt lat="43.94987" lon="7.33028">
        <ele>819</ele>
        <time>2013-06-20T07:47:50Z</time>
      </trkpt>
      <trkpt lat="43.94972" lon="7.33033">
        <ele>822</ele>
        <time>2013-06-20T07:48:06Z</time>
      </trkpt>
      <trkpt lat="43.94962" lon="7.33035">
        <ele>825</ele>
        <time>2013-06-20T07:48:22Z</time>
      </trkpt>
      <trkpt lat="43.9495" lon="7.33039">
        <ele>828</ele>
        <time>2013-06-20T07:48:38Z</time>
      </trkpt>
      <trkpt lat="43.94937" lon="7.33053">
        <ele>832</ele>
        <time>2013-06-20T07:49:09Z</time>
      </trkpt>
      <trkpt lat="43.94932" lon="7.33065">
        <ele>834</ele>
        <time>2013-06-20T07:49:26Z</time>
      </trkpt>
      <trkpt lat="43.94924" lon="7.33081">
        <ele>836</ele>
        <time>2013-06-20T07:49:42Z</time>
      </trkpt>
      <trkpt lat="43.94914" lon="7.3309">
        <ele>839</ele>
        <time>2013-06-20T07:49:58Z</time>
      </trkpt>
      <trkpt lat="43.94903" lon="7.33104">
        <ele>841</ele>
        <time>2013-06-20T07:50:14Z</time>
      </trkpt>
      <trkpt lat="43.94894" lon="7.33104">
        <ele>844</ele>
        <time>2013-06-20T07:50:29Z</time>
      </trkpt>
      <trkpt lat="43.9488" lon="7.33118">
        <ele>849</ele>
        <time>2013-06-20T07:51:02Z</time>
      </trkpt>
      <trkpt lat="43.94874" lon="7.3313">
        <ele>851</ele>
        <time>2013-06-20T07:51:18Z</time>
      </trkpt>
      <trkpt lat="43.94867" lon="7.33139">
        <ele>853</ele>
        <time>2013-06-20T07:51:34Z</time>
      </trkpt>
      <trkpt lat="43.94853" lon="7.33148">
        <ele>856</ele>
        <time>2013-06-20T07:52:06Z</time>
      </trkpt>
      <trkpt lat="43.94848" lon="7.33148">
        <ele>857</ele>
        <time>2013-06-20T07:52:22Z</time>
      </trkpt>
      <trkpt lat="43.94845" lon="7.33153">
        <ele>858</ele>
        <time>2013-06-20T07:52:38Z</time>
      </trkpt>
      <trkpt lat="43.94838" lon="7.33161">
        <ele>860</ele>
        <time>2013-06-20T07:53:10Z</time>
      </trkpt>
      <trkpt lat="43.94835" lon="7.3316">
        <ele>864</ele>
        <time>2013-06-20T07:53:42Z</time>
      </trkpt>
      <trkpt lat="43.94834" lon="7.33159">
        <ele>868</ele>
        <time>2013-06-20T07:55:02Z</time>
      </trkpt>
      <trkpt lat="43.94832" lon="7.3316">
        <ele>873</ele>
        <time>2013-06-20T08:00:06Z</time>
      </trkpt>
      <trkpt lat="43.94825" lon="7.33178">
        <ele>873</ele>
        <time>2013-06-20T08:00:38Z</time>
      </trkpt>
      <trkpt lat="43.94824" lon="7.33184">
        <ele>875</ele>
        <time>2013-06-20T08:01:10Z</time>
      </trkpt>
      <trkpt lat="43.94812" lon="7.33176">
        <ele>877</ele>
        <time>2013-06-20T08:01:26Z</time>
      </trkpt>
      <trkpt lat="43.94806" lon="7.33172">
        <ele>879</ele>
        <time>2013-06-20T08:01:58Z</time>
      </trkpt>
      <trkpt lat="43.94804" lon="7.3318">
        <ele>890</ele>
        <time>2013-06-20T08:02:48Z</time>
      </trkpt>
      <trkpt lat="43.94801" lon="7.3318">
        <ele>893</ele>
        <time>2013-06-20T08:02:59Z</time>
      </trkpt>
      <trkpt lat="43.94796" lon="7.33182">
        <ele>892</ele>
        <time>2013-06-20T08:03:28Z</time>
      </trkpt>
      <trkpt lat="43.94792" lon="7.33184">
        <ele>890</ele>
        <time>2013-06-20T08:03:36Z</time>
      </trkpt>
      <trkpt lat="43.94788" lon="7.33181">
        <ele>890</ele>
        <time>2013-06-20T08:03:42Z</time>
      </trkpt>
      <trkpt lat="43.94787" lon="7.33187">
        <ele>889</ele>
        <time>2013-06-20T08:03:50Z</time>
      </trkpt>
      <trkpt lat="43.94785" lon="7.33193">
        <ele>889</ele>
        <time>2013-06-20T08:03:53Z</time>
      </trkpt>
      <trkpt lat="43.94783" lon="7.33201">
        <ele>891</ele>
        <time>2013-06-20T08:03:57Z</time>
      </trkpt>
      <trkpt lat="43.94783" lon="7.33207">
        <ele>890</ele>
        <time>2013-06-20T08:04:02Z</time>
      </trkpt>
      <trkpt lat="43.94785" lon="7.33214">
        <ele>888</ele>
        <time>2013-06-20T08:04:08Z</time>
      </trkpt>
      <trkpt lat="43.94788" lon="7.33221">
        <ele>887</ele>
        <time>2013-06-20T08:04:20Z</time>
      </trkpt>
      <trkpt lat="43.94789" lon="7.33228">
        <ele>886</ele>
        <time>2013-06-20T08:04:27Z</time>
      </trkpt>
      <trkpt lat="43.94793" lon="7.33236">
        <ele>886</ele>
        <time>2013-06-20T08:04:36Z</time>
      </trkpt>
      <trkpt lat="43.94794" lon="7.3324">
        <ele>884</ele>
        <time>2013-06-20T08:04:43Z</time>
      </trkpt>
      <trkpt lat="43.94794" lon="7.33248">
        <ele>883</ele>
        <time>2013-06-20T08:04:54Z</time>
      </trkpt>
      <trkpt lat="43.94791" lon="7.33255">
        <ele>884</ele>
        <time>2013-06-20T08:04:57Z</time>
      </trkpt>
      <trkpt lat="43.9479" lon="7.33262">
        <ele>886</ele>
        <time>2013-06-20T08:05:00Z</time>
      </trkpt>
      <trkpt lat="43.94788" lon="7.33282">
        <ele>893</ele>
        <time>2013-06-20T08:05:16Z</time>
      </trkpt>
      <trkpt lat="43.94788" lon="7.3329">
        <ele>892</ele>
        <time>2013-06-20T08:05:19Z</time>
      </trkpt>
      <trkpt lat="43.94789" lon="7.33296">
        <ele>892</ele>
        <time>2013-06-20T08:05:24Z</time>
      </trkpt>
      <trkpt lat="43.94793" lon="7.33303">
        <ele>891</ele>
        <time>2013-06-20T08:05:38Z</time>
      </trkpt>
      <trkpt lat="43.94798" lon="7.33307">
        <ele>890</ele>
        <time>2013-06-20T08:05:41Z</time>
      </trkpt>
      <trkpt lat="43.94803" lon="7.33315">
        <ele>889</ele>
        <time>2013-06-20T08:05:48Z</time>
      </trkpt>
      <trkpt lat="43.94803" lon="7.33322">
        <ele>888</ele>
        <time>2013-06-20T08:05:52Z</time>
      </trkpt>
      <trkpt lat="43.94807" lon="7.33326">
        <ele>885</ele>
        <time>2013-06-20T08:05:57Z</time>
      </trkpt>
      <trkpt lat="43.94811" lon="7.3333">
        <ele>885</ele>
        <time>2013-06-20T08:06:01Z</time>
      </trkpt>
      <trkpt lat="43.94812" lon="7.33338">
        <ele>885</ele>
        <time>2013-06-20T08:06:04Z</time>
      </trkpt>
      <trkpt lat="43.94813" lon="7.33344">
        <ele>885</ele>
        <time>2013-06-20T08:06:08Z</time>
      </trkpt>
      <trkpt lat="43.94808" lon="7.33346">
        <ele>884</ele>
        <time>2013-06-20T08:06:13Z</time>
      </trkpt>
      <trkpt lat="43.94804" lon="7.33341">
        <ele>884</ele>
        <time>2013-06-20T08:06:18Z</time>
      </trkpt>
      <trkpt lat="43.94799" lon="7.33342">
        <ele>882</ele>
        <time>2013-06-20T08:06:21Z</time>
      </trkpt>
      <trkpt lat="43.94798" lon="7.33348">
        <ele>880</ele>
        <time>2013-06-20T08:06:26Z</time>
      </trkpt>
      <trkpt lat="43.94799" lon="7.33354">
        <ele>878</ele>
        <time>2013-06-20T08:06:33Z</time>
      </trkpt>
      <trkpt lat="43.948" lon="7.33361">
        <ele>877</ele>
        <time>2013-06-20T08:06:35Z</time>
      </trkpt>
      <trkpt lat="43.94801" lon="7.33367">
        <ele>875</ele>
        <time>2013-06-20T08:06:40Z</time>
      </trkpt>
      <trkpt lat="43.94803" lon="7.33374">
        <ele>875</ele>
        <time>2013-06-20T08:06:45Z</time>
      </trkpt>
      <trkpt lat="43.94806" lon="7.33378">
        <ele>874</ele>
        <time>2013-06-20T08:06:48Z</time>
      </trkpt>
      <trkpt lat="43.9481" lon="7.3338">
        <ele>874</ele>
        <time>2013-06-20T08:06:54Z</time>
      </trkpt>
      <trkpt lat="43.94809" lon="7.33387">
        <ele>875</ele>
        <time>2013-06-20T08:06:57Z</time>
      </trkpt>
      <trkpt lat="43.9481" lon="7.33394">
        <ele>876</ele>
        <time>2013-06-20T08:07:01Z</time>
      </trkpt>
      <trkpt lat="43.9481" lon="7.334">
        <ele>878</ele>
        <time>2013-06-20T08:07:05Z</time>
      </trkpt>
      <trkpt lat="43.94809" lon="7.33407">
        <ele>880</ele>
        <time>2013-06-20T08:07:11Z</time>
      </trkpt>
      <trkpt lat="43.94809" lon="7.33402">
        <ele>872</ele>
        <time>2013-06-20T08:07:27Z</time>
      </trkpt>
      <trkpt lat="43.94806" lon="7.33397">
        <ele>869</ele>
        <time>2013-06-20T08:07:37Z</time>
      </trkpt>
      <trkpt lat="43.94801" lon="7.33392">
        <ele>867</ele>
        <time>2013-06-20T08:07:40Z</time>
      </trkpt>
      <trkpt lat="43.94799" lon="7.33398">
        <ele>866</ele>
        <time>2013-06-20T08:07:43Z</time>
      </trkpt>
      <trkpt lat="43.94796" lon="7.33404">
        <ele>866</ele>
        <time>2013-06-20T08:07:46Z</time>
      </trkpt>
      <trkpt lat="43.94791" lon="7.33401">
        <ele>865</ele>
        <time>2013-06-20T08:07:50Z</time>
      </trkpt>
      <trkpt lat="43.94788" lon="7.33395">
        <ele>864</ele>
        <time>2013-06-20T08:07:55Z</time>
      </trkpt>
      <trkpt lat="43.94784" lon="7.33391">
        <ele>864</ele>
        <time>2013-06-20T08:08:01Z</time>
      </trkpt>
      <trkpt lat="43.94779" lon="7.33393">
        <ele>863</ele>
        <time>2013-06-20T08:08:06Z</time>
      </trkpt>
      <trkpt lat="43.94773" lon="7.33393">
        <ele>861</ele>
        <time>2013-06-20T08:08:09Z</time>
      </trkpt>
      <trkpt lat="43.94768" lon="7.33391">
        <ele>860</ele>
        <time>2013-06-20T08:08:14Z</time>
      </trkpt>
      <trkpt lat="43.94763" lon="7.33389">
        <ele>860</ele>
        <time>2013-06-20T08:08:19Z</time>
      </trkpt>
      <trkpt lat="43.94758" lon="7.33388">
        <ele>860</ele>
        <time>2013-06-20T08:08:23Z</time>
      </trkpt>
      <trkpt lat="43.94753" lon="7.33386">
        <ele>861</ele>
        <time>2013-06-20T08:08:28Z</time>
      </trkpt>
      <trkpt lat="43.94748" lon="7.33384">
        <ele>862</ele>
        <time>2013-06-20T08:08:33Z</time>
      </trkpt>
      <trkpt lat="43.94743" lon="7.33383">
        <ele>862</ele>
        <time>2013-06-20T08:08:39Z</time>
      </trkpt>
      <trkpt lat="43.94739" lon="7.33381">
        <ele>863</ele>
        <time>2013-06-20T08:08:44Z</time>
      </trkpt>
      <trkpt lat="43.94736" lon="7.33375">
        <ele>864</ele>
        <time>2013-06-20T08:08:51Z</time>
      </trkpt>
      <trkpt lat="43.9473" lon="7.33374">
        <ele>864</ele>
        <time>2013-06-20T08:08:55Z</time>
      </trkpt>
      <trkpt lat="43.9473" lon="7.33382">
        <ele>863</ele>
        <time>2013-06-20T08:09:01Z</time>
      </trkpt>
      <trkpt lat="43.94725" lon="7.33382">
        <ele>863</ele>
        <time>2013-06-20T08:09:04Z</time>
      </trkpt>
      <trkpt lat="43.94719" lon="7.33381">
        <ele>862</ele>
        <time>2013-06-20T08:09:08Z</time>
      </trkpt>
      <trkpt lat="43.94714" lon="7.33379">
        <ele>863</ele>
        <time>2013-06-20T08:09:11Z</time>
      </trkpt>
      <trkpt lat="43.94709" lon="7.33378">
        <ele>863</ele>
        <time>2013-06-20T08:09:17Z</time>
      </trkpt>
      <trkpt lat="43.94703" lon="7.3338">
        <ele>863</ele>
        <time>2013-06-20T08:09:21Z</time>
      </trkpt>
      <trkpt lat="43.94699" lon="7.33384">
        <ele>863</ele>
        <time>2013-06-20T08:09:25Z</time>
      </trkpt>
      <trkpt lat="43.94694" lon="7.33387">
        <ele>863</ele>
        <time>2013-06-20T08:09:29Z</time>
      </trkpt>
      <trkpt lat="43.94691" lon="7.33393">
        <ele>863</ele>
        <time>2013-06-20T08:09:35Z</time>
      </trkpt>
      <trkpt lat="43.94687" lon="7.33397">
        <ele>863</ele>
        <time>2013-06-20T08:09:40Z</time>
      </trkpt>
      <trkpt lat="43.94682" lon="7.33399">
        <ele>862</ele>
        <time>2013-06-20T08:09:45Z</time>
      </trkpt>
      <trkpt lat="43.94677" lon="7.33397">
        <ele>863</ele>
        <time>2013-06-20T08:09:52Z</time>
      </trkpt>
      <trkpt lat="43.94672" lon="7.33398">
        <ele>862</ele>
        <time>2013-06-20T08:09:57Z</time>
      </trkpt>
      <trkpt lat="43.94667" lon="7.33399">
        <ele>863</ele>
        <time>2013-06-20T08:10:02Z</time>
      </trkpt>
      <trkpt lat="43.94662" lon="7.33403">
        <ele>863</ele>
        <time>2013-06-20T08:10:16Z</time>
      </trkpt>
      <trkpt lat="43.94659" lon="7.33409">
        <ele>863</ele>
        <time>2013-06-20T08:10:19Z</time>
      </trkpt>
      <trkpt lat="43.94659" lon="7.33416">
        <ele>862</ele>
        <time>2013-06-20T08:10:22Z</time>
      </trkpt>
      <trkpt lat="43.94664" lon="7.33421">
        <ele>859</ele>
        <time>2013-06-20T08:10:34Z</time>
      </trkpt>
      <trkpt lat="43.94669" lon="7.33422">
        <ele>857</ele>
        <time>2013-06-20T08:10:40Z</time>
      </trkpt>
      <trkpt lat="43.9467" lon="7.33429">
        <ele>856</ele>
        <time>2013-06-20T08:10:47Z</time>
      </trkpt>
      <trkpt lat="43.94672" lon="7.33435">
        <ele>857</ele>
        <time>2013-06-20T08:10:52Z</time>
      </trkpt>
      <trkpt lat="43.94676" lon="7.3344">
        <ele>858</ele>
        <time>2013-06-20T08:10:56Z</time>
      </trkpt>
      <trkpt lat="43.94677" lon="7.33448">
        <ele>859</ele>
        <time>2013-06-20T08:10:59Z</time>
      </trkpt>
      <trkpt lat="43.94681" lon="7.33452">
        <ele>859</ele>
        <time>2013-06-20T08:11:03Z</time>
      </trkpt>
      <trkpt lat="43.94684" lon="7.33458">
        <ele>861</ele>
        <time>2013-06-20T08:11:14Z</time>
      </trkpt>
      <trkpt lat="43.94688" lon="7.33463">
        <ele>863</ele>
        <time>2013-06-20T08:11:20Z</time>
      </trkpt>
      <trkpt lat="43.9469" lon="7.33468">
        <ele>863</ele>
        <time>2013-06-20T08:11:27Z</time>
      </trkpt>
      <trkpt lat="43.9469" lon="7.33482">
        <ele>872</ele>
        <time>2013-06-20T08:11:37Z</time>
      </trkpt>
      <trkpt lat="43.94695" lon="7.33484">
        <ele>873</ele>
        <time>2013-06-20T08:11:41Z</time>
      </trkpt>
      <trkpt lat="43.94699" lon="7.33489">
        <ele>872</ele>
        <time>2013-06-20T08:11:47Z</time>
      </trkpt>
      <trkpt lat="43.94698" lon="7.33495">
        <ele>873</ele>
        <time>2013-06-20T08:11:51Z</time>
      </trkpt>
      <trkpt lat="43.94696" lon="7.33501">
        <ele>874</ele>
        <time>2013-06-20T08:11:57Z</time>
      </trkpt>
      <trkpt lat="43.94696" lon="7.33523">
        <ele>862</ele>
        <time>2013-06-20T08:12:28Z</time>
      </trkpt>
      <trkpt lat="43.94695" lon="7.33529">
        <ele>860</ele>
        <time>2013-06-20T08:12:32Z</time>
      </trkpt>
      <trkpt lat="43.94693" lon="7.33535">
        <ele>858</ele>
        <time>2013-06-20T08:12:36Z</time>
      </trkpt>
      <trkpt lat="43.94689" lon="7.33535">
        <ele>855</ele>
        <time>2013-06-20T08:14:31Z</time>
      </trkpt>
      <trkpt lat="43.94692" lon="7.3353">
        <ele>853</ele>
        <time>2013-06-20T08:16:11Z</time>
      </trkpt>
      <trkpt lat="43.94695" lon="7.33526">
        <ele>848</ele>
        <time>2013-06-20T08:16:21Z</time>
      </trkpt>
      <trkpt lat="43.94697" lon="7.3352">
        <ele>847</ele>
        <time>2013-06-20T08:16:26Z</time>
      </trkpt>
      <trkpt lat="43.94701" lon="7.33516">
        <ele>845</ele>
        <time>2013-06-20T08:16:48Z</time>
      </trkpt>
      <trkpt lat="43.94703" lon="7.33508">
        <ele>845</ele>
        <time>2013-06-20T08:16:53Z</time>
      </trkpt>
      <trkpt lat="43.94705" lon="7.33501">
        <ele>846</ele>
        <time>2013-06-20T08:16:57Z</time>
      </trkpt>
      <trkpt lat="43.94705" lon="7.33494">
        <ele>847</ele>
        <time>2013-06-20T08:17:04Z</time>
      </trkpt>
      <trkpt lat="43.94708" lon="7.33488">
        <ele>850</ele>
        <time>2013-06-20T08:17:10Z</time>
      </trkpt>
      <trkpt lat="43.94708" lon="7.33481">
        <ele>852</ele>
        <time>2013-06-20T08:17:16Z</time>
      </trkpt>
      <trkpt lat="43.94705" lon="7.33475">
        <ele>853</ele>
        <time>2013-06-20T08:17:20Z</time>
      </trkpt>
      <trkpt lat="43.94701" lon="7.33473">
        <ele>854</ele>
        <time>2013-06-20T08:17:25Z</time>
      </trkpt>
      <trkpt lat="43.94697" lon="7.33467">
        <ele>852</ele>
        <time>2013-06-20T08:17:30Z</time>
      </trkpt>
      <trkpt lat="43.94694" lon="7.33462">
        <ele>852</ele>
        <time>2013-06-20T08:17:32Z</time>
      </trkpt>
      <trkpt lat="43.94689" lon="7.3346">
        <ele>853</ele>
        <time>2013-06-20T08:17:36Z</time>
      </trkpt>
      <trkpt lat="43.94687" lon="7.33453">
        <ele>853</ele>
        <time>2013-06-20T08:17:40Z</time>
      </trkpt>
      <trkpt lat="43.94684" lon="7.33448">
        <ele>854</ele>
        <time>2013-06-20T08:17:44Z</time>
      </trkpt>
      <trkpt lat="43.94679" lon="7.33446">
        <ele>854</ele>
        <time>2013-06-20T08:17:52Z</time>
      </trkpt>
      <trkpt lat="43.94674" lon="7.33444">
        <ele>855</ele>
        <time>2013-06-20T08:17:55Z</time>
      </trkpt>
      <trkpt lat="43.94671" lon="7.33437">
        <ele>855</ele>
        <time>2013-06-20T08:17:58Z</time>
      </trkpt>
      <trkpt lat="43.94669" lon="7.33432">
        <ele>855</ele>
        <time>2013-06-20T08:18:02Z</time>
      </trkpt>
      <trkpt lat="43.94671" lon="7.33424">
        <ele>854</ele>
        <time>2013-06-20T08:18:06Z</time>
      </trkpt>
      <trkpt lat="43.94667" lon="7.33421">
        <ele>853</ele>
        <time>2013-06-20T08:18:14Z</time>
      </trkpt>
      <trkpt lat="43.94668" lon="7.33418">
        <ele>855</ele>
        <time>2013-06-20T08:18:52Z</time>
      </trkpt>
      <trkpt lat="43.94671" lon="7.33413">
        <ele>856</ele>
        <time>2013-06-20T08:18:57Z</time>
      </trkpt>
      <trkpt lat="43.94676" lon="7.3341">
        <ele>859</ele>
        <time>2013-06-20T08:19:00Z</time>
      </trkpt>
      <trkpt lat="43.94681" lon="7.33408">
        <ele>861</ele>
        <time>2013-06-20T08:19:04Z</time>
      </trkpt>
      <trkpt lat="43.94686" lon="7.3341">
        <ele>865</ele>
        <time>2013-06-20T08:19:09Z</time>
      </trkpt>
      <trkpt lat="43.94689" lon="7.33404">
        <ele>867</ele>
        <time>2013-06-20T08:19:15Z</time>
      </trkpt>
      <trkpt lat="43.94695" lon="7.33403">
        <ele>870</ele>
        <time>2013-06-20T08:19:19Z</time>
      </trkpt>
      <trkpt lat="43.94699" lon="7.33402">
        <ele>870</ele>
        <time>2013-06-20T08:19:21Z</time>
      </trkpt>
      <trkpt lat="43.94702" lon="7.33399">
        <ele>871</ele>
        <time>2013-06-20T08:19:30Z</time>
      </trkpt>
      <trkpt lat="43.94702" lon="7.33392">
        <ele>871</ele>
        <time>2013-06-20T08:19:35Z</time>
      </trkpt>
      <trkpt lat="43.94706" lon="7.33388">
        <ele>871</ele>
        <time>2013-06-20T08:19:42Z</time>
      </trkpt>
      <trkpt lat="43.94712" lon="7.33389">
        <ele>872</ele>
        <time>2013-06-20T08:19:49Z</time>
      </trkpt>
      <trkpt lat="43.94718" lon="7.33389">
        <ele>872</ele>
        <time>2013-06-20T08:19:52Z</time>
      </trkpt>
      <trkpt lat="43.94724" lon="7.33388">
        <ele>872</ele>
        <time>2013-06-20T08:19:55Z</time>
      </trkpt>
      <trkpt lat="43.94729" lon="7.33389">
        <ele>870</ele>
        <time>2013-06-20T08:20:01Z</time>
      </trkpt>
      <trkpt lat="43.94744" lon="7.33399">
        <ele>856</ele>
        <time>2013-06-20T08:20:26Z</time>
      </trkpt>
      <trkpt lat="43.94748" lon="7.33399">
        <ele>857</ele>
        <time>2013-06-20T08:20:30Z</time>
      </trkpt>
      <trkpt lat="43.94754" lon="7.33398">
        <ele>856</ele>
        <time>2013-06-20T08:20:34Z</time>
      </trkpt>
      <trkpt lat="43.94758" lon="7.334">
        <ele>855</ele>
        <time>2013-06-20T08:20:37Z</time>
      </trkpt>
      <trkpt lat="43.94764" lon="7.33402">
        <ele>855</ele>
        <time>2013-06-20T08:20:43Z</time>
      </trkpt>
      <trkpt lat="43.94769" lon="7.33405">
        <ele>855</ele>
        <time>2013-06-20T08:20:46Z</time>
      </trkpt>
      <trkpt lat="43.94773" lon="7.33408">
        <ele>856</ele>
        <time>2013-06-20T08:20:49Z</time>
      </trkpt>
      <trkpt lat="43.94778" lon="7.33411">
        <ele>856</ele>
        <time>2013-06-20T08:20:53Z</time>
      </trkpt>
      <trkpt lat="43.94784" lon="7.33411">
        <ele>856</ele>
        <time>2013-06-20T08:20:59Z</time>
      </trkpt>
      <trkpt lat="43.94789" lon="7.33415">
        <ele>853</ele>
        <time>2013-06-20T08:21:02Z</time>
      </trkpt>
      <trkpt lat="43.94793" lon="7.33419">
        <ele>851</ele>
        <time>2013-06-20T08:21:05Z</time>
      </trkpt>
      <trkpt lat="43.94795" lon="7.33412">
        <ele>851</ele>
        <time>2013-06-20T08:21:10Z</time>
      </trkpt>
      <trkpt lat="43.948" lon="7.33416">
        <ele>851</ele>
        <time>2013-06-20T08:21:21Z</time>
      </trkpt>
      <trkpt lat="43.94805" lon="7.33415">
        <ele>850</ele>
        <time>2013-06-20T08:21:27Z</time>
      </trkpt>
      <trkpt lat="43.94809" lon="7.33415">
        <ele>851</ele>
        <time>2013-06-20T08:21:30Z</time>
      </trkpt>
      <trkpt lat="43.94814" lon="7.33414">
        <ele>852</ele>
        <time>2013-06-20T08:21:34Z</time>
      </trkpt>
      <trkpt lat="43.94817" lon="7.33409">
        <ele>855</ele>
        <time>2013-06-20T08:21:43Z</time>
      </trkpt>
      <trkpt lat="43.94818" lon="7.33401">
        <ele>855</ele>
        <time>2013-06-20T08:21:48Z</time>
      </trkpt>
      <trkpt lat="43.94818" lon="7.33394">
        <ele>853</ele>
        <time>2013-06-20T08:21:51Z</time>
      </trkpt>
      <trkpt lat="43.94816" lon="7.33386">
        <ele>853</ele>
        <time>2013-06-20T08:21:54Z</time>
      </trkpt>
      <trkpt lat="43.94816" lon="7.3338">
        <ele>853</ele>
        <time>2013-06-20T08:21:57Z</time>
      </trkpt>
      <trkpt lat="43.94813" lon="7.33374">
        <ele>853</ele>
        <time>2013-06-20T08:22:00Z</time>
      </trkpt>
      <trkpt lat="43.94811" lon="7.33367">
        <ele>853</ele>
        <time>2013-06-20T08:22:04Z</time>
      </trkpt>
      <trkpt lat="43.94807" lon="7.33364">
        <ele>854</ele>
        <time>2013-06-20T08:22:11Z</time>
      </trkpt>
      <trkpt lat="43.94805" lon="7.33357">
        <ele>857</ele>
        <time>2013-06-20T08:22:18Z</time>
      </trkpt>
      <trkpt lat="43.94806" lon="7.33351">
        <ele>859</ele>
        <time>2013-06-20T08:22:24Z</time>
      </trkpt>
      <trkpt lat="43.94806" lon="7.33344">
        <ele>861</ele>
        <time>2013-06-20T08:22:31Z</time>
      </trkpt>
      <trkpt lat="43.9481" lon="7.3334">
        <ele>863</ele>
        <time>2013-06-20T08:22:37Z</time>
      </trkpt>
      <trkpt lat="43.94814" lon="7.33333">
        <ele>868</ele>
        <time>2013-06-20T08:22:52Z</time>
      </trkpt>
      <trkpt lat="43.94815" lon="7.33325">
        <ele>870</ele>
        <time>2013-06-20T08:22:56Z</time>
      </trkpt>
      <trkpt lat="43.94813" lon="7.33318">
        <ele>872</ele>
        <time>2013-06-20T08:23:02Z</time>
      </trkpt>
      <trkpt lat="43.9481" lon="7.33313">
        <ele>874</ele>
        <time>2013-06-20T08:23:10Z</time>
      </trkpt>
      <trkpt lat="43.94808" lon="7.33306">
        <ele>875</ele>
        <time>2013-06-20T08:23:15Z</time>
      </trkpt>
      <trkpt lat="43.94805" lon="7.33301">
        <ele>875</ele>
        <time>2013-06-20T08:23:20Z</time>
      </trkpt>
      <trkpt lat="43.94807" lon="7.33294">
        <ele>875</ele>
        <time>2013-06-20T08:23:24Z</time>
      </trkpt>
      <trkpt lat="43.94805" lon="7.33288">
        <ele>874</ele>
        <time>2013-06-20T08:23:31Z</time>
      </trkpt>
      <trkpt lat="43.94803" lon="7.33283">
        <ele>875</ele>
        <time>2013-06-20T08:23:40Z</time>
      </trkpt>
      <trkpt lat="43.94798" lon="7.33283">
        <ele>878</ele>
        <time>2013-06-20T08:23:52Z</time>
      </trkpt>
      <trkpt lat="43.94796" lon="7.33276">
        <ele>878</ele>
        <time>2013-06-20T08:23:56Z</time>
      </trkpt>
      <trkpt lat="43.94795" lon="7.33268">
        <ele>879</ele>
        <time>2013-06-20T08:24:00Z</time>
      </trkpt>
      <trkpt lat="43.94794" lon="7.33261">
        <ele>880</ele>
        <time>2013-06-20T08:24:05Z</time>
      </trkpt>
      <trkpt lat="43.94793" lon="7.33255">
        <ele>882</ele>
        <time>2013-06-20T08:24:19Z</time>
      </trkpt>
      <trkpt lat="43.94793" lon="7.33248">
        <ele>883</ele>
        <time>2013-06-20T08:24:29Z</time>
      </trkpt>
      <trkpt lat="43.94793" lon="7.33241">
        <ele>883</ele>
        <time>2013-06-20T08:24:33Z</time>
      </trkpt>
      <trkpt lat="43.94791" lon="7.33233">
        <ele>884</ele>
        <time>2013-06-20T08:24:37Z</time>
      </trkpt>
      <trkpt lat="43.9479" lon="7.33225">
        <ele>884</ele>
        <time>2013-06-20T08:24:39Z</time>
      </trkpt>
      <trkpt lat="43.9479" lon="7.33218">
        <ele>883</ele>
        <time>2013-06-20T08:24:43Z</time>
      </trkpt>
      <trkpt lat="43.94788" lon="7.33212">
        <ele>883</ele>
        <time>2013-06-20T08:24:46Z</time>
      </trkpt>
      <trkpt lat="43.94783" lon="7.33209">
        <ele>883</ele>
        <time>2013-06-20T08:24:50Z</time>
      </trkpt>
      <trkpt lat="43.9478" lon="7.33201">
        <ele>882</ele>
        <time>2013-06-20T08:24:59Z</time>
      </trkpt>
      <trkpt lat="43.94778" lon="7.33193">
        <ele>881</ele>
        <time>2013-06-20T08:25:02Z</time>
      </trkpt>
      <trkpt lat="43.94776" lon="7.33187">
        <ele>880</ele>
        <time>2013-06-20T08:25:04Z</time>
      </trkpt>
      <trkpt lat="43.9478" lon="7.33181">
        <ele>881</ele>
        <time>2013-06-20T08:25:12Z</time>
      </trkpt>
      <trkpt lat="43.94785" lon="7.3318">
        <ele>883</ele>
        <time>2013-06-20T08:25:16Z</time>
      </trkpt>
      <trkpt lat="43.94803" lon="7.33188">
        <ele>894</ele>
        <time>2013-06-20T08:25:42Z</time>
      </trkpt>
      <trkpt lat="43.94804" lon="7.33191">
        <ele>894</ele>
        <time>2013-06-20T08:31:24Z</time>
      </trkpt>
      <trkpt lat="43.94807" lon="7.33199">
        <ele>893</ele>
        <time>2013-06-20T08:31:27Z</time>
      </trkpt>
      <trkpt lat="43.94809" lon="7.33204">
        <ele>893</ele>
        <time>2013-06-20T08:31:30Z</time>
      </trkpt>
      <trkpt lat="43.9481" lon="7.33211">
        <ele>894</ele>
        <time>2013-06-20T08:31:36Z</time>
      </trkpt>
      <trkpt lat="43.94814" lon="7.33217">
        <ele>894</ele>
        <time>2013-06-20T08:31:46Z</time>
      </trkpt>
      <trkpt lat="43.94816" lon="7.33224">
        <ele>894</ele>
        <time>2013-06-20T08:31:51Z</time>
      </trkpt>
      <trkpt lat="43.94815" lon="7.33232">
        <ele>894</ele>
        <time>2013-06-20T08:31:55Z</time>
      </trkpt>
      <trkpt lat="43.94816" lon="7.33239">
        <ele>893</ele>
        <time>2013-06-20T08:31:59Z</time>
      </trkpt>
      <trkpt lat="43.94818" lon="7.33247">
        <ele>893</ele>
        <time>2013-06-20T08:32:02Z</time>
      </trkpt>
      <trkpt lat="43.9482" lon="7.33253">
        <ele>892</ele>
        <time>2013-06-20T08:32:08Z</time>
      </trkpt>
      <trkpt lat="43.94822" lon="7.33259">
        <ele>892</ele>
        <time>2013-06-20T08:32:14Z</time>
      </trkpt>
      <trkpt lat="43.94825" lon="7.33264">
        <ele>892</ele>
        <time>2013-06-20T08:32:20Z</time>
      </trkpt>
      <trkpt lat="43.94827" lon="7.33269">
        <ele>893</ele>
        <time>2013-06-20T08:32:23Z</time>
      </trkpt>
      <trkpt lat="43.9483" lon="7.33276">
        <ele>894</ele>
        <time>2013-06-20T08:32:25Z</time>
      </trkpt>
      <trkpt lat="43.94832" lon="7.33283">
        <ele>895</ele>
        <time>2013-06-20T08:32:30Z</time>
      </trkpt>
      <trkpt lat="43.94836" lon="7.33285">
        <ele>897</ele>
        <time>2013-06-20T08:32:35Z</time>
      </trkpt>
      <trkpt lat="43.94841" lon="7.33285">
        <ele>898</ele>
        <time>2013-06-20T08:32:39Z</time>
      </trkpt>
      <trkpt lat="43.94844" lon="7.3329">
        <ele>898</ele>
        <time>2013-06-20T08:32:45Z</time>
      </trkpt>
      <trkpt lat="43.9485" lon="7.33293">
        <ele>898</ele>
        <time>2013-06-20T08:32:49Z</time>
      </trkpt>
      <trkpt lat="43.94855" lon="7.33293">
        <ele>898</ele>
        <time>2013-06-20T08:32:51Z</time>
      </trkpt>
      <trkpt lat="43.9486" lon="7.33292">
        <ele>898</ele>
        <time>2013-06-20T08:32:53Z</time>
      </trkpt>
      <trkpt lat="43.94865" lon="7.33287">
        <ele>898</ele>
        <time>2013-06-20T08:32:57Z</time>
      </trkpt>
      <trkpt lat="43.94865" lon="7.33293">
        <ele>900</ele>
        <time>2013-06-20T08:33:05Z</time>
      </trkpt>
      <trkpt lat="43.94867" lon="7.33299">
        <ele>900</ele>
        <time>2013-06-20T08:33:10Z</time>
      </trkpt>
      <trkpt lat="43.94872" lon="7.33297">
        <ele>900</ele>
        <time>2013-06-20T08:33:17Z</time>
      </trkpt>
      <trkpt lat="43.94876" lon="7.33302">
        <ele>900</ele>
        <time>2013-06-20T08:33:20Z</time>
      </trkpt>
      <trkpt lat="43.94879" lon="7.33307">
        <ele>901</ele>
        <time>2013-06-20T08:33:24Z</time>
      </trkpt>
      <trkpt lat="43.94882" lon="7.33312">
        <ele>903</ele>
        <time>2013-06-20T08:33:31Z</time>
      </trkpt>
      <trkpt lat="43.94881" lon="7.33318">
        <ele>905</ele>
        <time>2013-06-20T08:33:38Z</time>
      </trkpt>
      <trkpt lat="43.94879" lon="7.33324">
        <ele>907</ele>
        <time>2013-06-20T08:33:44Z</time>
      </trkpt>
      <trkpt lat="43.94879" lon="7.3333">
        <ele>909</ele>
        <time>2013-06-20T08:33:51Z</time>
      </trkpt>
      <trkpt lat="43.94875" lon="7.33336">
        <ele>911</ele>
        <time>2013-06-20T08:34:00Z</time>
      </trkpt>
      <trkpt lat="43.94878" lon="7.33341">
        <ele>913</ele>
        <time>2013-06-20T08:34:04Z</time>
      </trkpt>
      <trkpt lat="43.94883" lon="7.33345">
        <ele>913</ele>
        <time>2013-06-20T08:34:08Z</time>
      </trkpt>
      <trkpt lat="43.94887" lon="7.33348">
        <ele>913</ele>
        <time>2013-06-20T08:34:12Z</time>
      </trkpt>
      <trkpt lat="43.94891" lon="7.33352">
        <ele>913</ele>
        <time>2013-06-20T08:34:18Z</time>
      </trkpt>
      <trkpt lat="43.94893" lon="7.33357">
        <ele>915</ele>
        <time>2013-06-20T08:34:24Z</time>
      </trkpt>
      <trkpt lat="43.94896" lon="7.33363">
        <ele>917</ele>
        <time>2013-06-20T08:34:30Z</time>
      </trkpt>
      <trkpt lat="43.94899" lon="7.33368">
        <ele>918</ele>
        <time>2013-06-20T08:34:38Z</time>
      </trkpt>
      <trkpt lat="43.94903" lon="7.33371">
        <ele>920</ele>
        <time>2013-06-20T08:34:48Z</time>
      </trkpt>
      <trkpt lat="43.94908" lon="7.33372">
        <ele>921</ele>
        <time>2013-06-20T08:34:56Z</time>
      </trkpt>
      <trkpt lat="43.94913" lon="7.33372">
        <ele>921</ele>
        <time>2013-06-20T08:35:02Z</time>
      </trkpt>
      <trkpt lat="43.94915" lon="7.33378">
        <ele>921</ele>
        <time>2013-06-20T08:35:06Z</time>
      </trkpt>
      <trkpt lat="43.94917" lon="7.33384">
        <ele>922</ele>
        <time>2013-06-20T08:35:12Z</time>
      </trkpt>
      <trkpt lat="43.94914" lon="7.3339">
        <ele>923</ele>
        <time>2013-06-20T08:35:19Z</time>
      </trkpt>
      <trkpt lat="43.94915" lon="7.33397">
        <ele>924</ele>
        <time>2013-06-20T08:35:27Z</time>
      </trkpt>
      <trkpt lat="43.94914" lon="7.33404">
        <ele>925</ele>
        <time>2013-06-20T08:35:31Z</time>
      </trkpt>
      <trkpt lat="43.94914" lon="7.3341">
        <ele>925</ele>
        <time>2013-06-20T08:35:35Z</time>
      </trkpt>
      <trkpt lat="43.94912" lon="7.33417">
        <ele>927</ele>
        <time>2013-06-20T08:35:40Z</time>
      </trkpt>
      <trkpt lat="43.94912" lon="7.33424">
        <ele>930</ele>
        <time>2013-06-20T08:35:45Z</time>
      </trkpt>
      <trkpt lat="43.94908" lon="7.33425">
        <ele>934</ele>
        <time>2013-06-20T08:36:17Z</time>
      </trkpt>
      <trkpt lat="43.94907" lon="7.33434">
        <ele>935</ele>
        <time>2013-06-20T08:37:22Z</time>
      </trkpt>
      <trkpt lat="43.94907" lon="7.3344">
        <ele>936</ele>
        <time>2013-06-20T08:37:25Z</time>
      </trkpt>
      <trkpt lat="43.94908" lon="7.33448">
        <ele>937</ele>
        <time>2013-06-20T08:37:29Z</time>
      </trkpt>
      <trkpt lat="43.94908" lon="7.33455">
        <ele>937</ele>
        <time>2013-06-20T08:37:33Z</time>
      </trkpt>
      <trkpt lat="43.94908" lon="7.33462">
        <ele>938</ele>
        <time>2013-06-20T08:37:38Z</time>
      </trkpt>
      <trkpt lat="43.94909" lon="7.33468">
        <ele>939</ele>
        <time>2013-06-20T08:37:44Z</time>
      </trkpt>
      <trkpt lat="43.94911" lon="7.33475">
        <ele>941</ele>
        <time>2013-06-20T08:37:49Z</time>
      </trkpt>
      <trkpt lat="43.94912" lon="7.33481">
        <ele>943</ele>
        <time>2013-06-20T08:37:55Z</time>
      </trkpt>
      <trkpt lat="43.94914" lon="7.33488">
        <ele>944</ele>
        <time>2013-06-20T08:38:00Z</time>
      </trkpt>
      <trkpt lat="43.94916" lon="7.33494">
        <ele>946</ele>
        <time>2013-06-20T08:38:05Z</time>
      </trkpt>
      <trkpt lat="43.94917" lon="7.335">
        <ele>948</ele>
        <time>2013-06-20T08:38:14Z</time>
      </trkpt>
      <trkpt lat="43.94918" lon="7.33509">
        <ele>950</ele>
        <time>2013-06-20T08:38:27Z</time>
      </trkpt>
      <trkpt lat="43.94918" lon="7.33515">
        <ele>950</ele>
        <time>2013-06-20T08:38:30Z</time>
      </trkpt>
      <trkpt lat="43.94919" lon="7.33522">
        <ele>951</ele>
        <time>2013-06-20T08:38:36Z</time>
      </trkpt>
      <trkpt lat="43.94921" lon="7.33528">
        <ele>953</ele>
        <time>2013-06-20T08:38:46Z</time>
      </trkpt>
      <trkpt lat="43.94927" lon="7.33529">
        <ele>953</ele>
        <time>2013-06-20T08:39:07Z</time>
      </trkpt>
      <trkpt lat="43.94932" lon="7.33532">
        <ele>954</ele>
        <time>2013-06-20T08:39:11Z</time>
      </trkpt>
      <trkpt lat="43.94937" lon="7.33537">
        <ele>955</ele>
        <time>2013-06-20T08:39:13Z</time>
      </trkpt>
      <trkpt lat="43.94941" lon="7.33541">
        <ele>956</ele>
        <time>2013-06-20T08:39:16Z</time>
      </trkpt>
      <trkpt lat="43.94941" lon="7.33548">
        <ele>957</ele>
        <time>2013-06-20T08:39:23Z</time>
      </trkpt>
      <trkpt lat="43.9494" lon="7.33564">
        <ele>962</ele>
        <time>2013-06-20T08:39:37Z</time>
      </trkpt>
      <trkpt lat="43.94943" lon="7.33569">
        <ele>964</ele>
        <time>2013-06-20T08:39:42Z</time>
      </trkpt>
      <trkpt lat="43.94945" lon="7.33576">
        <ele>965</ele>
        <time>2013-06-20T08:39:48Z</time>
      </trkpt>
      <trkpt lat="43.94948" lon="7.33581">
        <ele>966</ele>
        <time>2013-06-20T08:39:53Z</time>
      </trkpt>
      <trkpt lat="43.94947" lon="7.33588">
        <ele>967</ele>
        <time>2013-06-20T08:39:58Z</time>
      </trkpt>
      <trkpt lat="43.94947" lon="7.33596">
        <ele>967</ele>
        <time>2013-06-20T08:40:02Z</time>
      </trkpt>
      <trkpt lat="43.94947" lon="7.33602">
        <ele>967</ele>
        <time>2013-06-20T08:40:07Z</time>
      </trkpt>
      <trkpt lat="43.94947" lon="7.33609">
        <ele>969</ele>
        <time>2013-06-20T08:40:17Z</time>
      </trkpt>
      <trkpt lat="43.94943" lon="7.33613">
        <ele>971</ele>
        <time>2013-06-20T08:40:21Z</time>
      </trkpt>
      <trkpt lat="43.94939" lon="7.33617">
        <ele>971</ele>
        <time>2013-06-20T08:40:27Z</time>
      </trkpt>
      <trkpt lat="43.94934" lon="7.33622">
        <ele>972</ele>
        <time>2013-06-20T08:40:31Z</time>
      </trkpt>
      <trkpt lat="43.9493" lon="7.33626">
        <ele>972</ele>
        <time>2013-06-20T08:40:35Z</time>
      </trkpt>
      <trkpt lat="43.94925" lon="7.33628">
        <ele>973</ele>
        <time>2013-06-20T08:40:39Z</time>
      </trkpt>
      <trkpt lat="43.94916" lon="7.33634">
        <ele>973</ele>
        <time>2013-06-20T08:40:49Z</time>
      </trkpt>
      <trkpt lat="43.94917" lon="7.33648">
        <ele>972</ele>
        <time>2013-06-20T08:40:57Z</time>
      </trkpt>
      <trkpt lat="43.94914" lon="7.33654">
        <ele>972</ele>
        <time>2013-06-20T08:41:03Z</time>
      </trkpt>
      <trkpt lat="43.94915" lon="7.33661">
        <ele>973</ele>
        <time>2013-06-20T08:41:12Z</time>
      </trkpt>
      <trkpt lat="43.94917" lon="7.33667">
        <ele>973</ele>
        <time>2013-06-20T08:41:19Z</time>
      </trkpt>
      <trkpt lat="43.94918" lon="7.33673">
        <ele>973</ele>
        <time>2013-06-20T08:41:25Z</time>
      </trkpt>
      <trkpt lat="43.94921" lon="7.33679">
        <ele>974</ele>
        <time>2013-06-20T08:41:30Z</time>
      </trkpt>
      <trkpt lat="43.94922" lon="7.33685">
        <ele>975</ele>
        <time>2013-06-20T08:41:34Z</time>
      </trkpt>
      <trkpt lat="43.94929" lon="7.33689">
        <ele>977</ele>
        <time>2013-06-20T08:41:39Z</time>
      </trkpt>
      <trkpt lat="43.94933" lon="7.3369">
        <ele>981</ele>
        <time>2013-06-20T08:41:49Z</time>
      </trkpt>
      <trkpt lat="43.94935" lon="7.33695">
        <ele>984</ele>
        <time>2013-06-20T08:42:02Z</time>
      </trkpt>
      <trkpt lat="43.94932" lon="7.33699">
        <ele>990</ele>
        <time>2013-06-20T08:46:48Z</time>
      </trkpt>
      <trkpt lat="43.94929" lon="7.33706">
        <ele>992</ele>
        <time>2013-06-20T08:46:57Z</time>
      </trkpt>
      <trkpt lat="43.94927" lon="7.33712">
        <ele>993</ele>
        <time>2013-06-20T08:47:05Z</time>
      </trkpt>
      <trkpt lat="43.94928" lon="7.33719">
        <ele>994</ele>
        <time>2013-06-20T08:47:11Z</time>
      </trkpt>
      <trkpt lat="43.94928" lon="7.33726">
        <ele>994</ele>
        <time>2013-06-20T08:47:15Z</time>
      </trkpt>
      <trkpt lat="43.94927" lon="7.33732">
        <ele>995</ele>
        <time>2013-06-20T08:47:21Z</time>
      </trkpt>
      <trkpt lat="43.94923" lon="7.33737">
        <ele>995</ele>
        <time>2013-06-20T08:47:26Z</time>
      </trkpt>
      <trkpt lat="43.94923" lon="7.33744">
        <ele>997</ele>
        <time>2013-06-20T08:47:32Z</time>
      </trkpt>
      <trkpt lat="43.94923" lon="7.33751">
        <ele>997</ele>
        <time>2013-06-20T08:47:37Z</time>
      </trkpt>
      <trkpt lat="43.9492" lon="7.33756">
        <ele>998</ele>
        <time>2013-06-20T08:47:46Z</time>
      </trkpt>
      <trkpt lat="43.94923" lon="7.33762">
        <ele>999</ele>
        <time>2013-06-20T08:47:53Z</time>
      </trkpt>
      <trkpt lat="43.94924" lon="7.33769">
        <ele>1000</ele>
        <time>2013-06-20T08:47:59Z</time>
      </trkpt>
      <trkpt lat="43.94926" lon="7.33776">
        <ele>1001</ele>
        <time>2013-06-20T08:48:03Z</time>
      </trkpt>
      <trkpt lat="43.94926" lon="7.33782">
        <ele>1003</ele>
        <time>2013-06-20T08:48:11Z</time>
      </trkpt>
      <trkpt lat="43.94925" lon="7.33788">
        <ele>1003</ele>
        <time>2013-06-20T08:48:16Z</time>
      </trkpt>
      <trkpt lat="43.94929" lon="7.33792">
        <ele>1005</ele>
        <time>2013-06-20T08:48:52Z</time>
      </trkpt>
      <trkpt lat="43.94929" lon="7.338">
        <ele>1005</ele>
        <time>2013-06-20T08:48:57Z</time>
      </trkpt>
      <trkpt lat="43.9493" lon="7.33807">
        <ele>1005</ele>
        <time>2013-06-20T08:49:01Z</time>
      </trkpt>
      <trkpt lat="43.94929" lon="7.33814">
        <ele>1005</ele>
        <time>2013-06-20T08:49:05Z</time>
      </trkpt>
      <trkpt lat="43.94926" lon="7.33821">
        <ele>1006</ele>
        <time>2013-06-20T08:49:11Z</time>
      </trkpt>
      <trkpt lat="43.94929" lon="7.33826">
        <ele>1006</ele>
        <time>2013-06-20T08:49:17Z</time>
      </trkpt>
      <trkpt lat="43.94931" lon="7.33832">
        <ele>1007</ele>
        <time>2013-06-20T08:49:22Z</time>
      </trkpt>
      <trkpt lat="43.94933" lon="7.33838">
        <ele>1008</ele>
        <time>2013-06-20T08:49:28Z</time>
      </trkpt>
      <trkpt lat="43.94934" lon="7.33845">
        <ele>1009</ele>
        <time>2013-06-20T08:49:37Z</time>
      </trkpt>
      <trkpt lat="43.94932" lon="7.3385">
        <ele>1014</ele>
        <time>2013-06-20T08:50:25Z</time>
      </trkpt>
      <trkpt lat="43.9493" lon="7.33858">
        <ele>1015</ele>
        <time>2013-06-20T08:50:29Z</time>
      </trkpt>
      <trkpt lat="43.94928" lon="7.33864">
        <ele>1016</ele>
        <time>2013-06-20T08:50:33Z</time>
      </trkpt>
      <trkpt lat="43.94926" lon="7.3387">
        <ele>1016</ele>
        <time>2013-06-20T08:50:37Z</time>
      </trkpt>
      <trkpt lat="43.94927" lon="7.33878">
        <ele>1017</ele>
        <time>2013-06-20T08:50:41Z</time>
      </trkpt>
      <trkpt lat="43.94929" lon="7.33885">
        <ele>1017</ele>
        <time>2013-06-20T08:50:45Z</time>
      </trkpt>
      <trkpt lat="43.94931" lon="7.33891">
        <ele>1017</ele>
        <time>2013-06-20T08:50:49Z</time>
      </trkpt>
      <trkpt lat="43.94931" lon="7.33897">
        <ele>1017</ele>
        <time>2013-06-20T08:50:53Z</time>
      </trkpt>
      <trkpt lat="43.94931" lon="7.33905">
        <ele>1018</ele>
        <time>2013-06-20T08:50:57Z</time>
      </trkpt>
      <trkpt lat="43.94933" lon="7.33911">
        <ele>1020</ele>
        <time>2013-06-20T08:51:02Z</time>
      </trkpt>
      <trkpt lat="43.9493" lon="7.33917">
        <ele>1022</ele>
        <time>2013-06-20T08:51:06Z</time>
      </trkpt>
      <trkpt lat="43.94929" lon="7.33926">
        <ele>1023</ele>
        <time>2013-06-20T08:51:10Z</time>
      </trkpt>
      <trkpt lat="43.9493" lon="7.33933">
        <ele>1025</ele>
        <time>2013-06-20T08:51:15Z</time>
      </trkpt>
      <trkpt lat="43.94931" lon="7.33939">
        <ele>1025</ele>
        <time>2013-06-20T08:51:21Z</time>
      </trkpt>
      <trkpt lat="43.94932" lon="7.33945">
        <ele>1024</ele>
        <time>2013-06-20T08:51:26Z</time>
      </trkpt>
      <trkpt lat="43.94933" lon="7.33952">
        <ele>1024</ele>
        <time>2013-06-20T08:51:30Z</time>
      </trkpt>
      <trkpt lat="43.94935" lon="7.33958">
        <ele>1025</ele>
        <time>2013-06-20T08:51:36Z</time>
      </trkpt>
      <trkpt lat="43.94939" lon="7.33963">
        <ele>1025</ele>
        <time>2013-06-20T08:51:42Z</time>
      </trkpt>
      <trkpt lat="43.94943" lon="7.33967">
        <ele>1025</ele>
        <time>2013-06-20T08:51:46Z</time>
      </trkpt>
      <trkpt lat="43.94947" lon="7.33969">
        <ele>1025</ele>
        <time>2013-06-20T08:51:50Z</time>
      </trkpt>
      <trkpt lat="43.94949" lon="7.33973">
        <ele>1026</ele>
        <time>2013-06-20T08:52:58Z</time>
      </trkpt>
      <trkpt lat="43.94953" lon="7.33979">
        <ele>1027</ele>
        <time>2013-06-20T08:53:02Z</time>
      </trkpt>
      <trkpt lat="43.94958" lon="7.33984">
        <ele>1028</ele>
        <time>2013-06-20T08:53:04Z</time>
      </trkpt>
      <trkpt lat="43.9496" lon="7.3399">
        <ele>1028</ele>
        <time>2013-06-20T08:53:07Z</time>
      </trkpt>
      <trkpt lat="43.94961" lon="7.33997">
        <ele>1029</ele>
        <time>2013-06-20T08:53:10Z</time>
      </trkpt>
      <trkpt lat="43.94964" lon="7.34002">
        <ele>1030</ele>
        <time>2013-06-20T08:53:14Z</time>
      </trkpt>
      <trkpt lat="43.94966" lon="7.34009">
        <ele>1032</ele>
        <time>2013-06-20T08:53:21Z</time>
      </trkpt>
      <trkpt lat="43.94965" lon="7.34004">
        <ele>1039</ele>
        <time>2013-06-20T08:54:00Z</time>
      </trkpt>
      <trkpt lat="43.94962" lon="7.33998">
        <ele>1039</ele>
        <time>2013-06-20T08:54:03Z</time>
      </trkpt>
      <trkpt lat="43.94958" lon="7.33993">
        <ele>1042</ele>
        <time>2013-06-20T08:54:08Z</time>
      </trkpt>
      <trkpt lat="43.94956" lon="7.33995">
        <ele>1046</ele>
        <time>2013-06-20T08:54:20Z</time>
      </trkpt>
      <trkpt lat="43.9496" lon="7.34">
        <ele>1048</ele>
        <time>2013-06-20T08:54:26Z</time>
      </trkpt>
      <trkpt lat="43.94962" lon="7.34005">
        <ele>1049</ele>
        <time>2013-06-20T08:54:31Z</time>
      </trkpt>
      <trkpt lat="43.94959" lon="7.34011">
        <ele>1050</ele>
        <time>2013-06-20T08:54:38Z</time>
      </trkpt>
      <trkpt lat="43.94955" lon="7.34009">
        <ele>1052</ele>
        <time>2013-06-20T08:54:44Z</time>
      </trkpt>
      <trkpt lat="43.94951" lon="7.34006">
        <ele>1053</ele>
        <time>2013-06-20T08:54:48Z</time>
      </trkpt>
      <trkpt lat="43.94951" lon="7.34008">
        <ele>1057</ele>
        <time>2013-06-20T08:55:18Z</time>
      </trkpt>
      <trkpt lat="43.94954" lon="7.34014">
        <ele>1057</ele>
        <time>2013-06-20T08:55:21Z</time>
      </trkpt>
      <trkpt lat="43.94956" lon="7.3402">
        <ele>1058</ele>
        <time>2013-06-20T08:55:24Z</time>
      </trkpt>
      <trkpt lat="43.94957" lon="7.34027">
        <ele>1058</ele>
        <time>2013-06-20T08:55:27Z</time>
      </trkpt>
      <trkpt lat="43.94955" lon="7.34036">
        <ele>1059</ele>
        <time>2013-06-20T08:55:36Z</time>
      </trkpt>
      <trkpt lat="43.94951" lon="7.34039">
        <ele>1059</ele>
        <time>2013-06-20T08:55:41Z</time>
      </trkpt>
      <trkpt lat="43.94948" lon="7.34042">
        <ele>1060</ele>
        <time>2013-06-20T08:55:49Z</time>
      </trkpt>
      <trkpt lat="43.94943" lon="7.34044">
        <ele>1061</ele>
        <time>2013-06-20T08:56:07Z</time>
      </trkpt>
      <trkpt lat="43.94938" lon="7.34047">
        <ele>1062</ele>
        <time>2013-06-20T08:56:10Z</time>
      </trkpt>
      <trkpt lat="43.94933" lon="7.3405">
        <ele>1063</ele>
        <time>2013-06-20T08:56:13Z</time>
      </trkpt>
      <trkpt lat="43.94927" lon="7.34052">
        <ele>1063</ele>
        <time>2013-06-20T08:56:16Z</time>
      </trkpt>
      <trkpt lat="43.94922" lon="7.34052">
        <ele>1064</ele>
        <time>2013-06-20T08:56:21Z</time>
      </trkpt>
      <trkpt lat="43.94921" lon="7.34055">
        <ele>1064</ele>
        <time>2013-06-20T08:56:27Z</time>
      </trkpt>
      <trkpt lat="43.94917" lon="7.34061">
        <ele>1064</ele>
        <time>2013-06-20T08:56:31Z</time>
      </trkpt>
      <trkpt lat="43.94908" lon="7.34067">
        <ele>1064</ele>
        <time>2013-06-20T08:56:40Z</time>
      </trkpt>
      <trkpt lat="43.94906" lon="7.34079">
        <ele>1064</ele>
        <time>2013-06-20T08:56:49Z</time>
      </trkpt>
      <trkpt lat="43.94905" lon="7.34093">
        <ele>1064</ele>
        <time>2013-06-20T08:56:55Z</time>
      </trkpt>
      <trkpt lat="43.94903" lon="7.34106">
        <ele>1064</ele>
        <time>2013-06-20T08:57:00Z</time>
      </trkpt>
      <trkpt lat="43.94903" lon="7.34115">
        <ele>1065</ele>
        <time>2013-06-20T08:57:16Z</time>
      </trkpt>
      <trkpt lat="43.94898" lon="7.34119">
        <ele>1067</ele>
        <time>2013-06-20T08:57:21Z</time>
      </trkpt>
      <trkpt lat="43.94895" lon="7.34123">
        <ele>1068</ele>
        <time>2013-06-20T08:57:26Z</time>
      </trkpt>
      <trkpt lat="43.94893" lon="7.34129">
        <ele>1068</ele>
        <time>2013-06-20T08:57:31Z</time>
      </trkpt>
      <trkpt lat="43.94891" lon="7.34135">
        <ele>1069</ele>
        <time>2013-06-20T08:57:35Z</time>
      </trkpt>
      <trkpt lat="43.94887" lon="7.34139">
        <ele>1069</ele>
        <time>2013-06-20T08:57:39Z</time>
      </trkpt>
      <trkpt lat="43.94887" lon="7.34146">
        <ele>1071</ele>
        <time>2013-06-20T08:57:47Z</time>
      </trkpt>
      <trkpt lat="43.94891" lon="7.34151">
        <ele>1072</ele>
        <time>2013-06-20T08:57:50Z</time>
      </trkpt>
      <trkpt lat="43.94896" lon="7.34164">
        <ele>1077</ele>
        <time>2013-06-20T08:58:01Z</time>
      </trkpt>
      <trkpt lat="43.94899" lon="7.34169">
        <ele>1078</ele>
        <time>2013-06-20T08:58:05Z</time>
      </trkpt>
      <trkpt lat="43.94901" lon="7.34175">
        <ele>1079</ele>
        <time>2013-06-20T08:58:08Z</time>
      </trkpt>
      <trkpt lat="43.94902" lon="7.34182">
        <ele>1080</ele>
        <time>2013-06-20T08:58:12Z</time>
      </trkpt>
      <trkpt lat="43.94902" lon="7.34188">
        <ele>1082</ele>
        <time>2013-06-20T08:58:17Z</time>
      </trkpt>
      <trkpt lat="43.949" lon="7.34195">
        <ele>1082</ele>
        <time>2013-06-20T08:58:21Z</time>
      </trkpt>
      <trkpt lat="43.94897" lon="7.34201">
        <ele>1082</ele>
        <time>2013-06-20T08:58:26Z</time>
      </trkpt>
      <trkpt lat="43.94892" lon="7.34203">
        <ele>1082</ele>
        <time>2013-06-20T08:58:32Z</time>
      </trkpt>
      <trkpt lat="43.9489" lon="7.34209">
        <ele>1082</ele>
        <time>2013-06-20T08:58:37Z</time>
      </trkpt>
      <trkpt lat="43.94888" lon="7.34216">
        <ele>1082</ele>
        <time>2013-06-20T08:58:40Z</time>
      </trkpt>
      <trkpt lat="43.94888" lon="7.34224">
        <ele>1081</ele>
        <time>2013-06-20T08:58:46Z</time>
      </trkpt>
      <trkpt lat="43.94885" lon="7.3423">
        <ele>1081</ele>
        <time>2013-06-20T08:58:50Z</time>
      </trkpt>
      <trkpt lat="43.94885" lon="7.34238">
        <ele>1081</ele>
        <time>2013-06-20T08:58:55Z</time>
      </trkpt>
      <trkpt lat="43.94886" lon="7.34245">
        <ele>1081</ele>
        <time>2013-06-20T08:59:00Z</time>
      </trkpt>
      <trkpt lat="43.94887" lon="7.34252">
        <ele>1080</ele>
        <time>2013-06-20T08:59:05Z</time>
      </trkpt>
      <trkpt lat="43.94888" lon="7.34258">
        <ele>1081</ele>
        <time>2013-06-20T08:59:08Z</time>
      </trkpt>
      <trkpt lat="43.94883" lon="7.34249">
        <ele>1080</ele>
        <time>2013-06-20T08:59:47Z</time>
      </trkpt>
      <trkpt lat="43.94875" lon="7.34254">
        <ele>1078</ele>
        <time>2013-06-20T09:00:58Z</time>
      </trkpt>
      <trkpt lat="43.9487" lon="7.34265">
        <ele>1078</ele>
        <time>2013-06-20T09:01:03Z</time>
      </trkpt>
      <trkpt lat="43.94871" lon="7.34277">
        <ele>1080</ele>
        <time>2013-06-20T09:01:13Z</time>
      </trkpt>
      <trkpt lat="43.94871" lon="7.34275">
        <ele>1080</ele>
        <time>2013-06-20T09:01:29Z</time>
      </trkpt>
      <trkpt lat="43.94863" lon="7.34269">
        <ele>1078</ele>
        <time>2013-06-20T09:01:36Z</time>
      </trkpt>
      <trkpt lat="43.94861" lon="7.34264">
        <ele>1074</ele>
        <time>2013-06-20T09:02:07Z</time>
      </trkpt>
      <trkpt lat="43.94866" lon="7.34263">
        <ele>1070</ele>
        <time>2013-06-20T09:03:41Z</time>
      </trkpt>
      <trkpt lat="43.94871" lon="7.34259">
        <ele>1069</ele>
        <time>2013-06-20T09:03:44Z</time>
      </trkpt>
      <trkpt lat="43.94876" lon="7.34258">
        <ele>1070</ele>
        <time>2013-06-20T09:03:47Z</time>
      </trkpt>
      <trkpt lat="43.94878" lon="7.34261">
        <ele>1072</ele>
        <time>2013-06-20T09:03:55Z</time>
      </trkpt>
      <trkpt lat="43.94881" lon="7.34264">
        <ele>1076</ele>
        <time>2013-06-20T09:05:10Z</time>
      </trkpt>
      <trkpt lat="43.94875" lon="7.34271">
        <ele>1079</ele>
        <time>2013-06-20T09:06:15Z</time>
      </trkpt>
      <trkpt lat="43.94873" lon="7.34272">
        <ele>1081</ele>
        <time>2013-06-20T09:06:42Z</time>
      </trkpt>
      <trkpt lat="43.94873" lon="7.34279">
        <ele>1085</ele>
        <time>2013-06-20T09:06:47Z</time>
      </trkpt>
      <trkpt lat="43.94871" lon="7.34285">
        <ele>1087</ele>
        <time>2013-06-20T09:06:51Z</time>
      </trkpt>
      <trkpt lat="43.94869" lon="7.34291">
        <ele>1089</ele>
        <time>2013-06-20T09:06:56Z</time>
      </trkpt>
      <trkpt lat="43.94864" lon="7.34297">
        <ele>1090</ele>
        <time>2013-06-20T09:07:01Z</time>
      </trkpt>
      <trkpt lat="43.9486" lon="7.34301">
        <ele>1091</ele>
        <time>2013-06-20T09:07:07Z</time>
      </trkpt>
      <trkpt lat="43.94855" lon="7.34305">
        <ele>1091</ele>
        <time>2013-06-20T09:07:11Z</time>
      </trkpt>
      <trkpt lat="43.94851" lon="7.34309">
        <ele>1092</ele>
        <time>2013-06-20T09:07:14Z</time>
      </trkpt>
      <trkpt lat="43.94846" lon="7.34312">
        <ele>1092</ele>
        <time>2013-06-20T09:07:19Z</time>
      </trkpt>
      <trkpt lat="43.94839" lon="7.34323">
        <ele>1091</ele>
        <time>2013-06-20T09:07:28Z</time>
      </trkpt>
      <trkpt lat="43.94838" lon="7.34333">
        <ele>1091</ele>
        <time>2013-06-20T09:07:33Z</time>
      </trkpt>
      <trkpt lat="43.94839" lon="7.34339">
        <ele>1091</ele>
        <time>2013-06-20T09:07:37Z</time>
      </trkpt>
      <trkpt lat="43.9484" lon="7.34347">
        <ele>1091</ele>
        <time>2013-06-20T09:07:42Z</time>
      </trkpt>
      <trkpt lat="43.94838" lon="7.34353">
        <ele>1090</ele>
        <time>2013-06-20T09:07:47Z</time>
      </trkpt>
      <trkpt lat="43.94834" lon="7.34356">
        <ele>1089</ele>
        <time>2013-06-20T09:07:53Z</time>
      </trkpt>
      <trkpt lat="43.94829" lon="7.34357">
        <ele>1089</ele>
        <time>2013-06-20T09:07:57Z</time>
      </trkpt>
      <trkpt lat="43.94823" lon="7.3437">
        <ele>1088</ele>
        <time>2013-06-20T09:08:16Z</time>
      </trkpt>
      <trkpt lat="43.94814" lon="7.3437">
        <ele>1087</ele>
        <time>2013-06-20T09:08:21Z</time>
      </trkpt>
      <trkpt lat="43.94804" lon="7.34374">
        <ele>1087</ele>
        <time>2013-06-20T09:08:26Z</time>
      </trkpt>
      <trkpt lat="43.94794" lon="7.34376">
        <ele>1087</ele>
        <time>2013-06-20T09:08:31Z</time>
      </trkpt>
      <trkpt lat="43.94791" lon="7.34389">
        <ele>1088</ele>
        <time>2013-06-20T09:08:39Z</time>
      </trkpt>
      <trkpt lat="43.94791" lon="7.34396">
        <ele>1088</ele>
        <time>2013-06-20T09:08:42Z</time>
      </trkpt>
      <trkpt lat="43.9479" lon="7.34405">
        <ele>1088</ele>
        <time>2013-06-20T09:08:47Z</time>
      </trkpt>
      <trkpt lat="43.94791" lon="7.34411">
        <ele>1089</ele>
        <time>2013-06-20T09:08:53Z</time>
      </trkpt>
      <trkpt lat="43.94796" lon="7.34415">
        <ele>1090</ele>
        <time>2013-06-20T09:08:56Z</time>
      </trkpt>
      <trkpt lat="43.948" lon="7.34421">
        <ele>1090</ele>
        <time>2013-06-20T09:08:59Z</time>
      </trkpt>
      <trkpt lat="43.94804" lon="7.34428">
        <ele>1090</ele>
        <time>2013-06-20T09:09:03Z</time>
      </trkpt>
      <trkpt lat="43.94806" lon="7.34434">
        <ele>1090</ele>
        <time>2013-06-20T09:09:05Z</time>
      </trkpt>
      <trkpt lat="43.94808" lon="7.34441">
        <ele>1090</ele>
        <time>2013-06-20T09:09:08Z</time>
      </trkpt>
      <trkpt lat="43.94815" lon="7.34452">
        <ele>1095</ele>
        <time>2013-06-20T09:09:16Z</time>
      </trkpt>
      <trkpt lat="43.94812" lon="7.34457">
        <ele>1097</ele>
        <time>2013-06-20T09:09:23Z</time>
      </trkpt>
      <trkpt lat="43.94808" lon="7.34461">
        <ele>1099</ele>
        <time>2013-06-20T09:09:29Z</time>
      </trkpt>
      <trkpt lat="43.94803" lon="7.34464">
        <ele>1099</ele>
        <time>2013-06-20T09:09:33Z</time>
      </trkpt>
      <trkpt lat="43.94798" lon="7.34467">
        <ele>1099</ele>
        <time>2013-06-20T09:09:36Z</time>
      </trkpt>
      <trkpt lat="43.94793" lon="7.3447">
        <ele>1099</ele>
        <time>2013-06-20T09:09:38Z</time>
      </trkpt>
      <trkpt lat="43.94789" lon="7.34474">
        <ele>1100</ele>
        <time>2013-06-20T09:09:45Z</time>
      </trkpt>
      <trkpt lat="43.94784" lon="7.34476">
        <ele>1100</ele>
        <time>2013-06-20T09:09:49Z</time>
      </trkpt>
      <trkpt lat="43.9478" lon="7.34476">
        <ele>1099</ele>
        <time>2013-06-20T09:09:53Z</time>
      </trkpt>
      <trkpt lat="43.94776" lon="7.3448">
        <ele>1098</ele>
        <time>2013-06-20T09:09:58Z</time>
      </trkpt>
      <trkpt lat="43.94772" lon="7.34484">
        <ele>1097</ele>
        <time>2013-06-20T09:10:03Z</time>
      </trkpt>
      <trkpt lat="43.94768" lon="7.34489">
        <ele>1096</ele>
        <time>2013-06-20T09:10:09Z</time>
      </trkpt>
      <trkpt lat="43.94763" lon="7.34491">
        <ele>1096</ele>
        <time>2013-06-20T09:10:13Z</time>
      </trkpt>
      <trkpt lat="43.94758" lon="7.34495">
        <ele>1096</ele>
        <time>2013-06-20T09:10:18Z</time>
      </trkpt>
      <trkpt lat="43.94755" lon="7.34501">
        <ele>1098</ele>
        <time>2013-06-20T09:10:24Z</time>
      </trkpt>
      <trkpt lat="43.94755" lon="7.34508">
        <ele>1099</ele>
        <time>2013-06-20T09:10:28Z</time>
      </trkpt>
      <trkpt lat="43.94757" lon="7.34516">
        <ele>1100</ele>
        <time>2013-06-20T09:10:31Z</time>
      </trkpt>
      <trkpt lat="43.9476" lon="7.34523">
        <ele>1100</ele>
        <time>2013-06-20T09:10:34Z</time>
      </trkpt>
      <trkpt lat="43.94764" lon="7.3453">
        <ele>1100</ele>
        <time>2013-06-20T09:10:37Z</time>
      </trkpt>
      <trkpt lat="43.94768" lon="7.34535">
        <ele>1101</ele>
        <time>2013-06-20T09:10:40Z</time>
      </trkpt>
      <trkpt lat="43.94771" lon="7.34541">
        <ele>1101</ele>
        <time>2013-06-20T09:10:43Z</time>
      </trkpt>
      <trkpt lat="43.94775" lon="7.34546">
        <ele>1101</ele>
        <time>2013-06-20T09:10:47Z</time>
      </trkpt>
      <trkpt lat="43.94776" lon="7.34553">
        <ele>1101</ele>
        <time>2013-06-20T09:10:53Z</time>
      </trkpt>
      <trkpt lat="43.94774" lon="7.34559">
        <ele>1100</ele>
        <time>2013-06-20T09:10:58Z</time>
      </trkpt>
      <trkpt lat="43.9477" lon="7.34564">
        <ele>1099</ele>
        <time>2013-06-20T09:11:03Z</time>
      </trkpt>
      <trkpt lat="43.94765" lon="7.34567">
        <ele>1099</ele>
        <time>2013-06-20T09:11:07Z</time>
      </trkpt>
      <trkpt lat="43.9476" lon="7.34568">
        <ele>1098</ele>
        <time>2013-06-20T09:11:10Z</time>
      </trkpt>
      <trkpt lat="43.9477" lon="7.34568">
        <ele>1099</ele>
        <time>2013-06-20T09:11:24Z</time>
      </trkpt>
      <trkpt lat="43.94766" lon="7.34581">
        <ele>1100</ele>
        <time>2013-06-20T09:11:29Z</time>
      </trkpt>
      <trkpt lat="43.94759" lon="7.34589">
        <ele>1100</ele>
        <time>2013-06-20T09:11:33Z</time>
      </trkpt>
      <trkpt lat="43.94753" lon="7.34595">
        <ele>1102</ele>
        <time>2013-06-20T09:11:36Z</time>
      </trkpt>
      <trkpt lat="43.94749" lon="7.34599">
        <ele>1103</ele>
        <time>2013-06-20T09:11:40Z</time>
      </trkpt>
      <trkpt lat="43.94741" lon="7.34606">
        <ele>1104</ele>
        <time>2013-06-20T09:11:45Z</time>
      </trkpt>
      <trkpt lat="43.94735" lon="7.34609">
        <ele>1105</ele>
        <time>2013-06-20T09:11:48Z</time>
      </trkpt>
      <trkpt lat="43.94731" lon="7.34613">
        <ele>1106</ele>
        <time>2013-06-20T09:11:52Z</time>
      </trkpt>
      <trkpt lat="43.94727" lon="7.34616">
        <ele>1106</ele>
        <time>2013-06-20T09:11:55Z</time>
      </trkpt>
      <trkpt lat="43.94722" lon="7.34616">
        <ele>1106</ele>
        <time>2013-06-20T09:11:58Z</time>
      </trkpt>
      <trkpt lat="43.94717" lon="7.34617">
        <ele>1106</ele>
        <time>2013-06-20T09:12:03Z</time>
      </trkpt>
      <trkpt lat="43.94713" lon="7.34618">
        <ele>1106</ele>
        <time>2013-06-20T09:12:09Z</time>
      </trkpt>
      <trkpt lat="43.94708" lon="7.34631">
        <ele>1106</ele>
        <time>2013-06-20T09:12:18Z</time>
      </trkpt>
      <trkpt lat="43.94709" lon="7.34645">
        <ele>1107</ele>
        <time>2013-06-20T09:12:24Z</time>
      </trkpt>
      <trkpt lat="43.94713" lon="7.34657">
        <ele>1108</ele>
        <time>2013-06-20T09:12:30Z</time>
      </trkpt>
      <trkpt lat="43.94715" lon="7.34664">
        <ele>1109</ele>
        <time>2013-06-20T09:12:34Z</time>
      </trkpt>
      <trkpt lat="43.94715" lon="7.34671">
        <ele>1110</ele>
        <time>2013-06-20T09:12:37Z</time>
      </trkpt>
      <trkpt lat="43.94714" lon="7.34683">
        <ele>1110</ele>
        <time>2013-06-20T09:12:42Z</time>
      </trkpt>
      <trkpt lat="43.94716" lon="7.34689">
        <ele>1112</ele>
        <time>2013-06-20T09:12:50Z</time>
      </trkpt>
      <trkpt lat="43.94714" lon="7.34695">
        <ele>1113</ele>
        <time>2013-06-20T09:12:54Z</time>
      </trkpt>
      <trkpt lat="43.94709" lon="7.34706">
        <ele>1114</ele>
        <time>2013-06-20T09:13:06Z</time>
      </trkpt>
      <trkpt lat="43.94701" lon="7.34711">
        <ele>1114</ele>
        <time>2013-06-20T09:13:12Z</time>
      </trkpt>
      <trkpt lat="43.94697" lon="7.34716">
        <ele>1114</ele>
        <time>2013-06-20T09:13:15Z</time>
      </trkpt>
      <trkpt lat="43.94695" lon="7.34723">
        <ele>1114</ele>
        <time>2013-06-20T09:13:20Z</time>
      </trkpt>
      <trkpt lat="43.94698" lon="7.34735">
        <ele>1114</ele>
        <time>2013-06-20T09:13:25Z</time>
      </trkpt>
      <trkpt lat="43.94704" lon="7.34746">
        <ele>1114</ele>
        <time>2013-06-20T09:13:32Z</time>
      </trkpt>
      <trkpt lat="43.94707" lon="7.34751">
        <ele>1113</ele>
        <time>2013-06-20T09:13:40Z</time>
      </trkpt>
      <trkpt lat="43.94713" lon="7.34752">
        <ele>1113</ele>
        <time>2013-06-20T09:13:42Z</time>
      </trkpt>
      <trkpt lat="43.94717" lon="7.34752">
        <ele>1112</ele>
        <time>2013-06-20T09:13:45Z</time>
      </trkpt>
      <trkpt lat="43.94724" lon="7.34751">
        <ele>1112</ele>
        <time>2013-06-20T09:13:48Z</time>
      </trkpt>
      <trkpt lat="43.94728" lon="7.34751">
        <ele>1112</ele>
        <time>2013-06-20T09:13:50Z</time>
      </trkpt>
      <trkpt lat="43.94735" lon="7.34753">
        <ele>1112</ele>
        <time>2013-06-20T09:13:52Z</time>
      </trkpt>
      <trkpt lat="43.9474" lon="7.34755">
        <ele>1112</ele>
        <time>2013-06-20T09:13:57Z</time>
      </trkpt>
      <trkpt lat="43.94741" lon="7.34761">
        <ele>1112</ele>
        <time>2013-06-20T09:14:01Z</time>
      </trkpt>
      <trkpt lat="43.9474" lon="7.34768">
        <ele>1112</ele>
        <time>2013-06-20T09:14:05Z</time>
      </trkpt>
      <trkpt lat="43.94741" lon="7.34775">
        <ele>1112</ele>
        <time>2013-06-20T09:14:09Z</time>
      </trkpt>
      <trkpt lat="43.94744" lon="7.34777">
        <ele>1114</ele>
        <time>2013-06-20T09:14:15Z</time>
      </trkpt>
      <trkpt lat="43.94749" lon="7.34776">
        <ele>1116</ele>
        <time>2013-06-20T09:14:25Z</time>
      </trkpt>
      <trkpt lat="43.94752" lon="7.34782">
        <ele>1116</ele>
        <time>2013-06-20T09:14:29Z</time>
      </trkpt>
      <trkpt lat="43.94755" lon="7.34788">
        <ele>1116</ele>
        <time>2013-06-20T09:14:31Z</time>
      </trkpt>
      <trkpt lat="43.94757" lon="7.34793">
        <ele>1116</ele>
        <time>2013-06-20T09:14:33Z</time>
      </trkpt>
      <trkpt lat="43.9476" lon="7.34799">
        <ele>1116</ele>
        <time>2013-06-20T09:14:36Z</time>
      </trkpt>
      <trkpt lat="43.94763" lon="7.34806">
        <ele>1115</ele>
        <time>2013-06-20T09:14:39Z</time>
      </trkpt>
      <trkpt lat="43.94766" lon="7.34818">
        <ele>1115</ele>
        <time>2013-06-20T09:14:44Z</time>
      </trkpt>
      <trkpt lat="43.94774" lon="7.34817">
        <ele>1115</ele>
        <time>2013-06-20T09:14:49Z</time>
      </trkpt>
      <trkpt lat="43.94779" lon="7.34814">
        <ele>1115</ele>
        <time>2013-06-20T09:14:53Z</time>
      </trkpt>
      <trkpt lat="43.94784" lon="7.34812">
        <ele>1116</ele>
        <time>2013-06-20T09:14:55Z</time>
      </trkpt>
      <trkpt lat="43.94789" lon="7.34809">
        <ele>1117</ele>
        <time>2013-06-20T09:14:59Z</time>
      </trkpt>
      <trkpt lat="43.94794" lon="7.34809">
        <ele>1118</ele>
        <time>2013-06-20T09:15:03Z</time>
      </trkpt>
      <trkpt lat="43.94799" lon="7.34811">
        <ele>1118</ele>
        <time>2013-06-20T09:15:07Z</time>
      </trkpt>
      <trkpt lat="43.94803" lon="7.34812">
        <ele>1119</ele>
        <time>2013-06-20T09:15:11Z</time>
      </trkpt>
      <trkpt lat="43.94807" lon="7.34814">
        <ele>1120</ele>
        <time>2013-06-20T09:15:14Z</time>
      </trkpt>
      <trkpt lat="43.94811" lon="7.34819">
        <ele>1122</ele>
        <time>2013-06-20T09:15:21Z</time>
      </trkpt>
      <trkpt lat="43.94806" lon="7.34823">
        <ele>1123</ele>
        <time>2013-06-20T09:15:28Z</time>
      </trkpt>
      <trkpt lat="43.94804" lon="7.3483">
        <ele>1124</ele>
        <time>2013-06-20T09:15:32Z</time>
      </trkpt>
      <trkpt lat="43.94803" lon="7.34837">
        <ele>1125</ele>
        <time>2013-06-20T09:15:35Z</time>
      </trkpt>
      <trkpt lat="43.94806" lon="7.34842">
        <ele>1126</ele>
        <time>2013-06-20T09:15:38Z</time>
      </trkpt>
      <trkpt lat="43.94811" lon="7.34844">
        <ele>1128</ele>
        <time>2013-06-20T09:15:41Z</time>
      </trkpt>
      <trkpt lat="43.94808" lon="7.34849">
        <ele>1128</ele>
        <time>2013-06-20T09:15:48Z</time>
      </trkpt>
      <trkpt lat="43.94803" lon="7.3485">
        <ele>1127</ele>
        <time>2013-06-20T09:15:52Z</time>
      </trkpt>
      <trkpt lat="43.94797" lon="7.34851">
        <ele>1127</ele>
        <time>2013-06-20T09:15:54Z</time>
      </trkpt>
      <trkpt lat="43.94791" lon="7.3485">
        <ele>1126</ele>
        <time>2013-06-20T09:15:56Z</time>
      </trkpt>
      <trkpt lat="43.94785" lon="7.34849">
        <ele>1124</ele>
        <time>2013-06-20T09:15:59Z</time>
      </trkpt>
      <trkpt lat="43.9478" lon="7.34849">
        <ele>1123</ele>
        <time>2013-06-20T09:16:01Z</time>
      </trkpt>
      <trkpt lat="43.94775" lon="7.3485">
        <ele>1122</ele>
        <time>2013-06-20T09:16:04Z</time>
      </trkpt>
      <trkpt lat="43.94769" lon="7.34851">
        <ele>1122</ele>
        <time>2013-06-20T09:16:07Z</time>
      </trkpt>
      <trkpt lat="43.94767" lon="7.3486">
        <ele>1121</ele>
        <time>2013-06-20T09:16:13Z</time>
      </trkpt>
      <trkpt lat="43.94762" lon="7.34861">
        <ele>1121</ele>
        <time>2013-06-20T09:16:29Z</time>
      </trkpt>
      <trkpt lat="43.94758" lon="7.34865">
        <ele>1121</ele>
        <time>2013-06-20T09:16:33Z</time>
      </trkpt>
      <trkpt lat="43.94753" lon="7.3487">
        <ele>1121</ele>
        <time>2013-06-20T09:16:37Z</time>
      </trkpt>
      <trkpt lat="43.94749" lon="7.34873">
        <ele>1122</ele>
        <time>2013-06-20T09:16:40Z</time>
      </trkpt>
      <trkpt lat="43.94744" lon="7.34875">
        <ele>1122</ele>
        <time>2013-06-20T09:16:42Z</time>
      </trkpt>
      <trkpt lat="43.94738" lon="7.34876">
        <ele>1122</ele>
        <time>2013-06-20T09:16:45Z</time>
      </trkpt>
      <trkpt lat="43.94732" lon="7.34878">
        <ele>1123</ele>
        <time>2013-06-20T09:16:49Z</time>
      </trkpt>
      <trkpt lat="43.94728" lon="7.34883">
        <ele>1123</ele>
        <time>2013-06-20T09:16:53Z</time>
      </trkpt>
      <trkpt lat="43.94727" lon="7.3489">
        <ele>1124</ele>
        <time>2013-06-20T09:16:57Z</time>
      </trkpt>
      <trkpt lat="43.94725" lon="7.34898">
        <ele>1124</ele>
        <time>2013-06-20T09:17:01Z</time>
      </trkpt>
      <trkpt lat="43.94723" lon="7.34907">
        <ele>1125</ele>
        <time>2013-06-20T09:17:06Z</time>
      </trkpt>
      <trkpt lat="43.9472" lon="7.34914">
        <ele>1125</ele>
        <time>2013-06-20T09:17:11Z</time>
      </trkpt>
      <trkpt lat="43.94717" lon="7.34917">
        <ele>1125</ele>
        <time>2013-06-20T09:17:14Z</time>
      </trkpt>
      <trkpt lat="43.94715" lon="7.34927">
        <ele>1126</ele>
        <time>2013-06-20T09:17:22Z</time>
      </trkpt>
      <trkpt lat="43.94716" lon="7.34933">
        <ele>1126</ele>
        <time>2013-06-20T09:17:26Z</time>
      </trkpt>
      <trkpt lat="43.94716" lon="7.3494">
        <ele>1128</ele>
        <time>2013-06-20T09:17:32Z</time>
      </trkpt>
      <trkpt lat="43.94719" lon="7.34946">
        <ele>1129</ele>
        <time>2013-06-20T09:17:36Z</time>
      </trkpt>
      <trkpt lat="43.9472" lon="7.34953">
        <ele>1130</ele>
        <time>2013-06-20T09:17:40Z</time>
      </trkpt>
      <trkpt lat="43.94719" lon="7.34959">
        <ele>1131</ele>
        <time>2013-06-20T09:17:45Z</time>
      </trkpt>
      <trkpt lat="43.94715" lon="7.34963">
        <ele>1132</ele>
        <time>2013-06-20T09:17:50Z</time>
      </trkpt>
      <trkpt lat="43.9471" lon="7.34963">
        <ele>1134</ele>
        <time>2013-06-20T09:17:59Z</time>
      </trkpt>
      <trkpt lat="43.94698" lon="7.34962">
        <ele>1140</ele>
        <time>2013-06-20T09:18:24Z</time>
      </trkpt>
      <trkpt lat="43.94686" lon="7.34968">
        <ele>1142</ele>
        <time>2013-06-20T09:18:45Z</time>
      </trkpt>
      <trkpt lat="43.94678" lon="7.34978">
        <ele>1144</ele>
        <time>2013-06-20T09:18:57Z</time>
      </trkpt>
      <trkpt lat="43.94668" lon="7.34978">
        <ele>1145</ele>
        <time>2013-06-20T09:19:01Z</time>
      </trkpt>
      <trkpt lat="43.94659" lon="7.34981">
        <ele>1145</ele>
        <time>2013-06-20T09:19:05Z</time>
      </trkpt>
      <trkpt lat="43.9465" lon="7.34984">
        <ele>1145</ele>
        <time>2013-06-20T09:19:14Z</time>
      </trkpt>
      <trkpt lat="43.94641" lon="7.34992">
        <ele>1145</ele>
        <time>2013-06-20T09:19:24Z</time>
      </trkpt>
      <trkpt lat="43.94631" lon="7.34992">
        <ele>1145</ele>
        <time>2013-06-20T09:19:30Z</time>
      </trkpt>
      <trkpt lat="43.94622" lon="7.34996">
        <ele>1145</ele>
        <time>2013-06-20T09:19:36Z</time>
      </trkpt>
      <trkpt lat="43.94612" lon="7.35001">
        <ele>1146</ele>
        <time>2013-06-20T09:19:42Z</time>
      </trkpt>
      <trkpt lat="43.94605" lon="7.34999">
        <ele>1148</ele>
        <time>2013-06-20T09:20:02Z</time>
      </trkpt>
      <trkpt lat="43.94595" lon="7.34997">
        <ele>1149</ele>
        <time>2013-06-20T09:20:08Z</time>
      </trkpt>
      <trkpt lat="43.94588" lon="7.35011">
        <ele>1151</ele>
        <time>2013-06-20T09:20:22Z</time>
      </trkpt>
      <trkpt lat="43.94599" lon="7.35013">
        <ele>1153</ele>
        <time>2013-06-20T09:20:29Z</time>
      </trkpt>
      <trkpt lat="43.94603" lon="7.35015">
        <ele>1157</ele>
        <time>2013-06-20T09:20:43Z</time>
      </trkpt>
      <trkpt lat="43.94595" lon="7.35024">
        <ele>1161</ele>
        <time>2013-06-20T09:21:53Z</time>
      </trkpt>
      <trkpt lat="43.94584" lon="7.35035">
        <ele>1162</ele>
        <time>2013-06-20T09:21:56Z</time>
      </trkpt>
      <trkpt lat="43.94577" lon="7.35046">
        <ele>1163</ele>
        <time>2013-06-20T09:21:59Z</time>
      </trkpt>
      <trkpt lat="43.94575" lon="7.35059">
        <ele>1165</ele>
        <time>2013-06-20T09:22:03Z</time>
      </trkpt>
      <trkpt lat="43.94573" lon="7.35072">
        <ele>1167</ele>
        <time>2013-06-20T09:22:08Z</time>
      </trkpt>
      <trkpt lat="43.94574" lon="7.35085">
        <ele>1171</ele>
        <time>2013-06-20T09:22:17Z</time>
      </trkpt>
      <trkpt lat="43.94579" lon="7.35098">
        <ele>1172</ele>
        <time>2013-06-20T09:22:23Z</time>
      </trkpt>
      <trkpt lat="43.94569" lon="7.35105">
        <ele>1175</ele>
        <time>2013-06-20T09:22:29Z</time>
      </trkpt>
      <trkpt lat="43.94559" lon="7.35109">
        <ele>1175</ele>
        <time>2013-06-20T09:22:32Z</time>
      </trkpt>
      <trkpt lat="43.94551" lon="7.35111">
        <ele>1177</ele>
        <time>2013-06-20T09:22:36Z</time>
      </trkpt>
      <trkpt lat="43.94551" lon="7.3512">
        <ele>1179</ele>
        <time>2013-06-20T09:22:51Z</time>
      </trkpt>
      <trkpt lat="43.94555" lon="7.35136">
        <ele>1182</ele>
        <time>2013-06-20T09:23:09Z</time>
      </trkpt>
      <trkpt lat="43.94556" lon="7.35151">
        <ele>1187</ele>
        <time>2013-06-20T09:23:23Z</time>
      </trkpt>
      <trkpt lat="43.94556" lon="7.35166">
        <ele>1189</ele>
        <time>2013-06-20T09:23:28Z</time>
      </trkpt>
      <trkpt lat="43.94552" lon="7.35179">
        <ele>1191</ele>
        <time>2013-06-20T09:23:35Z</time>
      </trkpt>
      <trkpt lat="43.94556" lon="7.35188">
        <ele>1193</ele>
        <time>2013-06-20T09:23:45Z</time>
      </trkpt>
      <trkpt lat="43.94558" lon="7.35194">
        <ele>1194</ele>
        <time>2013-06-20T09:23:50Z</time>
      </trkpt>
      <trkpt lat="43.94562" lon="7.35197">
        <ele>1196</ele>
        <time>2013-06-20T09:23:54Z</time>
      </trkpt>
      <trkpt lat="43.94565" lon="7.35202">
        <ele>1197</ele>
        <time>2013-06-20T09:24:00Z</time>
      </trkpt>
      <trkpt lat="43.94569" lon="7.35205">
        <ele>1198</ele>
        <time>2013-06-20T09:24:03Z</time>
      </trkpt>
      <trkpt lat="43.94573" lon="7.3521">
        <ele>1198</ele>
        <time>2013-06-20T09:24:06Z</time>
      </trkpt>
      <trkpt lat="43.94577" lon="7.35213">
        <ele>1198</ele>
        <time>2013-06-20T09:24:10Z</time>
      </trkpt>
      <trkpt lat="43.94581" lon="7.35218">
        <ele>1198</ele>
        <time>2013-06-20T09:24:14Z</time>
      </trkpt>
      <trkpt lat="43.94585" lon="7.35222">
        <ele>1198</ele>
        <time>2013-06-20T09:24:19Z</time>
      </trkpt>
      <trkpt lat="43.94586" lon="7.35229">
        <ele>1197</ele>
        <time>2013-06-20T09:24:25Z</time>
      </trkpt>
      <trkpt lat="43.94586" lon="7.35232">
        <ele>1197</ele>
        <time>2013-06-20T09:24:31Z</time>
      </trkpt>
      <trkpt lat="43.94587" lon="7.35241">
        <ele>1197</ele>
        <time>2013-06-20T09:24:45Z</time>
      </trkpt>
      <trkpt lat="43.94593" lon="7.35245">
        <ele>1200</ele>
        <time>2013-06-20T09:24:53Z</time>
      </trkpt>
      <trkpt lat="43.94596" lon="7.35246">
        <ele>1209</ele>
        <time>2013-06-20T09:25:10Z</time>
      </trkpt>
      <trkpt lat="43.94592" lon="7.35253">
        <ele>1211</ele>
        <time>2013-06-20T09:25:15Z</time>
      </trkpt>
      <trkpt lat="43.94589" lon="7.35258">
        <ele>1211</ele>
        <time>2013-06-20T09:25:17Z</time>
      </trkpt>
      <trkpt lat="43.94585" lon="7.35264">
        <ele>1212</ele>
        <time>2013-06-20T09:25:20Z</time>
      </trkpt>
      <trkpt lat="43.94581" lon="7.35268">
        <ele>1213</ele>
        <time>2013-06-20T09:25:23Z</time>
      </trkpt>
      <trkpt lat="43.94576" lon="7.3527">
        <ele>1213</ele>
        <time>2013-06-20T09:25:26Z</time>
      </trkpt>
      <trkpt lat="43.94572" lon="7.35276">
        <ele>1213</ele>
        <time>2013-06-20T09:25:30Z</time>
      </trkpt>
      <trkpt lat="43.94576" lon="7.35281">
        <ele>1213</ele>
        <time>2013-06-20T09:25:34Z</time>
      </trkpt>
      <trkpt lat="43.94582" lon="7.35284">
        <ele>1216</ele>
        <time>2013-06-20T09:32:16Z</time>
      </trkpt>
      <trkpt lat="43.9458" lon="7.35287">
        <ele>1220</ele>
        <time>2013-06-20T09:35:57Z</time>
      </trkpt>
      <trkpt lat="43.94576" lon="7.3529">
        <ele>1220</ele>
        <time>2013-06-20T09:35:59Z</time>
      </trkpt>
      <trkpt lat="43.94567" lon="7.35293">
        <ele>1222</ele>
        <time>2013-06-20T09:36:04Z</time>
      </trkpt>
      <trkpt lat="43.94558" lon="7.35298">
        <ele>1224</ele>
        <time>2013-06-20T09:36:11Z</time>
      </trkpt>
      <trkpt lat="43.94548" lon="7.353">
        <ele>1227</ele>
        <time>2013-06-20T09:36:17Z</time>
      </trkpt>
      <trkpt lat="43.94543" lon="7.35301">
        <ele>1229</ele>
        <time>2013-06-20T09:36:20Z</time>
      </trkpt>
      <trkpt lat="43.94538" lon="7.35301">
        <ele>1232</ele>
        <time>2013-06-20T09:36:27Z</time>
      </trkpt>
      <trkpt lat="43.9454" lon="7.35309">
        <ele>1232</ele>
        <time>2013-06-20T09:36:35Z</time>
      </trkpt>
      <trkpt lat="43.9454" lon="7.35316">
        <ele>1232</ele>
        <time>2013-06-20T09:36:37Z</time>
      </trkpt>
      <trkpt lat="43.94542" lon="7.35314">
        <ele>1233</ele>
        <time>2013-06-20T09:36:50Z</time>
      </trkpt>
      <trkpt lat="43.94545" lon="7.35308">
        <ele>1232</ele>
        <time>2013-06-20T09:36:56Z</time>
      </trkpt>
      <trkpt lat="43.94544" lon="7.35302">
        <ele>1232</ele>
        <time>2013-06-20T09:37:02Z</time>
      </trkpt>
      <trkpt lat="43.94543" lon="7.35299">
        <ele>1230</ele>
        <time>2013-06-20T09:37:08Z</time>
      </trkpt>
      <trkpt lat="43.94545" lon="7.35291">
        <ele>1229</ele>
        <time>2013-06-20T09:37:14Z</time>
      </trkpt>
      <trkpt lat="43.94548" lon="7.35286">
        <ele>1229</ele>
        <time>2013-06-20T09:37:18Z</time>
      </trkpt>
      <trkpt lat="43.94551" lon="7.3528">
        <ele>1228</ele>
        <time>2013-06-20T09:37:21Z</time>
      </trkpt>
      <trkpt lat="43.94553" lon="7.35273">
        <ele>1229</ele>
        <time>2013-06-20T09:37:26Z</time>
      </trkpt>
      <trkpt lat="43.94555" lon="7.35267">
        <ele>1228</ele>
        <time>2013-06-20T09:37:32Z</time>
      </trkpt>
      <trkpt lat="43.94554" lon="7.3526">
        <ele>1226</ele>
        <time>2013-06-20T09:37:40Z</time>
      </trkpt>
      <trkpt lat="43.94549" lon="7.3526">
        <ele>1226</ele>
        <time>2013-06-20T09:37:47Z</time>
      </trkpt>
      <trkpt lat="43.94545" lon="7.35265">
        <ele>1225</ele>
        <time>2013-06-20T09:37:52Z</time>
      </trkpt>
      <trkpt lat="43.94541" lon="7.35267">
        <ele>1226</ele>
        <time>2013-06-20T09:37:56Z</time>
      </trkpt>
      <trkpt lat="43.94539" lon="7.35263">
        <ele>1227</ele>
        <time>2013-06-20T09:38:03Z</time>
      </trkpt>
      <trkpt lat="43.94538" lon="7.3526">
        <ele>1229</ele>
        <time>2013-06-20T09:38:32Z</time>
      </trkpt>
      <trkpt lat="43.94532" lon="7.35262">
        <ele>1232</ele>
        <time>2013-06-20T09:38:37Z</time>
      </trkpt>
      <trkpt lat="43.94525" lon="7.35262">
        <ele>1233</ele>
        <time>2013-06-20T09:38:40Z</time>
      </trkpt>
      <trkpt lat="43.9452" lon="7.3526">
        <ele>1235</ele>
        <time>2013-06-20T09:38:44Z</time>
      </trkpt>
      <trkpt lat="43.94514" lon="7.35258">
        <ele>1236</ele>
        <time>2013-06-20T09:38:56Z</time>
      </trkpt>
      <trkpt lat="43.94501" lon="7.35261">
        <ele>1246</ele>
        <time>2013-06-20T09:39:30Z</time>
      </trkpt>
      <trkpt lat="43.94487" lon="7.35266">
        <ele>1255</ele>
        <time>2013-06-20T09:39:51Z</time>
      </trkpt>
      <trkpt lat="43.94485" lon="7.35271">
        <ele>1257</ele>
        <time>2013-06-20T09:39:58Z</time>
      </trkpt>
      <trkpt lat="43.9448" lon="7.35273">
        <ele>1260</ele>
        <time>2013-06-20T09:40:06Z</time>
      </trkpt>
      <trkpt lat="43.94472" lon="7.35282">
        <ele>1261</ele>
        <time>2013-06-20T09:40:14Z</time>
      </trkpt>
      <trkpt lat="43.94462" lon="7.35283">
        <ele>1263</ele>
        <time>2013-06-20T09:40:20Z</time>
      </trkpt>
      <trkpt lat="43.94456" lon="7.35286">
        <ele>1264</ele>
        <time>2013-06-20T09:40:27Z</time>
      </trkpt>
      <trkpt lat="43.94446" lon="7.35289">
        <ele>1266</ele>
        <time>2013-06-20T09:40:38Z</time>
      </trkpt>
      <trkpt lat="43.94451" lon="7.35282">
        <ele>1267</ele>
        <time>2013-06-20T09:41:28Z</time>
      </trkpt>
      <trkpt lat="43.94448" lon="7.35275">
        <ele>1269</ele>
        <time>2013-06-20T09:41:39Z</time>
      </trkpt>
      <trkpt lat="43.94446" lon="7.35276">
        <ele>1271</ele>
        <time>2013-06-20T09:41:45Z</time>
      </trkpt>
      <trkpt lat="43.94441" lon="7.35277">
        <ele>1275</ele>
        <time>2013-06-20T09:41:52Z</time>
      </trkpt>
      <trkpt lat="43.94439" lon="7.35283">
        <ele>1278</ele>
        <time>2013-06-20T09:41:58Z</time>
      </trkpt>
      <trkpt lat="43.94439" lon="7.3529">
        <ele>1278</ele>
        <time>2013-06-20T09:42:03Z</time>
      </trkpt>
      <trkpt lat="43.94439" lon="7.35297">
        <ele>1279</ele>
        <time>2013-06-20T09:42:08Z</time>
      </trkpt>
      <trkpt lat="43.94439" lon="7.35305">
        <ele>1279</ele>
        <time>2013-06-20T09:42:14Z</time>
      </trkpt>
      <trkpt lat="43.94438" lon="7.35311">
        <ele>1280</ele>
        <time>2013-06-20T09:42:17Z</time>
      </trkpt>
      <trkpt lat="43.94437" lon="7.35317">
        <ele>1280</ele>
        <time>2013-06-20T09:42:21Z</time>
      </trkpt>
      <trkpt lat="43.94434" lon="7.35322">
        <ele>1281</ele>
        <time>2013-06-20T09:42:31Z</time>
      </trkpt>
      <trkpt lat="43.9443" lon="7.35325">
        <ele>1282</ele>
        <time>2013-06-20T09:42:38Z</time>
      </trkpt>
      <trkpt lat="43.94427" lon="7.35332">
        <ele>1283</ele>
        <time>2013-06-20T09:42:42Z</time>
      </trkpt>
      <trkpt lat="43.94425" lon="7.35339">
        <ele>1284</ele>
        <time>2013-06-20T09:42:47Z</time>
      </trkpt>
      <trkpt lat="43.94426" lon="7.35349">
        <ele>1284</ele>
        <time>2013-06-20T09:42:54Z</time>
      </trkpt>
      <trkpt lat="43.94427" lon="7.35355">
        <ele>1284</ele>
        <time>2013-06-20T09:42:59Z</time>
      </trkpt>
      <trkpt lat="43.94427" lon="7.35362">
        <ele>1285</ele>
        <time>2013-06-20T09:43:06Z</time>
      </trkpt>
      <trkpt lat="43.94422" lon="7.35365">
        <ele>1285</ele>
        <time>2013-06-20T09:43:10Z</time>
      </trkpt>
      <trkpt lat="43.9442" lon="7.3537">
        <ele>1285</ele>
        <time>2013-06-20T09:43:15Z</time>
      </trkpt>
      <trkpt lat="43.94363" lon="7.35549">
        <ele>1314</ele>
        <time>2013-06-20T09:47:02Z</time>
      </trkpt>
      <trkpt lat="43.94362" lon="7.35553">
        <ele>1318</ele>
        <time>2013-06-20T09:48:14Z</time>
      </trkpt>
      <trkpt lat="43.94362" lon="7.35559">
        <ele>1318</ele>
        <time>2013-06-20T09:48:29Z</time>
      </trkpt>
      <trkpt lat="43.94356" lon="7.35557">
        <ele>1319</ele>
        <time>2013-06-20T09:53:33Z</time>
      </trkpt>
      <trkpt lat="43.94358" lon="7.35556">
        <ele>1324</ele>
        <time>2013-06-20T09:56:18Z</time>
      </trkpt>
      <trkpt lat="43.94364" lon="7.35556">
        <ele>1324</ele>
        <time>2013-06-20T09:56:22Z</time>
      </trkpt>
      <trkpt lat="43.94369" lon="7.35557">
        <ele>1324</ele>
        <time>2013-06-20T09:56:25Z</time>
      </trkpt>
      <trkpt lat="43.94374" lon="7.35558">
        <ele>1324</ele>
        <time>2013-06-20T09:56:29Z</time>
      </trkpt>
      <trkpt lat="43.94373" lon="7.35568">
        <ele>1324</ele>
        <time>2013-06-20T09:56:41Z</time>
      </trkpt>
      <trkpt lat="43.94375" lon="7.35575">
        <ele>1324</ele>
        <time>2013-06-20T09:56:47Z</time>
      </trkpt>
      <trkpt lat="43.94376" lon="7.35582">
        <ele>1325</ele>
        <time>2013-06-20T09:56:51Z</time>
      </trkpt>
      <trkpt lat="43.94376" lon="7.35589">
        <ele>1325</ele>
        <time>2013-06-20T09:56:56Z</time>
      </trkpt>
      <trkpt lat="43.94375" lon="7.35595">
        <ele>1325</ele>
        <time>2013-06-20T09:57:00Z</time>
      </trkpt>
      <trkpt lat="43.9437" lon="7.35596">
        <ele>1328</ele>
        <time>2013-06-20T09:57:06Z</time>
      </trkpt>
      <trkpt lat="43.94365" lon="7.35594">
        <ele>1330</ele>
        <time>2013-06-20T09:57:12Z</time>
      </trkpt>
      <trkpt lat="43.94362" lon="7.35598">
        <ele>1331</ele>
        <time>2013-06-20T09:57:17Z</time>
      </trkpt>
      <trkpt lat="43.9436" lon="7.35604">
        <ele>1332</ele>
        <time>2013-06-20T09:57:22Z</time>
      </trkpt>
      <trkpt lat="43.94358" lon="7.35611">
        <ele>1332</ele>
        <time>2013-06-20T09:57:25Z</time>
      </trkpt>
      <trkpt lat="43.94355" lon="7.35618">
        <ele>1332</ele>
        <time>2013-06-20T09:57:28Z</time>
      </trkpt>
      <trkpt lat="43.94354" lon="7.35625">
        <ele>1332</ele>
        <time>2013-06-20T09:57:31Z</time>
      </trkpt>
      <trkpt lat="43.94353" lon="7.35631">
        <ele>1332</ele>
        <time>2013-06-20T09:57:35Z</time>
      </trkpt>
      <trkpt lat="43.94353" lon="7.35639">
        <ele>1331</ele>
        <time>2013-06-20T09:57:38Z</time>
      </trkpt>
      <trkpt lat="43.94354" lon="7.35647">
        <ele>1331</ele>
        <time>2013-06-20T09:57:42Z</time>
      </trkpt>
      <trkpt lat="43.94357" lon="7.35654">
        <ele>1330</ele>
        <time>2013-06-20T09:57:45Z</time>
      </trkpt>
      <trkpt lat="43.9436" lon="7.35659">
        <ele>1330</ele>
        <time>2013-06-20T09:57:48Z</time>
      </trkpt>
      <trkpt lat="43.94364" lon="7.35663">
        <ele>1330</ele>
        <time>2013-06-20T09:57:51Z</time>
      </trkpt>
      <trkpt lat="43.94367" lon="7.35667">
        <ele>1330</ele>
        <time>2013-06-20T09:57:56Z</time>
      </trkpt>
      <trkpt lat="43.94365" lon="7.35673">
        <ele>1331</ele>
        <time>2013-06-20T09:58:03Z</time>
      </trkpt>
      <trkpt lat="43.94361" lon="7.35676">
        <ele>1332</ele>
        <time>2013-06-20T09:58:06Z</time>
      </trkpt>
      <trkpt lat="43.94356" lon="7.35679">
        <ele>1332</ele>
        <time>2013-06-20T09:58:09Z</time>
      </trkpt>
      <trkpt lat="43.94351" lon="7.35684">
        <ele>1333</ele>
        <time>2013-06-20T09:58:12Z</time>
      </trkpt>
      <trkpt lat="43.94352" lon="7.35693">
        <ele>1334</ele>
        <time>2013-06-20T09:58:19Z</time>
      </trkpt>
      <trkpt lat="43.94356" lon="7.35698">
        <ele>1334</ele>
        <time>2013-06-20T09:58:22Z</time>
      </trkpt>
      <trkpt lat="43.9436" lon="7.35702">
        <ele>1334</ele>
        <time>2013-06-20T09:58:26Z</time>
      </trkpt>
      <trkpt lat="43.94362" lon="7.35709">
        <ele>1335</ele>
        <time>2013-06-20T09:58:30Z</time>
      </trkpt>
      <trkpt lat="43.94363" lon="7.35715">
        <ele>1335</ele>
        <time>2013-06-20T09:58:33Z</time>
      </trkpt>
      <trkpt lat="43.94359" lon="7.35722">
        <ele>1336</ele>
        <time>2013-06-20T09:58:38Z</time>
      </trkpt>
      <trkpt lat="43.94361" lon="7.3573">
        <ele>1336</ele>
        <time>2013-06-20T09:58:43Z</time>
      </trkpt>
      <trkpt lat="43.94365" lon="7.35735">
        <ele>1337</ele>
        <time>2013-06-20T09:58:48Z</time>
      </trkpt>
      <trkpt lat="43.94369" lon="7.35739">
        <ele>1338</ele>
        <time>2013-06-20T09:58:51Z</time>
      </trkpt>
      <trkpt lat="43.94372" lon="7.35743">
        <ele>1338</ele>
        <time>2013-06-20T09:58:54Z</time>
      </trkpt>
      <trkpt lat="43.94373" lon="7.35749">
        <ele>1338</ele>
        <time>2013-06-20T09:59:00Z</time>
      </trkpt>
      <trkpt lat="43.94374" lon="7.35756">
        <ele>1338</ele>
        <time>2013-06-20T09:59:07Z</time>
      </trkpt>
      <trkpt lat="43.94374" lon="7.35769">
        <ele>1338</ele>
        <time>2013-06-20T09:59:15Z</time>
      </trkpt>
      <trkpt lat="43.94375" lon="7.35777">
        <ele>1338</ele>
        <time>2013-06-20T09:59:24Z</time>
      </trkpt>
      <trkpt lat="43.94376" lon="7.35788">
        <ele>1338</ele>
        <time>2013-06-20T09:59:32Z</time>
      </trkpt>
      <trkpt lat="43.94373" lon="7.35793">
        <ele>1338</ele>
        <time>2013-06-20T09:59:39Z</time>
      </trkpt>
      <trkpt lat="43.94372" lon="7.35799">
        <ele>1338</ele>
        <time>2013-06-20T09:59:44Z</time>
      </trkpt>
      <trkpt lat="43.94375" lon="7.35804">
        <ele>1338</ele>
        <time>2013-06-20T09:59:47Z</time>
      </trkpt>
      <trkpt lat="43.94382" lon="7.35809">
        <ele>1340</ele>
        <time>2013-06-20T09:59:49Z</time>
      </trkpt>
      <trkpt lat="43.94386" lon="7.35811">
        <ele>1340</ele>
        <time>2013-06-20T09:59:50Z</time>
      </trkpt>
      <trkpt lat="43.94392" lon="7.35816">
        <ele>1342</ele>
        <time>2013-06-20T09:59:52Z</time>
      </trkpt>
      <trkpt lat="43.94397" lon="7.3582">
        <ele>1343</ele>
        <time>2013-06-20T09:59:54Z</time>
      </trkpt>
      <trkpt lat="43.94401" lon="7.35822">
        <ele>1343</ele>
        <time>2013-06-20T09:59:56Z</time>
      </trkpt>
      <trkpt lat="43.94403" lon="7.35827">
        <ele>1344</ele>
        <time>2013-06-20T10:00:00Z</time>
      </trkpt>
      <trkpt lat="43.94399" lon="7.35831">
        <ele>1344</ele>
        <time>2013-06-20T10:00:04Z</time>
      </trkpt>
      <trkpt lat="43.94395" lon="7.35836">
        <ele>1345</ele>
        <time>2013-06-20T10:00:06Z</time>
      </trkpt>
      <trkpt lat="43.9439" lon="7.35839">
        <ele>1346</ele>
        <time>2013-06-20T10:00:11Z</time>
      </trkpt>
      <trkpt lat="43.94384" lon="7.35837">
        <ele>1347</ele>
        <time>2013-06-20T10:00:13Z</time>
      </trkpt>
      <trkpt lat="43.94379" lon="7.35839">
        <ele>1348</ele>
        <time>2013-06-20T10:00:16Z</time>
      </trkpt>
      <trkpt lat="43.94376" lon="7.35844">
        <ele>1348</ele>
        <time>2013-06-20T10:00:19Z</time>
      </trkpt>
      <trkpt lat="43.94376" lon="7.35851">
        <ele>1350</ele>
        <time>2013-06-20T10:00:23Z</time>
      </trkpt>
      <trkpt lat="43.94377" lon="7.35859">
        <ele>1352</ele>
        <time>2013-06-20T10:00:27Z</time>
      </trkpt>
      <trkpt lat="43.94378" lon="7.35865">
        <ele>1352</ele>
        <time>2013-06-20T10:00:29Z</time>
      </trkpt>
      <trkpt lat="43.94378" lon="7.35873">
        <ele>1353</ele>
        <time>2013-06-20T10:00:33Z</time>
      </trkpt>
      <trkpt lat="43.94376" lon="7.35879">
        <ele>1353</ele>
        <time>2013-06-20T10:00:37Z</time>
      </trkpt>
      <trkpt lat="43.94372" lon="7.35884">
        <ele>1353</ele>
        <time>2013-06-20T10:00:40Z</time>
      </trkpt>
      <trkpt lat="43.94368" lon="7.35889">
        <ele>1353</ele>
        <time>2013-06-20T10:00:44Z</time>
      </trkpt>
      <trkpt lat="43.94364" lon="7.3589">
        <ele>1353</ele>
        <time>2013-06-20T10:00:47Z</time>
      </trkpt>
      <trkpt lat="43.94359" lon="7.35892">
        <ele>1353</ele>
        <time>2013-06-20T10:00:52Z</time>
      </trkpt>
      <trkpt lat="43.94355" lon="7.35895">
        <ele>1353</ele>
        <time>2013-06-20T10:00:55Z</time>
      </trkpt>
      <trkpt lat="43.94355" lon="7.35903">
        <ele>1354</ele>
        <time>2013-06-20T10:01:02Z</time>
      </trkpt>
      <trkpt lat="43.94354" lon="7.3591">
        <ele>1354</ele>
        <time>2013-06-20T10:01:07Z</time>
      </trkpt>
      <trkpt lat="43.9435" lon="7.35914">
        <ele>1353</ele>
        <time>2013-06-20T10:01:09Z</time>
      </trkpt>
      <trkpt lat="43.94346" lon="7.35919">
        <ele>1353</ele>
        <time>2013-06-20T10:01:12Z</time>
      </trkpt>
      <trkpt lat="43.94342" lon="7.35924">
        <ele>1353</ele>
        <time>2013-06-20T10:01:18Z</time>
      </trkpt>
      <trkpt lat="43.94338" lon="7.3593">
        <ele>1354</ele>
        <time>2013-06-20T10:01:22Z</time>
      </trkpt>
      <trkpt lat="43.94333" lon="7.35933">
        <ele>1354</ele>
        <time>2013-06-20T10:01:25Z</time>
      </trkpt>
      <trkpt lat="43.94327" lon="7.35932">
        <ele>1355</ele>
        <time>2013-06-20T10:01:29Z</time>
      </trkpt>
      <trkpt lat="43.94323" lon="7.35936">
        <ele>1357</ele>
        <time>2013-06-20T10:01:34Z</time>
      </trkpt>
      <trkpt lat="43.94326" lon="7.35942">
        <ele>1358</ele>
        <time>2013-06-20T10:01:38Z</time>
      </trkpt>
      <trkpt lat="43.94328" lon="7.35948">
        <ele>1358</ele>
        <time>2013-06-20T10:01:43Z</time>
      </trkpt>
      <trkpt lat="43.94325" lon="7.35953">
        <ele>1358</ele>
        <time>2013-06-20T10:01:46Z</time>
      </trkpt>
      <trkpt lat="43.9432" lon="7.35956">
        <ele>1358</ele>
        <time>2013-06-20T10:01:48Z</time>
      </trkpt>
      <trkpt lat="43.94315" lon="7.3596">
        <ele>1358</ele>
        <time>2013-06-20T10:01:51Z</time>
      </trkpt>
      <trkpt lat="43.94312" lon="7.35965">
        <ele>1358</ele>
        <time>2013-06-20T10:01:55Z</time>
      </trkpt>
      <trkpt lat="43.94311" lon="7.35972">
        <ele>1359</ele>
        <time>2013-06-20T10:01:59Z</time>
      </trkpt>
      <trkpt lat="43.94307" lon="7.35976">
        <ele>1359</ele>
        <time>2013-06-20T10:02:03Z</time>
      </trkpt>
      <trkpt lat="43.94304" lon="7.3598">
        <ele>1360</ele>
        <time>2013-06-20T10:02:07Z</time>
      </trkpt>
      <trkpt lat="43.94299" lon="7.35981">
        <ele>1361</ele>
        <time>2013-06-20T10:02:13Z</time>
      </trkpt>
      <trkpt lat="43.94294" lon="7.35984">
        <ele>1361</ele>
        <time>2013-06-20T10:02:19Z</time>
      </trkpt>
      <trkpt lat="43.9429" lon="7.35987">
        <ele>1362</ele>
        <time>2013-06-20T10:02:25Z</time>
      </trkpt>
      <trkpt lat="43.94286" lon="7.35992">
        <ele>1362</ele>
        <time>2013-06-20T10:02:29Z</time>
      </trkpt>
      <trkpt lat="43.94282" lon="7.35995">
        <ele>1360</ele>
        <time>2013-06-20T10:02:38Z</time>
      </trkpt>
      <trkpt lat="43.94279" lon="7.35997">
        <ele>1359</ele>
        <time>2013-06-20T10:02:53Z</time>
      </trkpt>
      <trkpt lat="43.9428" lon="7.36001">
        <ele>1353</ele>
        <time>2013-06-20T10:06:37Z</time>
      </trkpt>
      <trkpt lat="43.94275" lon="7.36002">
        <ele>1353</ele>
        <time>2013-06-20T10:06:45Z</time>
      </trkpt>
      <trkpt lat="43.94272" lon="7.36004">
        <ele>1354</ele>
        <time>2013-06-20T10:06:54Z</time>
      </trkpt>
      <trkpt lat="43.94268" lon="7.36008">
        <ele>1355</ele>
        <time>2013-06-20T10:07:03Z</time>
      </trkpt>
      <trkpt lat="43.94263" lon="7.36011">
        <ele>1355</ele>
        <time>2013-06-20T10:07:06Z</time>
      </trkpt>
      <trkpt lat="43.94256" lon="7.36012">
        <ele>1356</ele>
        <time>2013-06-20T10:07:18Z</time>
      </trkpt>
      <trkpt lat="43.94251" lon="7.36011">
        <ele>1357</ele>
        <time>2013-06-20T10:07:25Z</time>
      </trkpt>
      <trkpt lat="43.94249" lon="7.36014">
        <ele>1358</ele>
        <time>2013-06-20T10:07:36Z</time>
      </trkpt>
      <trkpt lat="43.94246" lon="7.3602">
        <ele>1357</ele>
        <time>2013-06-20T10:07:59Z</time>
      </trkpt>
      <trkpt lat="43.94234" lon="7.36033">
        <ele>1356</ele>
        <time>2013-06-20T10:53:49Z</time>
      </trkpt>
      <trkpt lat="43.94232" lon="7.36035">
        <ele>1357</ele>
        <time>2013-06-20T10:54:19Z</time>
      </trkpt>
      <trkpt lat="43.94227" lon="7.36038">
        <ele>1357</ele>
        <time>2013-06-20T10:54:26Z</time>
      </trkpt>
      <trkpt lat="43.94222" lon="7.36042">
        <ele>1357</ele>
        <time>2013-06-20T10:54:31Z</time>
      </trkpt>
      <trkpt lat="43.94218" lon="7.36045">
        <ele>1356</ele>
        <time>2013-06-20T10:54:34Z</time>
      </trkpt>
      <trkpt lat="43.94213" lon="7.36047">
        <ele>1355</ele>
        <time>2013-06-20T10:54:39Z</time>
      </trkpt>
      <trkpt lat="43.94208" lon="7.36049">
        <ele>1354</ele>
        <time>2013-06-20T10:54:45Z</time>
      </trkpt>
      <trkpt lat="43.94203" lon="7.36047">
        <ele>1354</ele>
        <time>2013-06-20T10:54:47Z</time>
      </trkpt>
      <trkpt lat="43.94199" lon="7.36049">
        <ele>1354</ele>
        <time>2013-06-20T10:54:51Z</time>
      </trkpt>
      <trkpt lat="43.94193" lon="7.3605">
        <ele>1356</ele>
        <time>2013-06-20T10:55:07Z</time>
      </trkpt>
      <trkpt lat="43.94188" lon="7.36054">
        <ele>1357</ele>
        <time>2013-06-20T10:55:14Z</time>
      </trkpt>
      <trkpt lat="43.94183" lon="7.36055">
        <ele>1357</ele>
        <time>2013-06-20T10:55:19Z</time>
      </trkpt>
      <trkpt lat="43.94181" lon="7.36061">
        <ele>1360</ele>
        <time>2013-06-20T10:55:26Z</time>
      </trkpt>
      <trkpt lat="43.94176" lon="7.3606">
        <ele>1361</ele>
        <time>2013-06-20T10:55:32Z</time>
      </trkpt>
      <trkpt lat="43.9417" lon="7.36057">
        <ele>1361</ele>
        <time>2013-06-20T10:55:37Z</time>
      </trkpt>
      <trkpt lat="43.94164" lon="7.36055">
        <ele>1361</ele>
        <time>2013-06-20T10:55:42Z</time>
      </trkpt>
      <trkpt lat="43.94158" lon="7.36056">
        <ele>1362</ele>
        <time>2013-06-20T10:55:45Z</time>
      </trkpt>
      <trkpt lat="43.94152" lon="7.36056">
        <ele>1364</ele>
        <time>2013-06-20T10:55:50Z</time>
      </trkpt>
      <trkpt lat="43.94147" lon="7.36056">
        <ele>1363</ele>
        <time>2013-06-20T10:55:56Z</time>
      </trkpt>
      <trkpt lat="43.94142" lon="7.36057">
        <ele>1361</ele>
        <time>2013-06-20T10:56:00Z</time>
      </trkpt>
      <trkpt lat="43.94137" lon="7.3606">
        <ele>1360</ele>
        <time>2013-06-20T10:56:07Z</time>
      </trkpt>
      <trkpt lat="43.94132" lon="7.36062">
        <ele>1359</ele>
        <time>2013-06-20T10:56:12Z</time>
      </trkpt>
      <trkpt lat="43.94128" lon="7.3606">
        <ele>1359</ele>
        <time>2013-06-20T10:56:17Z</time>
      </trkpt>
      <trkpt lat="43.94123" lon="7.36059">
        <ele>1359</ele>
        <time>2013-06-20T10:56:21Z</time>
      </trkpt>
      <trkpt lat="43.94118" lon="7.36062">
        <ele>1359</ele>
        <time>2013-06-20T10:56:26Z</time>
      </trkpt>
      <trkpt lat="43.94114" lon="7.36063">
        <ele>1360</ele>
        <time>2013-06-20T10:56:34Z</time>
      </trkpt>
      <trkpt lat="43.94109" lon="7.36062">
        <ele>1362</ele>
        <time>2013-06-20T10:56:39Z</time>
      </trkpt>
      <trkpt lat="43.94104" lon="7.36063">
        <ele>1363</ele>
        <time>2013-06-20T10:56:42Z</time>
      </trkpt>
      <trkpt lat="43.94099" lon="7.36065">
        <ele>1363</ele>
        <time>2013-06-20T10:56:46Z</time>
      </trkpt>
      <trkpt lat="43.94095" lon="7.3607">
        <ele>1365</ele>
        <time>2013-06-20T10:56:50Z</time>
      </trkpt>
      <trkpt lat="43.9409" lon="7.36072">
        <ele>1367</ele>
        <time>2013-06-20T10:56:54Z</time>
      </trkpt>
      <trkpt lat="43.94085" lon="7.36075">
        <ele>1368</ele>
        <time>2013-06-20T10:56:59Z</time>
      </trkpt>
      <trkpt lat="43.94081" lon="7.3608">
        <ele>1369</ele>
        <time>2013-06-20T10:57:04Z</time>
      </trkpt>
      <trkpt lat="43.94079" lon="7.36085">
        <ele>1376</ele>
        <time>2013-06-20T10:57:15Z</time>
      </trkpt>
      <trkpt lat="43.94074" lon="7.36088">
        <ele>1378</ele>
        <time>2013-06-20T10:57:22Z</time>
      </trkpt>
      <trkpt lat="43.94071" lon="7.36092">
        <ele>1380</ele>
        <time>2013-06-20T10:57:26Z</time>
      </trkpt>
      <trkpt lat="43.94066" lon="7.36095">
        <ele>1380</ele>
        <time>2013-06-20T10:57:29Z</time>
      </trkpt>
      <trkpt lat="43.94061" lon="7.361">
        <ele>1379</ele>
        <time>2013-06-20T10:57:34Z</time>
      </trkpt>
      <trkpt lat="43.94055" lon="7.36104">
        <ele>1378</ele>
        <time>2013-06-20T10:57:45Z</time>
      </trkpt>
      <trkpt lat="43.9405" lon="7.36109">
        <ele>1377</ele>
        <time>2013-06-20T10:57:54Z</time>
      </trkpt>
      <trkpt lat="43.94043" lon="7.36109">
        <ele>1377</ele>
        <time>2013-06-20T10:58:02Z</time>
      </trkpt>
      <trkpt lat="43.94038" lon="7.36113">
        <ele>1377</ele>
        <time>2013-06-20T10:58:09Z</time>
      </trkpt>
      <trkpt lat="43.94033" lon="7.36112">
        <ele>1376</ele>
        <time>2013-06-20T10:58:23Z</time>
      </trkpt>
      <trkpt lat="43.94028" lon="7.36113">
        <ele>1374</ele>
        <time>2013-06-20T10:58:37Z</time>
      </trkpt>
      <trkpt lat="43.94021" lon="7.3611">
        <ele>1373</ele>
        <time>2013-06-20T10:58:42Z</time>
      </trkpt>
      <trkpt lat="43.94016" lon="7.36108">
        <ele>1372</ele>
        <time>2013-06-20T10:58:51Z</time>
      </trkpt>
      <trkpt lat="43.94013" lon="7.36103">
        <ele>1372</ele>
        <time>2013-06-20T10:58:57Z</time>
      </trkpt>
      <trkpt lat="43.94008" lon="7.36098">
        <ele>1371</ele>
        <time>2013-06-20T10:59:00Z</time>
      </trkpt>
      <trkpt lat="43.94005" lon="7.36093">
        <ele>1370</ele>
        <time>2013-06-20T10:59:05Z</time>
      </trkpt>
      <trkpt lat="43.94002" lon="7.36086">
        <ele>1371</ele>
        <time>2013-06-20T10:59:11Z</time>
      </trkpt>
      <trkpt lat="43.93999" lon="7.36081">
        <ele>1371</ele>
        <time>2013-06-20T10:59:17Z</time>
      </trkpt>
      <trkpt lat="43.93996" lon="7.36077">
        <ele>1371</ele>
        <time>2013-06-20T10:59:25Z</time>
      </trkpt>
      <trkpt lat="43.93991" lon="7.36074">
        <ele>1371</ele>
        <time>2013-06-20T10:59:31Z</time>
      </trkpt>
      <trkpt lat="43.93986" lon="7.36069">
        <ele>1370</ele>
        <time>2013-06-20T10:59:36Z</time>
      </trkpt>
      <trkpt lat="43.93981" lon="7.36064">
        <ele>1367</ele>
        <time>2013-06-20T10:59:46Z</time>
      </trkpt>
      <trkpt lat="43.93973" lon="7.36067">
        <ele>1369</ele>
        <time>2013-06-20T10:59:55Z</time>
      </trkpt>
      <trkpt lat="43.93969" lon="7.36071">
        <ele>1370</ele>
        <time>2013-06-20T10:59:59Z</time>
      </trkpt>
      <trkpt lat="43.93966" lon="7.36075">
        <ele>1370</ele>
        <time>2013-06-20T11:00:02Z</time>
      </trkpt>
      <trkpt lat="43.93961" lon="7.36077">
        <ele>1371</ele>
        <time>2013-06-20T11:00:07Z</time>
      </trkpt>
      <trkpt lat="43.93956" lon="7.36074">
        <ele>1371</ele>
        <time>2013-06-20T11:00:13Z</time>
      </trkpt>
      <trkpt lat="43.93952" lon="7.36077">
        <ele>1371</ele>
        <time>2013-06-20T11:00:20Z</time>
      </trkpt>
      <trkpt lat="43.9395" lon="7.36083">
        <ele>1370</ele>
        <time>2013-06-20T11:00:27Z</time>
      </trkpt>
      <trkpt lat="43.93948" lon="7.36089">
        <ele>1370</ele>
        <time>2013-06-20T11:00:35Z</time>
      </trkpt>
      <trkpt lat="43.93947" lon="7.36095">
        <ele>1371</ele>
        <time>2013-06-20T11:00:45Z</time>
      </trkpt>
      <trkpt lat="43.93947" lon="7.36101">
        <ele>1372</ele>
        <time>2013-06-20T11:00:54Z</time>
      </trkpt>
      <trkpt lat="43.93946" lon="7.36108">
        <ele>1373</ele>
        <time>2013-06-20T11:01:01Z</time>
      </trkpt>
      <trkpt lat="43.93946" lon="7.36115">
        <ele>1376</ele>
        <time>2013-06-20T11:01:18Z</time>
      </trkpt>
      <trkpt lat="43.93945" lon="7.36122">
        <ele>1377</ele>
        <time>2013-06-20T11:01:21Z</time>
      </trkpt>
      <trkpt lat="43.93946" lon="7.36128">
        <ele>1377</ele>
        <time>2013-06-20T11:01:24Z</time>
      </trkpt>
      <trkpt lat="43.93945" lon="7.36136">
        <ele>1377</ele>
        <time>2013-06-20T11:01:28Z</time>
      </trkpt>
      <trkpt lat="43.93946" lon="7.36142">
        <ele>1377</ele>
        <time>2013-06-20T11:01:34Z</time>
      </trkpt>
      <trkpt lat="43.93948" lon="7.36151">
        <ele>1379</ele>
        <time>2013-06-20T11:01:46Z</time>
      </trkpt>
      <trkpt lat="43.93948" lon="7.36158">
        <ele>1380</ele>
        <time>2013-06-20T11:01:51Z</time>
      </trkpt>
      <trkpt lat="43.93947" lon="7.36165">
        <ele>1380</ele>
        <time>2013-06-20T11:01:55Z</time>
      </trkpt>
      <trkpt lat="43.93946" lon="7.36172">
        <ele>1380</ele>
        <time>2013-06-20T11:01:59Z</time>
      </trkpt>
      <trkpt lat="43.93946" lon="7.36179">
        <ele>1380</ele>
        <time>2013-06-20T11:02:03Z</time>
      </trkpt>
      <trkpt lat="43.93945" lon="7.36185">
        <ele>1381</ele>
        <time>2013-06-20T11:02:09Z</time>
      </trkpt>
      <trkpt lat="43.93947" lon="7.36192">
        <ele>1382</ele>
        <time>2013-06-20T11:02:19Z</time>
      </trkpt>
      <trkpt lat="43.93947" lon="7.36199">
        <ele>1382</ele>
        <time>2013-06-20T11:02:22Z</time>
      </trkpt>
      <trkpt lat="43.93947" lon="7.36206">
        <ele>1382</ele>
        <time>2013-06-20T11:02:28Z</time>
      </trkpt>
      <trkpt lat="43.93946" lon="7.36214">
        <ele>1384</ele>
        <time>2013-06-20T11:02:34Z</time>
      </trkpt>
      <trkpt lat="43.93945" lon="7.3622">
        <ele>1383</ele>
        <time>2013-06-20T11:02:39Z</time>
      </trkpt>
      <trkpt lat="43.93947" lon="7.36223">
        <ele>1382</ele>
        <time>2013-06-20T11:02:47Z</time>
      </trkpt>
      <trkpt lat="43.93949" lon="7.36231">
        <ele>1382</ele>
        <time>2013-06-20T11:02:59Z</time>
      </trkpt>
      <trkpt lat="43.93948" lon="7.36238">
        <ele>1382</ele>
        <time>2013-06-20T11:03:04Z</time>
      </trkpt>
      <trkpt lat="43.93947" lon="7.36247">
        <ele>1383</ele>
        <time>2013-06-20T11:03:08Z</time>
      </trkpt>
      <trkpt lat="43.93952" lon="7.3625">
        <ele>1385</ele>
        <time>2013-06-20T11:03:12Z</time>
      </trkpt>
      <trkpt lat="43.93957" lon="7.36255">
        <ele>1385</ele>
        <time>2013-06-20T11:03:17Z</time>
      </trkpt>
      <trkpt lat="43.93957" lon="7.36261">
        <ele>1384</ele>
        <time>2013-06-20T11:03:22Z</time>
      </trkpt>
      <trkpt lat="43.93956" lon="7.36267">
        <ele>1384</ele>
        <time>2013-06-20T11:03:25Z</time>
      </trkpt>
      <trkpt lat="43.93954" lon="7.36274">
        <ele>1383</ele>
        <time>2013-06-20T11:03:27Z</time>
      </trkpt>
      <trkpt lat="43.93953" lon="7.3628">
        <ele>1382</ele>
        <time>2013-06-20T11:03:29Z</time>
      </trkpt>
      <trkpt lat="43.93949" lon="7.36286">
        <ele>1382</ele>
        <time>2013-06-20T11:03:32Z</time>
      </trkpt>
      <trkpt lat="43.93951" lon="7.36293">
        <ele>1382</ele>
        <time>2013-06-20T11:03:40Z</time>
      </trkpt>
      <trkpt lat="43.93955" lon="7.36297">
        <ele>1384</ele>
        <time>2013-06-20T11:03:46Z</time>
      </trkpt>
      <trkpt lat="43.93956" lon="7.36303">
        <ele>1384</ele>
        <time>2013-06-20T11:03:51Z</time>
      </trkpt>
      <trkpt lat="43.9396" lon="7.36307">
        <ele>1385</ele>
        <time>2013-06-20T11:03:57Z</time>
      </trkpt>
      <trkpt lat="43.93964" lon="7.36311">
        <ele>1388</ele>
        <time>2013-06-20T11:04:01Z</time>
      </trkpt>
      <trkpt lat="43.93966" lon="7.36318">
        <ele>1389</ele>
        <time>2013-06-20T11:04:04Z</time>
      </trkpt>
      <trkpt lat="43.93968" lon="7.36324">
        <ele>1390</ele>
        <time>2013-06-20T11:04:07Z</time>
      </trkpt>
      <trkpt lat="43.93969" lon="7.36331">
        <ele>1390</ele>
        <time>2013-06-20T11:04:11Z</time>
      </trkpt>
      <trkpt lat="43.93971" lon="7.36337">
        <ele>1391</ele>
        <time>2013-06-20T11:04:16Z</time>
      </trkpt>
      <trkpt lat="43.93976" lon="7.3634">
        <ele>1394</ele>
        <time>2013-06-20T11:04:19Z</time>
      </trkpt>
      <trkpt lat="43.93977" lon="7.36347">
        <ele>1395</ele>
        <time>2013-06-20T11:04:21Z</time>
      </trkpt>
      <trkpt lat="43.9398" lon="7.36353">
        <ele>1398</ele>
        <time>2013-06-20T11:04:27Z</time>
      </trkpt>
      <trkpt lat="43.93984" lon="7.36356">
        <ele>1399</ele>
        <time>2013-06-20T11:04:32Z</time>
      </trkpt>
      <trkpt lat="43.93988" lon="7.36361">
        <ele>1401</ele>
        <time>2013-06-20T11:04:36Z</time>
      </trkpt>
      <trkpt lat="43.93993" lon="7.36364">
        <ele>1402</ele>
        <time>2013-06-20T11:04:40Z</time>
      </trkpt>
      <trkpt lat="43.93998" lon="7.36366">
        <ele>1403</ele>
        <time>2013-06-20T11:04:47Z</time>
      </trkpt>
      <trkpt lat="43.94" lon="7.36372">
        <ele>1403</ele>
        <time>2013-06-20T11:04:55Z</time>
      </trkpt>
      <trkpt lat="43.94004" lon="7.36377">
        <ele>1404</ele>
        <time>2013-06-20T11:05:00Z</time>
      </trkpt>
      <trkpt lat="43.94009" lon="7.36378">
        <ele>1404</ele>
        <time>2013-06-20T11:05:05Z</time>
      </trkpt>
      <trkpt lat="43.94014" lon="7.3638">
        <ele>1402</ele>
        <time>2013-06-20T11:05:09Z</time>
      </trkpt>
      <trkpt lat="43.94019" lon="7.36381">
        <ele>1401</ele>
        <time>2013-06-20T11:05:14Z</time>
      </trkpt>
      <trkpt lat="43.94015" lon="7.36383">
        <ele>1399</ele>
        <time>2013-06-20T11:05:27Z</time>
      </trkpt>
      <trkpt lat="43.94011" lon="7.36386">
        <ele>1399</ele>
        <time>2013-06-20T11:05:31Z</time>
      </trkpt>
      <trkpt lat="43.94007" lon="7.36393">
        <ele>1399</ele>
        <time>2013-06-20T11:05:34Z</time>
      </trkpt>
      <trkpt lat="43.94002" lon="7.36396">
        <ele>1400</ele>
        <time>2013-06-20T11:05:37Z</time>
      </trkpt>
      <trkpt lat="43.93995" lon="7.36395">
        <ele>1400</ele>
        <time>2013-06-20T11:05:40Z</time>
      </trkpt>
      <trkpt lat="43.93991" lon="7.36391">
        <ele>1403</ele>
        <time>2013-06-20T11:05:47Z</time>
      </trkpt>
      <trkpt lat="43.93988" lon="7.36385">
        <ele>1405</ele>
        <time>2013-06-20T11:05:50Z</time>
      </trkpt>
      <trkpt lat="43.93982" lon="7.36385">
        <ele>1407</ele>
        <time>2013-06-20T11:06:06Z</time>
      </trkpt>
      <trkpt lat="43.93977" lon="7.36383">
        <ele>1408</ele>
        <time>2013-06-20T11:06:20Z</time>
      </trkpt>
      <trkpt lat="43.9397" lon="7.36381">
        <ele>1408</ele>
        <time>2013-06-20T11:06:23Z</time>
      </trkpt>
      <trkpt lat="43.93965" lon="7.3638">
        <ele>1408</ele>
        <time>2013-06-20T11:06:25Z</time>
      </trkpt>
      <trkpt lat="43.93958" lon="7.36381">
        <ele>1408</ele>
        <time>2013-06-20T11:06:27Z</time>
      </trkpt>
      <trkpt lat="43.9395" lon="7.3638">
        <ele>1408</ele>
        <time>2013-06-20T11:06:29Z</time>
      </trkpt>
      <trkpt lat="43.93947" lon="7.36376">
        <ele>1408</ele>
        <time>2013-06-20T11:06:33Z</time>
      </trkpt>
      <trkpt lat="43.93942" lon="7.36373">
        <ele>1408</ele>
        <time>2013-06-20T11:06:40Z</time>
      </trkpt>
      <trkpt lat="43.93938" lon="7.36372">
        <ele>1407</ele>
        <time>2013-06-20T11:06:45Z</time>
      </trkpt>
      <trkpt lat="43.93936" lon="7.36366">
        <ele>1407</ele>
        <time>2013-06-20T11:06:52Z</time>
      </trkpt>
      <trkpt lat="43.93934" lon="7.36359">
        <ele>1407</ele>
        <time>2013-06-20T11:07:03Z</time>
      </trkpt>
      <trkpt lat="43.93932" lon="7.36351">
        <ele>1408</ele>
        <time>2013-06-20T11:07:07Z</time>
      </trkpt>
      <trkpt lat="43.93928" lon="7.36345">
        <ele>1409</ele>
        <time>2013-06-20T11:07:12Z</time>
      </trkpt>
      <trkpt lat="43.93924" lon="7.36341">
        <ele>1409</ele>
        <time>2013-06-20T11:07:14Z</time>
      </trkpt>
      <trkpt lat="43.93921" lon="7.36335">
        <ele>1408</ele>
        <time>2013-06-20T11:07:19Z</time>
      </trkpt>
      <trkpt lat="43.93918" lon="7.36329">
        <ele>1408</ele>
        <time>2013-06-20T11:07:27Z</time>
      </trkpt>
      <trkpt lat="43.93914" lon="7.36325">
        <ele>1408</ele>
        <time>2013-06-20T11:07:29Z</time>
      </trkpt>
      <trkpt lat="43.93909" lon="7.36325">
        <ele>1410</ele>
        <time>2013-06-20T11:07:35Z</time>
      </trkpt>
      <trkpt lat="43.93906" lon="7.36329">
        <ele>1412</ele>
        <time>2013-06-20T11:07:39Z</time>
      </trkpt>
      <trkpt lat="43.93907" lon="7.36336">
        <ele>1412</ele>
        <time>2013-06-20T11:07:42Z</time>
      </trkpt>
      <trkpt lat="43.93909" lon="7.36342">
        <ele>1414</ele>
        <time>2013-06-20T11:07:47Z</time>
      </trkpt>
      <trkpt lat="43.9391" lon="7.36349">
        <ele>1414</ele>
        <time>2013-06-20T11:07:53Z</time>
      </trkpt>
      <trkpt lat="43.9391" lon="7.36355">
        <ele>1413</ele>
        <time>2013-06-20T11:08:01Z</time>
      </trkpt>
      <trkpt lat="43.93909" lon="7.36361">
        <ele>1413</ele>
        <time>2013-06-20T11:08:07Z</time>
      </trkpt>
      <trkpt lat="43.93909" lon="7.36368">
        <ele>1413</ele>
        <time>2013-06-20T11:08:14Z</time>
      </trkpt>
      <trkpt lat="43.93909" lon="7.36374">
        <ele>1413</ele>
        <time>2013-06-20T11:08:19Z</time>
      </trkpt>
      <trkpt lat="43.93909" lon="7.36381">
        <ele>1413</ele>
        <time>2013-06-20T11:08:24Z</time>
      </trkpt>
      <trkpt lat="43.9391" lon="7.36387">
        <ele>1413</ele>
        <time>2013-06-20T11:08:28Z</time>
      </trkpt>
      <trkpt lat="43.93911" lon="7.36394">
        <ele>1412</ele>
        <time>2013-06-20T11:08:31Z</time>
      </trkpt>
      <trkpt lat="43.93912" lon="7.36401">
        <ele>1412</ele>
        <time>2013-06-20T11:08:34Z</time>
      </trkpt>
      <trkpt lat="43.93913" lon="7.36408">
        <ele>1412</ele>
        <time>2013-06-20T11:08:37Z</time>
      </trkpt>
      <trkpt lat="43.93913" lon="7.36408">
        <ele>1413</ele>
        <time>2013-06-20T11:08:43Z</time>
      </trkpt>
      <trkpt lat="43.93917" lon="7.36412">
        <ele>1412</ele>
        <time>2013-06-20T11:09:00Z</time>
      </trkpt>
      <trkpt lat="43.93919" lon="7.36418">
        <ele>1411</ele>
        <time>2013-06-20T11:09:06Z</time>
      </trkpt>
      <trkpt lat="43.93922" lon="7.36425">
        <ele>1411</ele>
        <time>2013-06-20T11:09:10Z</time>
      </trkpt>
      <trkpt lat="43.93926" lon="7.3643">
        <ele>1412</ele>
        <time>2013-06-20T11:09:16Z</time>
      </trkpt>
      <trkpt lat="43.93931" lon="7.36431">
        <ele>1415</ele>
        <time>2013-06-20T11:09:21Z</time>
      </trkpt>
      <trkpt lat="43.93933" lon="7.36433">
        <ele>1415</ele>
        <time>2013-06-20T11:09:27Z</time>
      </trkpt>
      <trkpt lat="43.93938" lon="7.36434">
        <ele>1416</ele>
        <time>2013-06-20T11:09:38Z</time>
      </trkpt>
      <trkpt lat="43.93941" lon="7.36433">
        <ele>1420</ele>
        <time>2013-06-20T11:09:48Z</time>
      </trkpt>
      <trkpt lat="43.93944" lon="7.3644">
        <ele>1421</ele>
        <time>2013-06-20T11:09:58Z</time>
      </trkpt>
      <trkpt lat="43.93948" lon="7.36444">
        <ele>1422</ele>
        <time>2013-06-20T11:10:01Z</time>
      </trkpt>
      <trkpt lat="43.93953" lon="7.36446">
        <ele>1423</ele>
        <time>2013-06-20T11:10:05Z</time>
      </trkpt>
      <trkpt lat="43.93958" lon="7.36451">
        <ele>1424</ele>
        <time>2013-06-20T11:10:09Z</time>
      </trkpt>
      <trkpt lat="43.93961" lon="7.36454">
        <ele>1425</ele>
        <time>2013-06-20T11:10:12Z</time>
      </trkpt>
      <trkpt lat="43.93964" lon="7.36459">
        <ele>1426</ele>
        <time>2013-06-20T11:10:15Z</time>
      </trkpt>
      <trkpt lat="43.93965" lon="7.36465">
        <ele>1428</ele>
        <time>2013-06-20T11:10:22Z</time>
      </trkpt>
      <trkpt lat="43.9397" lon="7.3647">
        <ele>1430</ele>
        <time>2013-06-20T11:10:27Z</time>
      </trkpt>
      <trkpt lat="43.93974" lon="7.36472">
        <ele>1430</ele>
        <time>2013-06-20T11:10:33Z</time>
      </trkpt>
      <trkpt lat="43.93979" lon="7.3647">
        <ele>1432</ele>
        <time>2013-06-20T11:10:40Z</time>
      </trkpt>
      <trkpt lat="43.93984" lon="7.36474">
        <ele>1433</ele>
        <time>2013-06-20T11:10:46Z</time>
      </trkpt>
      <trkpt lat="43.93987" lon="7.36478">
        <ele>1434</ele>
        <time>2013-06-20T11:10:49Z</time>
      </trkpt>
      <trkpt lat="43.93991" lon="7.36482">
        <ele>1434</ele>
        <time>2013-06-20T11:10:57Z</time>
      </trkpt>
      <trkpt lat="43.93994" lon="7.36488">
        <ele>1432</ele>
        <time>2013-06-20T11:11:02Z</time>
      </trkpt>
      <trkpt lat="43.93997" lon="7.36493">
        <ele>1432</ele>
        <time>2013-06-20T11:11:07Z</time>
      </trkpt>
      <trkpt lat="43.94" lon="7.36498">
        <ele>1432</ele>
        <time>2013-06-20T11:11:13Z</time>
      </trkpt>
      <trkpt lat="43.94002" lon="7.36504">
        <ele>1432</ele>
        <time>2013-06-20T11:11:16Z</time>
      </trkpt>
      <trkpt lat="43.94003" lon="7.3651">
        <ele>1431</ele>
        <time>2013-06-20T11:11:21Z</time>
      </trkpt>
      <trkpt lat="43.94008" lon="7.3651">
        <ele>1431</ele>
        <time>2013-06-20T11:11:26Z</time>
      </trkpt>
      <trkpt lat="43.94013" lon="7.36511">
        <ele>1430</ele>
        <time>2013-06-20T11:11:31Z</time>
      </trkpt>
      <trkpt lat="43.94018" lon="7.36512">
        <ele>1430</ele>
        <time>2013-06-20T11:11:35Z</time>
      </trkpt>
      <trkpt lat="43.94022" lon="7.36516">
        <ele>1430</ele>
        <time>2013-06-20T11:11:42Z</time>
      </trkpt>
      <trkpt lat="43.94027" lon="7.36519">
        <ele>1430</ele>
        <time>2013-06-20T11:11:47Z</time>
      </trkpt>
      <trkpt lat="43.94032" lon="7.36521">
        <ele>1430</ele>
        <time>2013-06-20T11:11:50Z</time>
      </trkpt>
      <trkpt lat="43.94036" lon="7.36523">
        <ele>1430</ele>
        <time>2013-06-20T11:11:53Z</time>
      </trkpt>
      <trkpt lat="43.94041" lon="7.36525">
        <ele>1430</ele>
        <time>2013-06-20T11:11:58Z</time>
      </trkpt>
      <trkpt lat="43.94046" lon="7.36528">
        <ele>1431</ele>
        <time>2013-06-20T11:12:02Z</time>
      </trkpt>
      <trkpt lat="43.94051" lon="7.36529">
        <ele>1432</ele>
        <time>2013-06-20T11:12:05Z</time>
      </trkpt>
      <trkpt lat="43.94056" lon="7.3653">
        <ele>1433</ele>
        <time>2013-06-20T11:12:09Z</time>
      </trkpt>
      <trkpt lat="43.94061" lon="7.3653">
        <ele>1434</ele>
        <time>2013-06-20T11:12:15Z</time>
      </trkpt>
      <trkpt lat="43.94066" lon="7.36533">
        <ele>1435</ele>
        <time>2013-06-20T11:12:21Z</time>
      </trkpt>
      <trkpt lat="43.9407" lon="7.36535">
        <ele>1435</ele>
        <time>2013-06-20T11:12:25Z</time>
      </trkpt>
      <trkpt lat="43.94075" lon="7.36537">
        <ele>1436</ele>
        <time>2013-06-20T11:12:29Z</time>
      </trkpt>
      <trkpt lat="43.9408" lon="7.36538">
        <ele>1437</ele>
        <time>2013-06-20T11:12:33Z</time>
      </trkpt>
      <trkpt lat="43.94085" lon="7.36537">
        <ele>1438</ele>
        <time>2013-06-20T11:12:37Z</time>
      </trkpt>
      <trkpt lat="43.9409" lon="7.36537">
        <ele>1439</ele>
        <time>2013-06-20T11:12:41Z</time>
      </trkpt>
      <trkpt lat="43.94095" lon="7.36539">
        <ele>1441</ele>
        <time>2013-06-20T11:12:46Z</time>
      </trkpt>
      <trkpt lat="43.94099" lon="7.3654">
        <ele>1441</ele>
        <time>2013-06-20T11:12:54Z</time>
      </trkpt>
      <trkpt lat="43.94095" lon="7.36538">
        <ele>1448</ele>
        <time>2013-06-20T11:13:23Z</time>
      </trkpt>
      <trkpt lat="43.94091" lon="7.3654">
        <ele>1449</ele>
        <time>2013-06-20T11:13:27Z</time>
      </trkpt>
      <trkpt lat="43.94086" lon="7.36538">
        <ele>1451</ele>
        <time>2013-06-20T11:13:30Z</time>
      </trkpt>
      <trkpt lat="43.94081" lon="7.36534">
        <ele>1452</ele>
        <time>2013-06-20T11:13:33Z</time>
      </trkpt>
      <trkpt lat="43.94078" lon="7.36529">
        <ele>1455</ele>
        <time>2013-06-20T11:13:41Z</time>
      </trkpt>
      <trkpt lat="43.94073" lon="7.36527">
        <ele>1457</ele>
        <time>2013-06-20T11:13:47Z</time>
      </trkpt>
      <trkpt lat="43.94068" lon="7.36532">
        <ele>1457</ele>
        <time>2013-06-20T11:13:50Z</time>
      </trkpt>
      <trkpt lat="43.94062" lon="7.36535">
        <ele>1456</ele>
        <time>2013-06-20T11:13:53Z</time>
      </trkpt>
      <trkpt lat="43.94056" lon="7.36547">
        <ele>1450</ele>
        <time>2013-06-20T11:14:02Z</time>
      </trkpt>
      <trkpt lat="43.94051" lon="7.3655">
        <ele>1449</ele>
        <time>2013-06-20T11:14:07Z</time>
      </trkpt>
      <trkpt lat="43.94046" lon="7.36554">
        <ele>1450</ele>
        <time>2013-06-20T11:14:12Z</time>
      </trkpt>
      <trkpt lat="43.94041" lon="7.36555">
        <ele>1451</ele>
        <time>2013-06-20T11:14:17Z</time>
      </trkpt>
      <trkpt lat="43.94035" lon="7.36554">
        <ele>1452</ele>
        <time>2013-06-20T11:14:23Z</time>
      </trkpt>
      <trkpt lat="43.9403" lon="7.36554">
        <ele>1451</ele>
        <time>2013-06-20T11:14:27Z</time>
      </trkpt>
      <trkpt lat="43.94026" lon="7.36552">
        <ele>1450</ele>
        <time>2013-06-20T11:14:31Z</time>
      </trkpt>
      <trkpt lat="43.94022" lon="7.36547">
        <ele>1450</ele>
        <time>2013-06-20T11:14:33Z</time>
      </trkpt>
      <trkpt lat="43.94016" lon="7.36542">
        <ele>1450</ele>
        <time>2013-06-20T11:14:37Z</time>
      </trkpt>
      <trkpt lat="43.94008" lon="7.36539">
        <ele>1450</ele>
        <time>2013-06-20T11:14:38Z</time>
      </trkpt>
      <trkpt lat="43.94003" lon="7.36536">
        <ele>1450</ele>
        <time>2013-06-20T11:14:43Z</time>
      </trkpt>
      <trkpt lat="43.93999" lon="7.36535">
        <ele>1450</ele>
        <time>2013-06-20T11:14:47Z</time>
      </trkpt>
      <trkpt lat="43.93997" lon="7.36527">
        <ele>1454</ele>
        <time>2013-06-20T11:14:50Z</time>
      </trkpt>
      <trkpt lat="43.93993" lon="7.36524">
        <ele>1456</ele>
        <time>2013-06-20T11:14:56Z</time>
      </trkpt>
      <trkpt lat="43.93988" lon="7.36522">
        <ele>1456</ele>
        <time>2013-06-20T11:15:00Z</time>
      </trkpt>
      <trkpt lat="43.93983" lon="7.3652">
        <ele>1456</ele>
        <time>2013-06-20T11:15:05Z</time>
      </trkpt>
      <trkpt lat="43.93978" lon="7.36521">
        <ele>1456</ele>
        <time>2013-06-20T11:15:08Z</time>
      </trkpt>
      <trkpt lat="43.93974" lon="7.36525">
        <ele>1456</ele>
        <time>2013-06-20T11:15:11Z</time>
      </trkpt>
      <trkpt lat="43.9397" lon="7.36529">
        <ele>1455</ele>
        <time>2013-06-20T11:15:14Z</time>
      </trkpt>
      <trkpt lat="43.93965" lon="7.3653">
        <ele>1452</ele>
        <time>2013-06-20T11:15:20Z</time>
      </trkpt>
      <trkpt lat="43.9396" lon="7.3653">
        <ele>1452</ele>
        <time>2013-06-20T11:15:24Z</time>
      </trkpt>
      <trkpt lat="43.93956" lon="7.36525">
        <ele>1451</ele>
        <time>2013-06-20T11:15:27Z</time>
      </trkpt>
      <trkpt lat="43.93951" lon="7.36523">
        <ele>1451</ele>
        <time>2013-06-20T11:15:30Z</time>
      </trkpt>
      <trkpt lat="43.93948" lon="7.36517">
        <ele>1452</ele>
        <time>2013-06-20T11:15:34Z</time>
      </trkpt>
      <trkpt lat="43.93944" lon="7.3652">
        <ele>1453</ele>
        <time>2013-06-20T11:15:42Z</time>
      </trkpt>
      <trkpt lat="43.9394" lon="7.36525">
        <ele>1453</ele>
        <time>2013-06-20T11:15:46Z</time>
      </trkpt>
      <trkpt lat="43.93935" lon="7.36523">
        <ele>1452</ele>
        <time>2013-06-20T11:15:50Z</time>
      </trkpt>
      <trkpt lat="43.9393" lon="7.36521">
        <ele>1452</ele>
        <time>2013-06-20T11:15:55Z</time>
      </trkpt>
      <trkpt lat="43.93927" lon="7.36515">
        <ele>1452</ele>
        <time>2013-06-20T11:16:00Z</time>
      </trkpt>
      <trkpt lat="43.93924" lon="7.36509">
        <ele>1452</ele>
        <time>2013-06-20T11:16:05Z</time>
      </trkpt>
      <trkpt lat="43.93918" lon="7.36506">
        <ele>1453</ele>
        <time>2013-06-20T11:16:11Z</time>
      </trkpt>
      <trkpt lat="43.93914" lon="7.365">
        <ele>1455</ele>
        <time>2013-06-20T11:16:15Z</time>
      </trkpt>
      <trkpt lat="43.93911" lon="7.36507">
        <ele>1454</ele>
        <time>2013-06-20T11:16:29Z</time>
      </trkpt>
      <trkpt lat="43.93907" lon="7.36511">
        <ele>1453</ele>
        <time>2013-06-20T11:16:31Z</time>
      </trkpt>
      <trkpt lat="43.93904" lon="7.36514">
        <ele>1454</ele>
        <time>2013-06-20T11:16:41Z</time>
      </trkpt>
      <trkpt lat="43.93904" lon="7.36519">
        <ele>1453</ele>
        <time>2013-06-20T11:17:30Z</time>
      </trkpt>
      <trkpt lat="43.93908" lon="7.36517">
        <ele>1452</ele>
        <time>2013-06-20T11:18:19Z</time>
      </trkpt>
      <trkpt lat="43.9391" lon="7.36512">
        <ele>1451</ele>
        <time>2013-06-20T11:20:28Z</time>
      </trkpt>
      <trkpt lat="43.93913" lon="7.36514">
        <ele>1451</ele>
        <time>2013-06-20T11:20:52Z</time>
      </trkpt>
      <trkpt lat="43.93918" lon="7.36519">
        <ele>1451</ele>
        <time>2013-06-20T11:21:06Z</time>
      </trkpt>
      <trkpt lat="43.93922" lon="7.36523">
        <ele>1450</ele>
        <time>2013-06-20T11:21:07Z</time>
      </trkpt>
      <trkpt lat="43.93926" lon="7.3653">
        <ele>1449</ele>
        <time>2013-06-20T11:21:11Z</time>
      </trkpt>
      <trkpt lat="43.93929" lon="7.36535">
        <ele>1449</ele>
        <time>2013-06-20T11:21:14Z</time>
      </trkpt>
      <trkpt lat="43.93933" lon="7.36538">
        <ele>1451</ele>
        <time>2013-06-20T11:21:22Z</time>
      </trkpt>
      <trkpt lat="43.93938" lon="7.36542">
        <ele>1454</ele>
        <time>2013-06-20T11:21:27Z</time>
      </trkpt>
      <trkpt lat="43.93941" lon="7.36547">
        <ele>1456</ele>
        <time>2013-06-20T11:21:32Z</time>
      </trkpt>
      <trkpt lat="43.93945" lon="7.36552">
        <ele>1456</ele>
        <time>2013-06-20T11:21:37Z</time>
      </trkpt>
      <trkpt lat="43.93949" lon="7.36558">
        <ele>1457</ele>
        <time>2013-06-20T11:21:41Z</time>
      </trkpt>
      <trkpt lat="43.93953" lon="7.36562">
        <ele>1457</ele>
        <time>2013-06-20T11:21:47Z</time>
      </trkpt>
      <trkpt lat="43.93957" lon="7.36565">
        <ele>1457</ele>
        <time>2013-06-20T11:21:50Z</time>
      </trkpt>
      <trkpt lat="43.93961" lon="7.36569">
        <ele>1458</ele>
        <time>2013-06-20T11:21:53Z</time>
      </trkpt>
      <trkpt lat="43.93966" lon="7.36574">
        <ele>1458</ele>
        <time>2013-06-20T11:21:57Z</time>
      </trkpt>
      <trkpt lat="43.9397" lon="7.36578">
        <ele>1458</ele>
        <time>2013-06-20T11:22:01Z</time>
      </trkpt>
      <trkpt lat="43.93975" lon="7.36579">
        <ele>1458</ele>
        <time>2013-06-20T11:22:05Z</time>
      </trkpt>
      <trkpt lat="43.9398" lon="7.3658">
        <ele>1458</ele>
        <time>2013-06-20T11:22:08Z</time>
      </trkpt>
      <trkpt lat="43.93985" lon="7.36583">
        <ele>1458</ele>
        <time>2013-06-20T11:22:12Z</time>
      </trkpt>
      <trkpt lat="43.9399" lon="7.36585">
        <ele>1459</ele>
        <time>2013-06-20T11:22:16Z</time>
      </trkpt>
      <trkpt lat="43.93996" lon="7.36589">
        <ele>1459</ele>
        <time>2013-06-20T11:22:20Z</time>
      </trkpt>
      <trkpt lat="43.94" lon="7.36592">
        <ele>1460</ele>
        <time>2013-06-20T11:22:24Z</time>
      </trkpt>
      <trkpt lat="43.94005" lon="7.36596">
        <ele>1461</ele>
        <time>2013-06-20T11:22:29Z</time>
      </trkpt>
      <trkpt lat="43.9401" lon="7.36598">
        <ele>1464</ele>
        <time>2013-06-20T11:22:34Z</time>
      </trkpt>
      <trkpt lat="43.94015" lon="7.36601">
        <ele>1465</ele>
        <time>2013-06-20T11:22:39Z</time>
      </trkpt>
      <trkpt lat="43.94018" lon="7.36606">
        <ele>1468</ele>
        <time>2013-06-20T11:22:46Z</time>
      </trkpt>
      <trkpt lat="43.94023" lon="7.36609">
        <ele>1469</ele>
        <time>2013-06-20T11:22:51Z</time>
      </trkpt>
      <trkpt lat="43.94029" lon="7.36609">
        <ele>1470</ele>
        <time>2013-06-20T11:22:55Z</time>
      </trkpt>
      <trkpt lat="43.94034" lon="7.36608">
        <ele>1470</ele>
        <time>2013-06-20T11:22:59Z</time>
      </trkpt>
      <trkpt lat="43.94039" lon="7.36608">
        <ele>1470</ele>
        <time>2013-06-20T11:23:04Z</time>
      </trkpt>
      <trkpt lat="43.94044" lon="7.36608">
        <ele>1471</ele>
        <time>2013-06-20T11:23:10Z</time>
      </trkpt>
      <trkpt lat="43.94049" lon="7.36609">
        <ele>1472</ele>
        <time>2013-06-20T11:23:15Z</time>
      </trkpt>
      <trkpt lat="43.94053" lon="7.36607">
        <ele>1473</ele>
        <time>2013-06-20T11:23:18Z</time>
      </trkpt>
      <trkpt lat="43.94058" lon="7.36605">
        <ele>1473</ele>
        <time>2013-06-20T11:23:23Z</time>
      </trkpt>
      <trkpt lat="43.94063" lon="7.36606">
        <ele>1474</ele>
        <time>2013-06-20T11:23:26Z</time>
      </trkpt>
      <trkpt lat="43.94068" lon="7.36608">
        <ele>1474</ele>
        <time>2013-06-20T11:23:29Z</time>
      </trkpt>
      <trkpt lat="43.94073" lon="7.36611">
        <ele>1475</ele>
        <time>2013-06-20T11:23:32Z</time>
      </trkpt>
      <trkpt lat="43.94078" lon="7.36613">
        <ele>1475</ele>
        <time>2013-06-20T11:23:38Z</time>
      </trkpt>
      <trkpt lat="43.94083" lon="7.36615">
        <ele>1474</ele>
        <time>2013-06-20T11:23:43Z</time>
      </trkpt>
      <trkpt lat="43.94086" lon="7.36621">
        <ele>1474</ele>
        <time>2013-06-20T11:23:47Z</time>
      </trkpt>
      <trkpt lat="43.94089" lon="7.36626">
        <ele>1474</ele>
        <time>2013-06-20T11:23:53Z</time>
      </trkpt>
      <trkpt lat="43.94094" lon="7.36628">
        <ele>1475</ele>
        <time>2013-06-20T11:23:57Z</time>
      </trkpt>
      <trkpt lat="43.94099" lon="7.3663">
        <ele>1476</ele>
        <time>2013-06-20T11:24:01Z</time>
      </trkpt>
      <trkpt lat="43.94104" lon="7.36631">
        <ele>1477</ele>
        <time>2013-06-20T11:24:05Z</time>
      </trkpt>
      <trkpt lat="43.94108" lon="7.36632">
        <ele>1478</ele>
        <time>2013-06-20T11:24:08Z</time>
      </trkpt>
      <trkpt lat="43.94113" lon="7.36633">
        <ele>1478</ele>
        <time>2013-06-20T11:24:13Z</time>
      </trkpt>
      <trkpt lat="43.94118" lon="7.36637">
        <ele>1479</ele>
        <time>2013-06-20T11:24:17Z</time>
      </trkpt>
      <trkpt lat="43.94122" lon="7.3664">
        <ele>1478</ele>
        <time>2013-06-20T11:24:20Z</time>
      </trkpt>
      <trkpt lat="43.94127" lon="7.36644">
        <ele>1476</ele>
        <time>2013-06-20T11:24:24Z</time>
      </trkpt>
      <trkpt lat="43.94131" lon="7.36647">
        <ele>1475</ele>
        <time>2013-06-20T11:24:28Z</time>
      </trkpt>
      <trkpt lat="43.94136" lon="7.36649">
        <ele>1474</ele>
        <time>2013-06-20T11:24:33Z</time>
      </trkpt>
      <trkpt lat="43.94141" lon="7.36649">
        <ele>1473</ele>
        <time>2013-06-20T11:24:36Z</time>
      </trkpt>
      <trkpt lat="43.94145" lon="7.36654">
        <ele>1471</ele>
        <time>2013-06-20T11:24:41Z</time>
      </trkpt>
      <trkpt lat="43.94149" lon="7.36659">
        <ele>1470</ele>
        <time>2013-06-20T11:24:45Z</time>
      </trkpt>
      <trkpt lat="43.94154" lon="7.36662">
        <ele>1469</ele>
        <time>2013-06-20T11:24:49Z</time>
      </trkpt>
      <trkpt lat="43.94159" lon="7.3666">
        <ele>1469</ele>
        <time>2013-06-20T11:24:52Z</time>
      </trkpt>
      <trkpt lat="43.94163" lon="7.36657">
        <ele>1470</ele>
        <time>2013-06-20T11:24:54Z</time>
      </trkpt>
      <trkpt lat="43.94167" lon="7.36655">
        <ele>1471</ele>
        <time>2013-06-20T11:24:57Z</time>
      </trkpt>
      <trkpt lat="43.94171" lon="7.36659">
        <ele>1471</ele>
        <time>2013-06-20T11:25:02Z</time>
      </trkpt>
      <trkpt lat="43.94175" lon="7.36664">
        <ele>1471</ele>
        <time>2013-06-20T11:25:06Z</time>
      </trkpt>
      <trkpt lat="43.9418" lon="7.36664">
        <ele>1471</ele>
        <time>2013-06-20T11:25:09Z</time>
      </trkpt>
      <trkpt lat="43.94185" lon="7.36664">
        <ele>1472</ele>
        <time>2013-06-20T11:25:15Z</time>
      </trkpt>
      <trkpt lat="43.94188" lon="7.36669">
        <ele>1473</ele>
        <time>2013-06-20T11:25:21Z</time>
      </trkpt>
      <trkpt lat="43.94193" lon="7.36666">
        <ele>1472</ele>
        <time>2013-06-20T11:25:30Z</time>
      </trkpt>
      <trkpt lat="43.94196" lon="7.36669">
        <ele>1468</ele>
        <time>2013-06-20T11:25:39Z</time>
      </trkpt>
      <trkpt lat="43.94201" lon="7.36671">
        <ele>1466</ele>
        <time>2013-06-20T11:25:58Z</time>
      </trkpt>
      <trkpt lat="43.94202" lon="7.36678">
        <ele>1466</ele>
        <time>2013-06-20T11:26:05Z</time>
      </trkpt>
      <trkpt lat="43.94202" lon="7.36685">
        <ele>1467</ele>
        <time>2013-06-20T11:26:08Z</time>
      </trkpt>
      <trkpt lat="43.94207" lon="7.36688">
        <ele>1468</ele>
        <time>2013-06-20T11:26:15Z</time>
      </trkpt>
      <trkpt lat="43.94212" lon="7.36687">
        <ele>1469</ele>
        <time>2013-06-20T11:26:20Z</time>
      </trkpt>
      <trkpt lat="43.94217" lon="7.36689">
        <ele>1470</ele>
        <time>2013-06-20T11:26:23Z</time>
      </trkpt>
      <trkpt lat="43.94223" lon="7.36692">
        <ele>1471</ele>
        <time>2013-06-20T11:26:26Z</time>
      </trkpt>
      <trkpt lat="43.94229" lon="7.36696">
        <ele>1471</ele>
        <time>2013-06-20T11:26:29Z</time>
      </trkpt>
      <trkpt lat="43.94234" lon="7.36698">
        <ele>1472</ele>
        <time>2013-06-20T11:26:32Z</time>
      </trkpt>
      <trkpt lat="43.94238" lon="7.36703">
        <ele>1473</ele>
        <time>2013-06-20T11:26:38Z</time>
      </trkpt>
      <trkpt lat="43.94243" lon="7.36704">
        <ele>1474</ele>
        <time>2013-06-20T11:26:43Z</time>
      </trkpt>
      <trkpt lat="43.94247" lon="7.36708">
        <ele>1476</ele>
        <time>2013-06-20T11:26:49Z</time>
      </trkpt>
      <trkpt lat="43.94252" lon="7.36709">
        <ele>1477</ele>
        <time>2013-06-20T11:26:52Z</time>
      </trkpt>
      <trkpt lat="43.94256" lon="7.36708">
        <ele>1478</ele>
        <time>2013-06-20T11:26:54Z</time>
      </trkpt>
      <trkpt lat="43.94263" lon="7.36706">
        <ele>1480</ele>
        <time>2013-06-20T11:26:57Z</time>
      </trkpt>
      <trkpt lat="43.94268" lon="7.36705">
        <ele>1482</ele>
        <time>2013-06-20T11:27:00Z</time>
      </trkpt>
      <trkpt lat="43.94273" lon="7.36704">
        <ele>1484</ele>
        <time>2013-06-20T11:27:08Z</time>
      </trkpt>
      <trkpt lat="43.94279" lon="7.36704">
        <ele>1485</ele>
        <time>2013-06-20T11:27:13Z</time>
      </trkpt>
      <trkpt lat="43.94284" lon="7.36702">
        <ele>1486</ele>
        <time>2013-06-20T11:27:18Z</time>
      </trkpt>
      <trkpt lat="43.94288" lon="7.36698">
        <ele>1488</ele>
        <time>2013-06-20T11:27:23Z</time>
      </trkpt>
      <trkpt lat="43.94293" lon="7.36697">
        <ele>1489</ele>
        <time>2013-06-20T11:27:28Z</time>
      </trkpt>
      <trkpt lat="43.94299" lon="7.36694">
        <ele>1491</ele>
        <time>2013-06-20T11:27:32Z</time>
      </trkpt>
      <trkpt lat="43.94304" lon="7.36691">
        <ele>1491</ele>
        <time>2013-06-20T11:27:35Z</time>
      </trkpt>
      <trkpt lat="43.94309" lon="7.3669">
        <ele>1492</ele>
        <time>2013-06-20T11:27:38Z</time>
      </trkpt>
      <trkpt lat="43.94314" lon="7.3669">
        <ele>1493</ele>
        <time>2013-06-20T11:27:42Z</time>
      </trkpt>
      <trkpt lat="43.9432" lon="7.3669">
        <ele>1495</ele>
        <time>2013-06-20T11:27:47Z</time>
      </trkpt>
      <trkpt lat="43.94325" lon="7.36688">
        <ele>1496</ele>
        <time>2013-06-20T11:27:50Z</time>
      </trkpt>
      <trkpt lat="43.94329" lon="7.36685">
        <ele>1496</ele>
        <time>2013-06-20T11:27:54Z</time>
      </trkpt>
      <trkpt lat="43.94335" lon="7.36686">
        <ele>1498</ele>
        <time>2013-06-20T11:28:00Z</time>
      </trkpt>
      <trkpt lat="43.9434" lon="7.36687">
        <ele>1498</ele>
        <time>2013-06-20T11:28:05Z</time>
      </trkpt>
      <trkpt lat="43.94345" lon="7.36687">
        <ele>1499</ele>
        <time>2013-06-20T11:28:07Z</time>
      </trkpt>
      <trkpt lat="43.9435" lon="7.36686">
        <ele>1499</ele>
        <time>2013-06-20T11:28:11Z</time>
      </trkpt>
      <trkpt lat="43.94354" lon="7.36684">
        <ele>1499</ele>
        <time>2013-06-20T11:28:14Z</time>
      </trkpt>
      <trkpt lat="43.94359" lon="7.3668">
        <ele>1499</ele>
        <time>2013-06-20T11:28:18Z</time>
      </trkpt>
      <trkpt lat="43.94363" lon="7.36676">
        <ele>1499</ele>
        <time>2013-06-20T11:28:22Z</time>
      </trkpt>
      <trkpt lat="43.94367" lon="7.36672">
        <ele>1499</ele>
        <time>2013-06-20T11:28:25Z</time>
      </trkpt>
      <trkpt lat="43.94371" lon="7.36668">
        <ele>1497</ele>
        <time>2013-06-20T11:28:27Z</time>
      </trkpt>
      <trkpt lat="43.94375" lon="7.36663">
        <ele>1496</ele>
        <time>2013-06-20T11:28:31Z</time>
      </trkpt>
      <trkpt lat="43.94379" lon="7.36659">
        <ele>1494</ele>
        <time>2013-06-20T11:28:35Z</time>
      </trkpt>
      <trkpt lat="43.94384" lon="7.36655">
        <ele>1495</ele>
        <time>2013-06-20T11:28:41Z</time>
      </trkpt>
      <trkpt lat="43.94406" lon="7.36637">
        <ele>1507</ele>
        <time>2013-06-20T11:29:04Z</time>
      </trkpt>
      <trkpt lat="43.9441" lon="7.36633">
        <ele>1506</ele>
        <time>2013-06-20T11:29:08Z</time>
      </trkpt>
      <trkpt lat="43.94415" lon="7.36633">
        <ele>1505</ele>
        <time>2013-06-20T11:29:11Z</time>
      </trkpt>
      <trkpt lat="43.9442" lon="7.36634">
        <ele>1503</ele>
        <time>2013-06-20T11:29:16Z</time>
      </trkpt>
      <trkpt lat="43.94425" lon="7.36629">
        <ele>1498</ele>
        <time>2013-06-20T11:29:25Z</time>
      </trkpt>
      <trkpt lat="43.9443" lon="7.36622">
        <ele>1496</ele>
        <time>2013-06-20T11:29:35Z</time>
      </trkpt>
      <trkpt lat="43.94432" lon="7.36614">
        <ele>1497</ele>
        <time>2013-06-20T11:29:38Z</time>
      </trkpt>
      <trkpt lat="43.94438" lon="7.36612">
        <ele>1498</ele>
        <time>2013-06-20T11:29:43Z</time>
      </trkpt>
      <trkpt lat="43.94443" lon="7.36616">
        <ele>1498</ele>
        <time>2013-06-20T11:29:45Z</time>
      </trkpt>
      <trkpt lat="43.94447" lon="7.36619">
        <ele>1499</ele>
        <time>2013-06-20T11:29:47Z</time>
      </trkpt>
      <trkpt lat="43.94452" lon="7.36623">
        <ele>1500</ele>
        <time>2013-06-20T11:29:51Z</time>
      </trkpt>
      <trkpt lat="43.94457" lon="7.36625">
        <ele>1501</ele>
        <time>2013-06-20T11:29:55Z</time>
      </trkpt>
      <trkpt lat="43.94462" lon="7.36627">
        <ele>1502</ele>
        <time>2013-06-20T11:29:59Z</time>
      </trkpt>
      <trkpt lat="43.94466" lon="7.3663">
        <ele>1504</ele>
        <time>2013-06-20T11:30:04Z</time>
      </trkpt>
      <trkpt lat="43.94472" lon="7.3663">
        <ele>1504</ele>
        <time>2013-06-20T11:30:10Z</time>
      </trkpt>
      <trkpt lat="43.94476" lon="7.36631">
        <ele>1504</ele>
        <time>2013-06-20T11:30:14Z</time>
      </trkpt>
      <trkpt lat="43.94481" lon="7.36631">
        <ele>1506</ele>
        <time>2013-06-20T11:30:19Z</time>
      </trkpt>
      <trkpt lat="43.94487" lon="7.3663">
        <ele>1504</ele>
        <time>2013-06-20T11:30:23Z</time>
      </trkpt>
      <trkpt lat="43.94491" lon="7.36627">
        <ele>1503</ele>
        <time>2013-06-20T11:30:26Z</time>
      </trkpt>
      <trkpt lat="43.94493" lon="7.36619">
        <ele>1500</ele>
        <time>2013-06-20T11:30:31Z</time>
      </trkpt>
      <trkpt lat="43.94497" lon="7.36619">
        <ele>1495</ele>
        <time>2013-06-20T11:30:45Z</time>
      </trkpt>
      <trkpt lat="43.94502" lon="7.36616">
        <ele>1495</ele>
        <time>2013-06-20T11:32:15Z</time>
      </trkpt>
      <trkpt lat="43.94507" lon="7.36617">
        <ele>1495</ele>
        <time>2013-06-20T11:32:18Z</time>
      </trkpt>
      <trkpt lat="43.94513" lon="7.3662">
        <ele>1496</ele>
        <time>2013-06-20T11:32:21Z</time>
      </trkpt>
      <trkpt lat="43.94517" lon="7.36624">
        <ele>1496</ele>
        <time>2013-06-20T11:32:23Z</time>
      </trkpt>
      <trkpt lat="43.94521" lon="7.36627">
        <ele>1497</ele>
        <time>2013-06-20T11:32:25Z</time>
      </trkpt>
      <trkpt lat="43.94526" lon="7.36631">
        <ele>1498</ele>
        <time>2013-06-20T11:32:28Z</time>
      </trkpt>
      <trkpt lat="43.94531" lon="7.36636">
        <ele>1498</ele>
        <time>2013-06-20T11:32:32Z</time>
      </trkpt>
      <trkpt lat="43.94535" lon="7.3664">
        <ele>1500</ele>
        <time>2013-06-20T11:32:35Z</time>
      </trkpt>
      <trkpt lat="43.94539" lon="7.36646">
        <ele>1502</ele>
        <time>2013-06-20T11:32:39Z</time>
      </trkpt>
      <trkpt lat="43.94543" lon="7.36649">
        <ele>1504</ele>
        <time>2013-06-20T11:32:44Z</time>
      </trkpt>
      <trkpt lat="43.94548" lon="7.36651">
        <ele>1506</ele>
        <time>2013-06-20T11:32:49Z</time>
      </trkpt>
      <trkpt lat="43.94553" lon="7.36653">
        <ele>1506</ele>
        <time>2013-06-20T11:32:53Z</time>
      </trkpt>
      <trkpt lat="43.94558" lon="7.36655">
        <ele>1507</ele>
        <time>2013-06-20T11:32:57Z</time>
      </trkpt>
      <trkpt lat="43.94563" lon="7.36655">
        <ele>1507</ele>
        <time>2013-06-20T11:33:01Z</time>
      </trkpt>
      <trkpt lat="43.94568" lon="7.36657">
        <ele>1508</ele>
        <time>2013-06-20T11:33:05Z</time>
      </trkpt>
      <trkpt lat="43.94574" lon="7.36657">
        <ele>1510</ele>
        <time>2013-06-20T11:33:09Z</time>
      </trkpt>
      <trkpt lat="43.94579" lon="7.36656">
        <ele>1511</ele>
        <time>2013-06-20T11:33:13Z</time>
      </trkpt>
      <trkpt lat="43.94584" lon="7.36655">
        <ele>1512</ele>
        <time>2013-06-20T11:33:18Z</time>
      </trkpt>
      <trkpt lat="43.94588" lon="7.36658">
        <ele>1513</ele>
        <time>2013-06-20T11:33:22Z</time>
      </trkpt>
      <trkpt lat="43.94593" lon="7.36659">
        <ele>1514</ele>
        <time>2013-06-20T11:33:26Z</time>
      </trkpt>
      <trkpt lat="43.94598" lon="7.3666">
        <ele>1515</ele>
        <time>2013-06-20T11:33:30Z</time>
      </trkpt>
      <trkpt lat="43.94603" lon="7.36662">
        <ele>1516</ele>
        <time>2013-06-20T11:33:35Z</time>
      </trkpt>
      <trkpt lat="43.94608" lon="7.36664">
        <ele>1516</ele>
        <time>2013-06-20T11:33:39Z</time>
      </trkpt>
      <trkpt lat="43.94613" lon="7.36669">
        <ele>1519</ele>
        <time>2013-06-20T11:33:45Z</time>
      </trkpt>
      <trkpt lat="43.94617" lon="7.3667">
        <ele>1520</ele>
        <time>2013-06-20T11:33:49Z</time>
      </trkpt>
      <trkpt lat="43.94623" lon="7.3667">
        <ele>1521</ele>
        <time>2013-06-20T11:33:54Z</time>
      </trkpt>
      <trkpt lat="43.94629" lon="7.36671">
        <ele>1521</ele>
        <time>2013-06-20T11:33:58Z</time>
      </trkpt>
      <trkpt lat="43.94634" lon="7.36675">
        <ele>1522</ele>
        <time>2013-06-20T11:34:03Z</time>
      </trkpt>
      <trkpt lat="43.94639" lon="7.36677">
        <ele>1522</ele>
        <time>2013-06-20T11:34:07Z</time>
      </trkpt>
      <trkpt lat="43.94644" lon="7.36681">
        <ele>1521</ele>
        <time>2013-06-20T11:34:10Z</time>
      </trkpt>
      <trkpt lat="43.9465" lon="7.36684">
        <ele>1520</ele>
        <time>2013-06-20T11:34:14Z</time>
      </trkpt>
      <trkpt lat="43.94655" lon="7.36685">
        <ele>1520</ele>
        <time>2013-06-20T11:34:20Z</time>
      </trkpt>
      <trkpt lat="43.9466" lon="7.36688">
        <ele>1519</ele>
        <time>2013-06-20T11:34:24Z</time>
      </trkpt>
      <trkpt lat="43.94664" lon="7.36691">
        <ele>1520</ele>
        <time>2013-06-20T11:34:28Z</time>
      </trkpt>
      <trkpt lat="43.94669" lon="7.36692">
        <ele>1520</ele>
        <time>2013-06-20T11:34:33Z</time>
      </trkpt>
      <trkpt lat="43.94674" lon="7.36693">
        <ele>1521</ele>
        <time>2013-06-20T11:34:38Z</time>
      </trkpt>
      <trkpt lat="43.94678" lon="7.36693">
        <ele>1521</ele>
        <time>2013-06-20T11:34:41Z</time>
      </trkpt>
      <trkpt lat="43.94683" lon="7.36693">
        <ele>1522</ele>
        <time>2013-06-20T11:34:44Z</time>
      </trkpt>
      <trkpt lat="43.94689" lon="7.36694">
        <ele>1522</ele>
        <time>2013-06-20T11:34:47Z</time>
      </trkpt>
      <trkpt lat="43.94694" lon="7.36696">
        <ele>1522</ele>
        <time>2013-06-20T11:34:50Z</time>
      </trkpt>
      <trkpt lat="43.94699" lon="7.36697">
        <ele>1522</ele>
        <time>2013-06-20T11:34:53Z</time>
      </trkpt>
      <trkpt lat="43.94704" lon="7.36697">
        <ele>1521</ele>
        <time>2013-06-20T11:34:59Z</time>
      </trkpt>
      <trkpt lat="43.94709" lon="7.36699">
        <ele>1521</ele>
        <time>2013-06-20T11:35:05Z</time>
      </trkpt>
      <trkpt lat="43.94714" lon="7.367">
        <ele>1522</ele>
        <time>2013-06-20T11:35:10Z</time>
      </trkpt>
      <trkpt lat="43.9472" lon="7.36702">
        <ele>1522</ele>
        <time>2013-06-20T11:35:14Z</time>
      </trkpt>
      <trkpt lat="43.94725" lon="7.36703">
        <ele>1522</ele>
        <time>2013-06-20T11:35:19Z</time>
      </trkpt>
      <trkpt lat="43.9473" lon="7.36703">
        <ele>1522</ele>
        <time>2013-06-20T11:35:22Z</time>
      </trkpt>
      <trkpt lat="43.94735" lon="7.36701">
        <ele>1521</ele>
        <time>2013-06-20T11:35:25Z</time>
      </trkpt>
      <trkpt lat="43.94739" lon="7.367">
        <ele>1521</ele>
        <time>2013-06-20T11:35:29Z</time>
      </trkpt>
      <trkpt lat="43.94745" lon="7.367">
        <ele>1521</ele>
        <time>2013-06-20T11:35:33Z</time>
      </trkpt>
      <trkpt lat="43.94751" lon="7.36702">
        <ele>1521</ele>
        <time>2013-06-20T11:35:37Z</time>
      </trkpt>
      <trkpt lat="43.94755" lon="7.36702">
        <ele>1521</ele>
        <time>2013-06-20T11:35:41Z</time>
      </trkpt>
      <trkpt lat="43.94759" lon="7.36706">
        <ele>1521</ele>
        <time>2013-06-20T11:35:46Z</time>
      </trkpt>
      <trkpt lat="43.94764" lon="7.36708">
        <ele>1521</ele>
        <time>2013-06-20T11:35:51Z</time>
      </trkpt>
      <trkpt lat="43.9477" lon="7.36707">
        <ele>1521</ele>
        <time>2013-06-20T11:35:56Z</time>
      </trkpt>
      <trkpt lat="43.94775" lon="7.36703">
        <ele>1521</ele>
        <time>2013-06-20T11:35:59Z</time>
      </trkpt>
      <trkpt lat="43.94779" lon="7.36699">
        <ele>1521</ele>
        <time>2013-06-20T11:36:02Z</time>
      </trkpt>
      <trkpt lat="43.94783" lon="7.36694">
        <ele>1521</ele>
        <time>2013-06-20T11:36:05Z</time>
      </trkpt>
      <trkpt lat="43.94789" lon="7.36694">
        <ele>1521</ele>
        <time>2013-06-20T11:36:09Z</time>
      </trkpt>
      <trkpt lat="43.94795" lon="7.36694">
        <ele>1521</ele>
        <time>2013-06-20T11:36:13Z</time>
      </trkpt>
      <trkpt lat="43.948" lon="7.36695">
        <ele>1522</ele>
        <time>2013-06-20T11:36:17Z</time>
      </trkpt>
      <trkpt lat="43.94806" lon="7.36696">
        <ele>1522</ele>
        <time>2013-06-20T11:36:21Z</time>
      </trkpt>
      <trkpt lat="43.94811" lon="7.36695">
        <ele>1522</ele>
        <time>2013-06-20T11:36:23Z</time>
      </trkpt>
      <trkpt lat="43.94815" lon="7.36693">
        <ele>1521</ele>
        <time>2013-06-20T11:36:28Z</time>
      </trkpt>
      <trkpt lat="43.94819" lon="7.36689">
        <ele>1521</ele>
        <time>2013-06-20T11:36:32Z</time>
      </trkpt>
      <trkpt lat="43.94824" lon="7.36688">
        <ele>1521</ele>
        <time>2013-06-20T11:36:35Z</time>
      </trkpt>
      <trkpt lat="43.94829" lon="7.36686">
        <ele>1522</ele>
        <time>2013-06-20T11:36:39Z</time>
      </trkpt>
      <trkpt lat="43.94834" lon="7.36686">
        <ele>1522</ele>
        <time>2013-06-20T11:36:42Z</time>
      </trkpt>
      <trkpt lat="43.94839" lon="7.36685">
        <ele>1522</ele>
        <time>2013-06-20T11:36:46Z</time>
      </trkpt>
      <trkpt lat="43.94843" lon="7.36685">
        <ele>1522</ele>
        <time>2013-06-20T11:36:51Z</time>
      </trkpt>
      <trkpt lat="43.94849" lon="7.36684">
        <ele>1521</ele>
        <time>2013-06-20T11:36:56Z</time>
      </trkpt>
      <trkpt lat="43.94853" lon="7.36684">
        <ele>1520</ele>
        <time>2013-06-20T11:37:00Z</time>
      </trkpt>
      <trkpt lat="43.94859" lon="7.36684">
        <ele>1518</ele>
        <time>2013-06-20T11:37:05Z</time>
      </trkpt>
      <trkpt lat="43.94864" lon="7.36683">
        <ele>1516</ele>
        <time>2013-06-20T11:37:09Z</time>
      </trkpt>
      <trkpt lat="43.9487" lon="7.36683">
        <ele>1515</ele>
        <time>2013-06-20T11:37:14Z</time>
      </trkpt>
      <trkpt lat="43.94874" lon="7.36683">
        <ele>1514</ele>
        <time>2013-06-20T11:37:18Z</time>
      </trkpt>
      <trkpt lat="43.9488" lon="7.36681">
        <ele>1513</ele>
        <time>2013-06-20T11:37:23Z</time>
      </trkpt>
      <trkpt lat="43.94884" lon="7.36679">
        <ele>1513</ele>
        <time>2013-06-20T11:37:27Z</time>
      </trkpt>
      <trkpt lat="43.94889" lon="7.36674">
        <ele>1513</ele>
        <time>2013-06-20T11:37:30Z</time>
      </trkpt>
      <trkpt lat="43.94894" lon="7.36673">
        <ele>1513</ele>
        <time>2013-06-20T11:37:33Z</time>
      </trkpt>
      <trkpt lat="43.94899" lon="7.36673">
        <ele>1512</ele>
        <time>2013-06-20T11:37:36Z</time>
      </trkpt>
      <trkpt lat="43.94904" lon="7.36674">
        <ele>1512</ele>
        <time>2013-06-20T11:37:41Z</time>
      </trkpt>
      <trkpt lat="43.94909" lon="7.36675">
        <ele>1512</ele>
        <time>2013-06-20T11:37:44Z</time>
      </trkpt>
      <trkpt lat="43.94914" lon="7.36674">
        <ele>1512</ele>
        <time>2013-06-20T11:37:48Z</time>
      </trkpt>
      <trkpt lat="43.94919" lon="7.36673">
        <ele>1512</ele>
        <time>2013-06-20T11:37:52Z</time>
      </trkpt>
      <trkpt lat="43.94924" lon="7.36673">
        <ele>1512</ele>
        <time>2013-06-20T11:37:56Z</time>
      </trkpt>
      <trkpt lat="43.9493" lon="7.36673">
        <ele>1511</ele>
        <time>2013-06-20T11:38:01Z</time>
      </trkpt>
      <trkpt lat="43.94935" lon="7.36672">
        <ele>1511</ele>
        <time>2013-06-20T11:38:04Z</time>
      </trkpt>
      <trkpt lat="43.94941" lon="7.36672">
        <ele>1511</ele>
        <time>2013-06-20T11:38:09Z</time>
      </trkpt>
      <trkpt lat="43.94946" lon="7.36672">
        <ele>1510</ele>
        <time>2013-06-20T11:38:13Z</time>
      </trkpt>
      <trkpt lat="43.94952" lon="7.36674">
        <ele>1510</ele>
        <time>2013-06-20T11:38:17Z</time>
      </trkpt>
      <trkpt lat="43.94956" lon="7.36675">
        <ele>1509</ele>
        <time>2013-06-20T11:38:19Z</time>
      </trkpt>
      <trkpt lat="43.94962" lon="7.36673">
        <ele>1509</ele>
        <time>2013-06-20T11:38:22Z</time>
      </trkpt>
      <trkpt lat="43.94966" lon="7.36671">
        <ele>1508</ele>
        <time>2013-06-20T11:38:27Z</time>
      </trkpt>
      <trkpt lat="43.94972" lon="7.36669">
        <ele>1505</ele>
        <time>2013-06-20T11:38:34Z</time>
      </trkpt>
      <trkpt lat="43.94976" lon="7.36669">
        <ele>1503</ele>
        <time>2013-06-20T11:38:37Z</time>
      </trkpt>
      <trkpt lat="43.94981" lon="7.3667">
        <ele>1503</ele>
        <time>2013-06-20T11:38:41Z</time>
      </trkpt>
      <trkpt lat="43.94985" lon="7.36671">
        <ele>1502</ele>
        <time>2013-06-20T11:38:42Z</time>
      </trkpt>
      <trkpt lat="43.9499" lon="7.36669">
        <ele>1502</ele>
        <time>2013-06-20T11:38:45Z</time>
      </trkpt>
      <trkpt lat="43.94996" lon="7.36669">
        <ele>1502</ele>
        <time>2013-06-20T11:38:50Z</time>
      </trkpt>
      <trkpt lat="43.95001" lon="7.3667">
        <ele>1501</ele>
        <time>2013-06-20T11:38:55Z</time>
      </trkpt>
      <trkpt lat="43.95005" lon="7.36668">
        <ele>1500</ele>
        <time>2013-06-20T11:38:59Z</time>
      </trkpt>
      <trkpt lat="43.9501" lon="7.36665">
        <ele>1500</ele>
        <time>2013-06-20T11:39:03Z</time>
      </trkpt>
      <trkpt lat="43.95015" lon="7.36664">
        <ele>1500</ele>
        <time>2013-06-20T11:39:07Z</time>
      </trkpt>
      <trkpt lat="43.95021" lon="7.36665">
        <ele>1499</ele>
        <time>2013-06-20T11:39:12Z</time>
      </trkpt>
      <trkpt lat="43.95025" lon="7.36664">
        <ele>1499</ele>
        <time>2013-06-20T11:39:17Z</time>
      </trkpt>
      <trkpt lat="43.95028" lon="7.3666">
        <ele>1499</ele>
        <time>2013-06-20T11:39:21Z</time>
      </trkpt>
      <trkpt lat="43.95034" lon="7.36657">
        <ele>1500</ele>
        <time>2013-06-20T11:39:27Z</time>
      </trkpt>
      <trkpt lat="43.95039" lon="7.36654">
        <ele>1501</ele>
        <time>2013-06-20T11:39:30Z</time>
      </trkpt>
      <trkpt lat="43.95044" lon="7.36653">
        <ele>1501</ele>
        <time>2013-06-20T11:39:33Z</time>
      </trkpt>
      <trkpt lat="43.95048" lon="7.36651">
        <ele>1502</ele>
        <time>2013-06-20T11:39:37Z</time>
      </trkpt>
      <trkpt lat="43.95054" lon="7.36651">
        <ele>1502</ele>
        <time>2013-06-20T11:39:40Z</time>
      </trkpt>
      <trkpt lat="43.95058" lon="7.3665">
        <ele>1503</ele>
        <time>2013-06-20T11:39:46Z</time>
      </trkpt>
      <trkpt lat="43.95064" lon="7.36648">
        <ele>1504</ele>
        <time>2013-06-20T11:39:54Z</time>
      </trkpt>
      <trkpt lat="43.9507" lon="7.36647">
        <ele>1504</ele>
        <time>2013-06-20T11:39:57Z</time>
      </trkpt>
      <trkpt lat="43.95076" lon="7.36645">
        <ele>1505</ele>
        <time>2013-06-20T11:40:01Z</time>
      </trkpt>
      <trkpt lat="43.95088" lon="7.36636">
        <ele>1498</ele>
        <time>2013-06-20T11:40:17Z</time>
      </trkpt>
      <trkpt lat="43.95095" lon="7.36635">
        <ele>1497</ele>
        <time>2013-06-20T11:40:20Z</time>
      </trkpt>
      <trkpt lat="43.951" lon="7.36633">
        <ele>1496</ele>
        <time>2013-06-20T11:40:22Z</time>
      </trkpt>
      <trkpt lat="43.95104" lon="7.36629">
        <ele>1496</ele>
        <time>2013-06-20T11:40:26Z</time>
      </trkpt>
      <trkpt lat="43.95107" lon="7.36624">
        <ele>1496</ele>
        <time>2013-06-20T11:40:29Z</time>
      </trkpt>
      <trkpt lat="43.95112" lon="7.36622">
        <ele>1497</ele>
        <time>2013-06-20T11:40:35Z</time>
      </trkpt>
      <trkpt lat="43.95116" lon="7.36615">
        <ele>1498</ele>
        <time>2013-06-20T11:40:37Z</time>
      </trkpt>
      <trkpt lat="43.95119" lon="7.36609">
        <ele>1500</ele>
        <time>2013-06-20T11:40:41Z</time>
      </trkpt>
      <trkpt lat="43.95122" lon="7.36602">
        <ele>1501</ele>
        <time>2013-06-20T11:40:43Z</time>
      </trkpt>
      <trkpt lat="43.95127" lon="7.36599">
        <ele>1502</ele>
        <time>2013-06-20T11:40:47Z</time>
      </trkpt>
      <trkpt lat="43.95131" lon="7.36593">
        <ele>1502</ele>
        <time>2013-06-20T11:40:51Z</time>
      </trkpt>
      <trkpt lat="43.95135" lon="7.36589">
        <ele>1502</ele>
        <time>2013-06-20T11:40:57Z</time>
      </trkpt>
      <trkpt lat="43.9514" lon="7.36588">
        <ele>1503</ele>
        <time>2013-06-20T11:41:02Z</time>
      </trkpt>
      <trkpt lat="43.95142" lon="7.36579">
        <ele>1506</ele>
        <time>2013-06-20T11:41:12Z</time>
      </trkpt>
      <trkpt lat="43.95144" lon="7.36571">
        <ele>1506</ele>
        <time>2013-06-20T11:41:14Z</time>
      </trkpt>
      <trkpt lat="43.95148" lon="7.36567">
        <ele>1505</ele>
        <time>2013-06-20T11:41:17Z</time>
      </trkpt>
      <trkpt lat="43.95154" lon="7.36558">
        <ele>1505</ele>
        <time>2013-06-20T11:41:33Z</time>
      </trkpt>
      <trkpt lat="43.95158" lon="7.36554">
        <ele>1505</ele>
        <time>2013-06-20T11:41:34Z</time>
      </trkpt>
      <trkpt lat="43.95163" lon="7.36548">
        <ele>1505</ele>
        <time>2013-06-20T11:41:37Z</time>
      </trkpt>
      <trkpt lat="43.95167" lon="7.36544">
        <ele>1505</ele>
        <time>2013-06-20T11:41:40Z</time>
      </trkpt>
      <trkpt lat="43.95172" lon="7.3654">
        <ele>1506</ele>
        <time>2013-06-20T11:41:43Z</time>
      </trkpt>
      <trkpt lat="43.95176" lon="7.36536">
        <ele>1506</ele>
        <time>2013-06-20T11:41:47Z</time>
      </trkpt>
      <trkpt lat="43.95182" lon="7.36532">
        <ele>1507</ele>
        <time>2013-06-20T11:41:51Z</time>
      </trkpt>
      <trkpt lat="43.95185" lon="7.36529">
        <ele>1507</ele>
        <time>2013-06-20T11:41:54Z</time>
      </trkpt>
      <trkpt lat="43.95189" lon="7.36525">
        <ele>1509</ele>
        <time>2013-06-20T11:41:59Z</time>
      </trkpt>
      <trkpt lat="43.95194" lon="7.36518">
        <ele>1510</ele>
        <time>2013-06-20T11:42:02Z</time>
      </trkpt>
      <trkpt lat="43.95197" lon="7.36513">
        <ele>1511</ele>
        <time>2013-06-20T11:42:05Z</time>
      </trkpt>
      <trkpt lat="43.95197" lon="7.36506">
        <ele>1511</ele>
        <time>2013-06-20T11:42:12Z</time>
      </trkpt>
      <trkpt lat="43.95201" lon="7.36506">
        <ele>1513</ele>
        <time>2013-06-20T11:43:30Z</time>
      </trkpt>
      <trkpt lat="43.95205" lon="7.36504">
        <ele>1513</ele>
        <time>2013-06-20T11:43:34Z</time>
      </trkpt>
      <trkpt lat="43.95209" lon="7.365">
        <ele>1512</ele>
        <time>2013-06-20T11:44:01Z</time>
      </trkpt>
      <trkpt lat="43.95209" lon="7.36497">
        <ele>1509</ele>
        <time>2013-06-20T11:44:34Z</time>
      </trkpt>
      <trkpt lat="43.95213" lon="7.36496">
        <ele>1509</ele>
        <time>2013-06-20T11:44:42Z</time>
      </trkpt>
      <trkpt lat="43.95218" lon="7.36496">
        <ele>1508</ele>
        <time>2013-06-20T11:44:49Z</time>
      </trkpt>
      <trkpt lat="43.95222" lon="7.36495">
        <ele>1507</ele>
        <time>2013-06-20T11:44:55Z</time>
      </trkpt>
      <trkpt lat="43.95226" lon="7.36489">
        <ele>1506</ele>
        <time>2013-06-20T11:45:02Z</time>
      </trkpt>
      <trkpt lat="43.9523" lon="7.36487">
        <ele>1505</ele>
        <time>2013-06-20T11:45:07Z</time>
      </trkpt>
      <trkpt lat="43.95235" lon="7.36484">
        <ele>1504</ele>
        <time>2013-06-20T11:45:12Z</time>
      </trkpt>
      <trkpt lat="43.9524" lon="7.36479">
        <ele>1501</ele>
        <time>2013-06-20T11:45:28Z</time>
      </trkpt>
      <trkpt lat="43.95242" lon="7.36473">
        <ele>1500</ele>
        <time>2013-06-20T11:45:34Z</time>
      </trkpt>
      <trkpt lat="43.95245" lon="7.36468">
        <ele>1498</ele>
        <time>2013-06-20T11:45:40Z</time>
      </trkpt>
      <trkpt lat="43.95251" lon="7.36465">
        <ele>1496</ele>
        <time>2013-06-20T11:45:59Z</time>
      </trkpt>
      <trkpt lat="43.95248" lon="7.3646">
        <ele>1494</ele>
        <time>2013-06-20T11:46:06Z</time>
      </trkpt>
      <trkpt lat="43.95249" lon="7.36454">
        <ele>1493</ele>
        <time>2013-06-20T11:46:09Z</time>
      </trkpt>
      <trkpt lat="43.95253" lon="7.36449">
        <ele>1491</ele>
        <time>2013-06-20T11:46:14Z</time>
      </trkpt>
      <trkpt lat="43.95257" lon="7.36444">
        <ele>1492</ele>
        <time>2013-06-20T11:46:17Z</time>
      </trkpt>
      <trkpt lat="43.95261" lon="7.36438">
        <ele>1494</ele>
        <time>2013-06-20T11:46:20Z</time>
      </trkpt>
      <trkpt lat="43.95263" lon="7.36431">
        <ele>1494</ele>
        <time>2013-06-20T11:46:25Z</time>
      </trkpt>
      <trkpt lat="43.9526" lon="7.36423">
        <ele>1493</ele>
        <time>2013-06-20T11:46:37Z</time>
      </trkpt>
      <trkpt lat="43.95261" lon="7.36417">
        <ele>1493</ele>
        <time>2013-06-20T11:46:41Z</time>
      </trkpt>
      <trkpt lat="43.9526" lon="7.36411">
        <ele>1492</ele>
        <time>2013-06-20T11:46:49Z</time>
      </trkpt>
      <trkpt lat="43.9526" lon="7.36404">
        <ele>1493</ele>
        <time>2013-06-20T11:46:57Z</time>
      </trkpt>
      <trkpt lat="43.95261" lon="7.36396">
        <ele>1494</ele>
        <time>2013-06-20T11:46:59Z</time>
      </trkpt>
      <trkpt lat="43.95261" lon="7.36389">
        <ele>1494</ele>
        <time>2013-06-20T11:47:04Z</time>
      </trkpt>
      <trkpt lat="43.95259" lon="7.36383">
        <ele>1494</ele>
        <time>2013-06-20T11:47:09Z</time>
      </trkpt>
      <trkpt lat="43.95262" lon="7.36377">
        <ele>1495</ele>
        <time>2013-06-20T11:47:13Z</time>
      </trkpt>
      <trkpt lat="43.95257" lon="7.36374">
        <ele>1491</ele>
        <time>2013-06-20T11:47:24Z</time>
      </trkpt>
      <trkpt lat="43.95255" lon="7.36369">
        <ele>1489</ele>
        <time>2013-06-20T11:47:30Z</time>
      </trkpt>
      <trkpt lat="43.95254" lon="7.36362">
        <ele>1486</ele>
        <time>2013-06-20T11:47:35Z</time>
      </trkpt>
      <trkpt lat="43.95245" lon="7.36354">
        <ele>1481</ele>
        <time>2013-06-20T11:47:46Z</time>
      </trkpt>
      <trkpt lat="43.95239" lon="7.36335">
        <ele>1474</ele>
        <time>2013-06-20T11:48:07Z</time>
      </trkpt>
      <trkpt lat="43.95241" lon="7.36337">
        <ele>1472</ele>
        <time>2013-06-20T11:48:14Z</time>
      </trkpt>
      <trkpt lat="43.95243" lon="7.36334">
        <ele>1471</ele>
        <time>2013-06-20T11:48:21Z</time>
      </trkpt>
      <trkpt lat="43.95245" lon="7.36331">
        <ele>1472</ele>
        <time>2013-06-20T11:48:27Z</time>
      </trkpt>
      <trkpt lat="43.95245" lon="7.36324">
        <ele>1471</ele>
        <time>2013-06-20T11:48:47Z</time>
      </trkpt>
      <trkpt lat="43.95246" lon="7.36316">
        <ele>1470</ele>
        <time>2013-06-20T11:48:51Z</time>
      </trkpt>
      <trkpt lat="43.95243" lon="7.36308">
        <ele>1469</ele>
        <time>2013-06-20T11:48:54Z</time>
      </trkpt>
      <trkpt lat="43.9524" lon="7.36302">
        <ele>1467</ele>
        <time>2013-06-20T11:49:01Z</time>
      </trkpt>
      <trkpt lat="43.9524" lon="7.36294">
        <ele>1465</ele>
        <time>2013-06-20T11:49:08Z</time>
      </trkpt>
      <trkpt lat="43.9524" lon="7.36287">
        <ele>1463</ele>
        <time>2013-06-20T11:49:13Z</time>
      </trkpt>
      <trkpt lat="43.95238" lon="7.36281">
        <ele>1461</ele>
        <time>2013-06-20T11:49:23Z</time>
      </trkpt>
      <trkpt lat="43.95236" lon="7.36276">
        <ele>1460</ele>
        <time>2013-06-20T11:49:28Z</time>
      </trkpt>
      <trkpt lat="43.95237" lon="7.36269">
        <ele>1459</ele>
        <time>2013-06-20T11:49:33Z</time>
      </trkpt>
      <trkpt lat="43.95235" lon="7.36265">
        <ele>1457</ele>
        <time>2013-06-20T11:49:43Z</time>
      </trkpt>
      <trkpt lat="43.95233" lon="7.36257">
        <ele>1456</ele>
        <time>2013-06-20T11:49:55Z</time>
      </trkpt>
      <trkpt lat="43.95232" lon="7.36249">
        <ele>1456</ele>
        <time>2013-06-20T11:50:00Z</time>
      </trkpt>
      <trkpt lat="43.95231" lon="7.36243">
        <ele>1455</ele>
        <time>2013-06-20T11:50:07Z</time>
      </trkpt>
      <trkpt lat="43.95232" lon="7.36239">
        <ele>1455</ele>
        <time>2013-06-20T11:50:13Z</time>
      </trkpt>
      <trkpt lat="43.95232" lon="7.36231">
        <ele>1453</ele>
        <time>2013-06-20T11:50:50Z</time>
      </trkpt>
      <trkpt lat="43.95231" lon="7.36223">
        <ele>1451</ele>
        <time>2013-06-20T11:50:52Z</time>
      </trkpt>
      <trkpt lat="43.95231" lon="7.36215">
        <ele>1449</ele>
        <time>2013-06-20T11:50:56Z</time>
      </trkpt>
      <trkpt lat="43.95233" lon="7.36208">
        <ele>1448</ele>
        <time>2013-06-20T11:51:01Z</time>
      </trkpt>
      <trkpt lat="43.95235" lon="7.36202">
        <ele>1447</ele>
        <time>2013-06-20T11:51:05Z</time>
      </trkpt>
      <trkpt lat="43.95234" lon="7.36195">
        <ele>1443</ele>
        <time>2013-06-20T11:51:09Z</time>
      </trkpt>
      <trkpt lat="43.95237" lon="7.36189">
        <ele>1441</ele>
        <time>2013-06-20T11:51:14Z</time>
      </trkpt>
      <trkpt lat="43.95239" lon="7.36183">
        <ele>1439</ele>
        <time>2013-06-20T11:51:19Z</time>
      </trkpt>
      <trkpt lat="43.9524" lon="7.36175">
        <ele>1439</ele>
        <time>2013-06-20T11:51:23Z</time>
      </trkpt>
      <trkpt lat="43.95244" lon="7.3617">
        <ele>1438</ele>
        <time>2013-06-20T11:51:27Z</time>
      </trkpt>
      <trkpt lat="43.95247" lon="7.36165">
        <ele>1437</ele>
        <time>2013-06-20T11:51:32Z</time>
      </trkpt>
      <trkpt lat="43.95247" lon="7.36159">
        <ele>1435</ele>
        <time>2013-06-20T11:51:40Z</time>
      </trkpt>
      <trkpt lat="43.95246" lon="7.36152">
        <ele>1434</ele>
        <time>2013-06-20T11:51:43Z</time>
      </trkpt>
      <trkpt lat="43.95246" lon="7.36145">
        <ele>1434</ele>
        <time>2013-06-20T11:51:46Z</time>
      </trkpt>
      <trkpt lat="43.95247" lon="7.36138">
        <ele>1434</ele>
        <time>2013-06-20T11:51:49Z</time>
      </trkpt>
      <trkpt lat="43.95245" lon="7.36131">
        <ele>1433</ele>
        <time>2013-06-20T11:51:56Z</time>
      </trkpt>
      <trkpt lat="43.95245" lon="7.36123">
        <ele>1433</ele>
        <time>2013-06-20T11:52:01Z</time>
      </trkpt>
      <trkpt lat="43.95247" lon="7.36117">
        <ele>1431</ele>
        <time>2013-06-20T11:52:09Z</time>
      </trkpt>
      <trkpt lat="43.95251" lon="7.3611">
        <ele>1429</ele>
        <time>2013-06-20T11:52:14Z</time>
      </trkpt>
      <trkpt lat="43.95252" lon="7.36104">
        <ele>1429</ele>
        <time>2013-06-20T11:52:18Z</time>
      </trkpt>
      <trkpt lat="43.95254" lon="7.36097">
        <ele>1428</ele>
        <time>2013-06-20T11:52:23Z</time>
      </trkpt>
      <trkpt lat="43.95254" lon="7.3609">
        <ele>1427</ele>
        <time>2013-06-20T11:52:30Z</time>
      </trkpt>
      <trkpt lat="43.95255" lon="7.36084">
        <ele>1427</ele>
        <time>2013-06-20T11:52:37Z</time>
      </trkpt>
      <trkpt lat="43.95256" lon="7.36077">
        <ele>1427</ele>
        <time>2013-06-20T11:52:44Z</time>
      </trkpt>
      <trkpt lat="43.95261" lon="7.36073">
        <ele>1427</ele>
        <time>2013-06-20T11:52:49Z</time>
      </trkpt>
      <trkpt lat="43.95262" lon="7.36066">
        <ele>1426</ele>
        <time>2013-06-20T11:52:52Z</time>
      </trkpt>
      <trkpt lat="43.95259" lon="7.36061">
        <ele>1426</ele>
        <time>2013-06-20T11:52:55Z</time>
      </trkpt>
      <trkpt lat="43.95254" lon="7.36057">
        <ele>1425</ele>
        <time>2013-06-20T11:52:59Z</time>
      </trkpt>
      <trkpt lat="43.9525" lon="7.36054">
        <ele>1425</ele>
        <time>2013-06-20T11:53:05Z</time>
      </trkpt>
      <trkpt lat="43.95245" lon="7.36049">
        <ele>1423</ele>
        <time>2013-06-20T11:53:11Z</time>
      </trkpt>
      <trkpt lat="43.95241" lon="7.36047">
        <ele>1423</ele>
        <time>2013-06-20T11:53:14Z</time>
      </trkpt>
      <trkpt lat="43.95239" lon="7.36039">
        <ele>1424</ele>
        <time>2013-06-20T11:53:18Z</time>
      </trkpt>
      <trkpt lat="43.95237" lon="7.36038">
        <ele>1425</ele>
        <time>2013-06-20T11:53:29Z</time>
      </trkpt>
      <trkpt lat="43.95232" lon="7.36038">
        <ele>1423</ele>
        <time>2013-06-20T11:53:33Z</time>
      </trkpt>
      <trkpt lat="43.95232" lon="7.36037">
        <ele>1415</ele>
        <time>2013-06-20T11:53:46Z</time>
      </trkpt>
      <trkpt lat="43.95234" lon="7.3603">
        <ele>1413</ele>
        <time>2013-06-20T11:53:59Z</time>
      </trkpt>
      <trkpt lat="43.95238" lon="7.36023">
        <ele>1415</ele>
        <time>2013-06-20T11:54:03Z</time>
      </trkpt>
      <trkpt lat="43.9524" lon="7.36017">
        <ele>1416</ele>
        <time>2013-06-20T11:54:07Z</time>
      </trkpt>
      <trkpt lat="43.95239" lon="7.3601">
        <ele>1415</ele>
        <time>2013-06-20T11:54:10Z</time>
      </trkpt>
      <trkpt lat="43.95237" lon="7.36004">
        <ele>1413</ele>
        <time>2013-06-20T11:54:14Z</time>
      </trkpt>
      <trkpt lat="43.95234" lon="7.35999">
        <ele>1411</ele>
        <time>2013-06-20T11:54:19Z</time>
      </trkpt>
      <trkpt lat="43.95229" lon="7.35995">
        <ele>1410</ele>
        <time>2013-06-20T11:54:26Z</time>
      </trkpt>
      <trkpt lat="43.95226" lon="7.3599">
        <ele>1408</ele>
        <time>2013-06-20T11:54:30Z</time>
      </trkpt>
      <trkpt lat="43.95225" lon="7.35984">
        <ele>1408</ele>
        <time>2013-06-20T11:54:33Z</time>
      </trkpt>
      <trkpt lat="43.95227" lon="7.35976">
        <ele>1407</ele>
        <time>2013-06-20T11:54:36Z</time>
      </trkpt>
      <trkpt lat="43.95229" lon="7.35968">
        <ele>1407</ele>
        <time>2013-06-20T11:54:40Z</time>
      </trkpt>
      <trkpt lat="43.95229" lon="7.35961">
        <ele>1407</ele>
        <time>2013-06-20T11:54:46Z</time>
      </trkpt>
      <trkpt lat="43.95229" lon="7.35957">
        <ele>1408</ele>
        <time>2013-06-20T11:54:52Z</time>
      </trkpt>
      <trkpt lat="43.95227" lon="7.35951">
        <ele>1407</ele>
        <time>2013-06-20T11:55:12Z</time>
      </trkpt>
      <trkpt lat="43.95224" lon="7.35945">
        <ele>1406</ele>
        <time>2013-06-20T11:55:17Z</time>
      </trkpt>
      <trkpt lat="43.95222" lon="7.35939">
        <ele>1405</ele>
        <time>2013-06-20T11:55:21Z</time>
      </trkpt>
      <trkpt lat="43.95224" lon="7.35933">
        <ele>1404</ele>
        <time>2013-06-20T11:55:26Z</time>
      </trkpt>
      <trkpt lat="43.95229" lon="7.3593">
        <ele>1403</ele>
        <time>2013-06-20T11:55:30Z</time>
      </trkpt>
      <trkpt lat="43.95234" lon="7.35927">
        <ele>1401</ele>
        <time>2013-06-20T11:55:35Z</time>
      </trkpt>
      <trkpt lat="43.95238" lon="7.35926">
        <ele>1400</ele>
        <time>2013-06-20T11:55:40Z</time>
      </trkpt>
      <trkpt lat="43.95241" lon="7.35926">
        <ele>1397</ele>
        <time>2013-06-20T11:56:00Z</time>
      </trkpt>
      <trkpt lat="43.95241" lon="7.35933">
        <ele>1395</ele>
        <time>2013-06-20T11:56:19Z</time>
      </trkpt>
      <trkpt lat="43.95242" lon="7.35941">
        <ele>1392</ele>
        <time>2013-06-20T11:56:24Z</time>
      </trkpt>
      <trkpt lat="43.95245" lon="7.35948">
        <ele>1390</ele>
        <time>2013-06-20T11:56:28Z</time>
      </trkpt>
      <trkpt lat="43.95247" lon="7.35953">
        <ele>1387</ele>
        <time>2013-06-20T11:56:32Z</time>
      </trkpt>
      <trkpt lat="43.9525" lon="7.35959">
        <ele>1387</ele>
        <time>2013-06-20T11:56:38Z</time>
      </trkpt>
      <trkpt lat="43.95254" lon="7.35964">
        <ele>1386</ele>
        <time>2013-06-20T11:56:44Z</time>
      </trkpt>
      <trkpt lat="43.95257" lon="7.35968">
        <ele>1386</ele>
        <time>2013-06-20T11:56:51Z</time>
      </trkpt>
      <trkpt lat="43.95263" lon="7.35968">
        <ele>1387</ele>
        <time>2013-06-20T11:56:59Z</time>
      </trkpt>
      <trkpt lat="43.95267" lon="7.35972">
        <ele>1386</ele>
        <time>2013-06-20T11:57:05Z</time>
      </trkpt>
      <trkpt lat="43.95271" lon="7.35976">
        <ele>1385</ele>
        <time>2013-06-20T11:57:12Z</time>
      </trkpt>
      <trkpt lat="43.95276" lon="7.35978">
        <ele>1384</ele>
        <time>2013-06-20T11:57:16Z</time>
      </trkpt>
      <trkpt lat="43.9528" lon="7.3598">
        <ele>1384</ele>
        <time>2013-06-20T11:57:19Z</time>
      </trkpt>
      <trkpt lat="43.95286" lon="7.35981">
        <ele>1383</ele>
        <time>2013-06-20T11:57:23Z</time>
      </trkpt>
      <trkpt lat="43.95291" lon="7.35983">
        <ele>1383</ele>
        <time>2013-06-20T11:57:29Z</time>
      </trkpt>
      <trkpt lat="43.95295" lon="7.3599">
        <ele>1381</ele>
        <time>2013-06-20T11:57:33Z</time>
      </trkpt>
      <trkpt lat="43.95298" lon="7.35995">
        <ele>1380</ele>
        <time>2013-06-20T11:57:40Z</time>
      </trkpt>
      <trkpt lat="43.95302" lon="7.35999">
        <ele>1379</ele>
        <time>2013-06-20T11:57:45Z</time>
      </trkpt>
      <trkpt lat="43.95306" lon="7.36002">
        <ele>1378</ele>
        <time>2013-06-20T11:57:52Z</time>
      </trkpt>
      <trkpt lat="43.9531" lon="7.36007">
        <ele>1376</ele>
        <time>2013-06-20T11:57:56Z</time>
      </trkpt>
      <trkpt lat="43.95311" lon="7.36014">
        <ele>1374</ele>
        <time>2013-06-20T11:58:00Z</time>
      </trkpt>
      <trkpt lat="43.95315" lon="7.36018">
        <ele>1373</ele>
        <time>2013-06-20T11:58:05Z</time>
      </trkpt>
      <trkpt lat="43.9532" lon="7.36019">
        <ele>1372</ele>
        <time>2013-06-20T11:58:09Z</time>
      </trkpt>
      <trkpt lat="43.95325" lon="7.36019">
        <ele>1371</ele>
        <time>2013-06-20T11:58:13Z</time>
      </trkpt>
      <trkpt lat="43.95329" lon="7.36021">
        <ele>1370</ele>
        <time>2013-06-20T11:58:18Z</time>
      </trkpt>
      <trkpt lat="43.95333" lon="7.36024">
        <ele>1369</ele>
        <time>2013-06-20T11:58:28Z</time>
      </trkpt>
      <trkpt lat="43.95337" lon="7.36023">
        <ele>1368</ele>
        <time>2013-06-20T11:58:37Z</time>
      </trkpt>
      <trkpt lat="43.95343" lon="7.36023">
        <ele>1365</ele>
        <time>2013-06-20T11:59:05Z</time>
      </trkpt>
      <trkpt lat="43.95349" lon="7.36023">
        <ele>1364</ele>
        <time>2013-06-20T11:59:08Z</time>
      </trkpt>
      <trkpt lat="43.95353" lon="7.36025">
        <ele>1360</ele>
        <time>2013-06-20T11:59:14Z</time>
      </trkpt>
      <trkpt lat="43.95355" lon="7.36025">
        <ele>1357</ele>
        <time>2013-06-20T11:59:25Z</time>
      </trkpt>
      <trkpt lat="43.9536" lon="7.3603">
        <ele>1353</ele>
        <time>2013-06-20T11:59:49Z</time>
      </trkpt>
      <trkpt lat="43.95365" lon="7.36031">
        <ele>1352</ele>
        <time>2013-06-20T11:59:53Z</time>
      </trkpt>
      <trkpt lat="43.9537" lon="7.36029">
        <ele>1349</ele>
        <time>2013-06-20T11:59:57Z</time>
      </trkpt>
      <trkpt lat="43.95375" lon="7.36027">
        <ele>1351</ele>
        <time>2013-06-20T12:01:07Z</time>
      </trkpt>
      <trkpt lat="43.95374" lon="7.36022">
        <ele>1352</ele>
        <time>2013-06-20T12:01:26Z</time>
      </trkpt>
      <trkpt lat="43.95377" lon="7.36017">
        <ele>1352</ele>
        <time>2013-06-20T12:02:26Z</time>
      </trkpt>
      <trkpt lat="43.95377" lon="7.3601">
        <ele>1352</ele>
        <time>2013-06-20T12:05:12Z</time>
      </trkpt>
      <trkpt lat="43.95378" lon="7.36003">
        <ele>1351</ele>
        <time>2013-06-20T12:05:15Z</time>
      </trkpt>
      <trkpt lat="43.95374" lon="7.36">
        <ele>1350</ele>
        <time>2013-06-20T12:05:20Z</time>
      </trkpt>
      <trkpt lat="43.95376" lon="7.36">
        <ele>1346</ele>
        <time>2013-06-20T12:05:52Z</time>
      </trkpt>
      <trkpt lat="43.95381" lon="7.35998">
        <ele>1345</ele>
        <time>2013-06-20T12:05:58Z</time>
      </trkpt>
      <trkpt lat="43.95386" lon="7.35998">
        <ele>1345</ele>
        <time>2013-06-20T12:06:04Z</time>
      </trkpt>
      <trkpt lat="43.9539" lon="7.36">
        <ele>1344</ele>
        <time>2013-06-20T12:06:09Z</time>
      </trkpt>
      <trkpt lat="43.95396" lon="7.36">
        <ele>1344</ele>
        <time>2013-06-20T12:06:14Z</time>
      </trkpt>
      <trkpt lat="43.954" lon="7.36004">
        <ele>1344</ele>
        <time>2013-06-20T12:06:20Z</time>
      </trkpt>
      <trkpt lat="43.95404" lon="7.36003">
        <ele>1343</ele>
        <time>2013-06-20T12:06:26Z</time>
      </trkpt>
      <trkpt lat="43.95407" lon="7.36003">
        <ele>1342</ele>
        <time>2013-06-20T12:06:33Z</time>
      </trkpt>
      <trkpt lat="43.95412" lon="7.36005">
        <ele>1341</ele>
        <time>2013-06-20T12:06:38Z</time>
      </trkpt>
      <trkpt lat="43.95417" lon="7.36003">
        <ele>1340</ele>
        <time>2013-06-20T12:06:45Z</time>
      </trkpt>
      <trkpt lat="43.95419" lon="7.3601">
        <ele>1339</ele>
        <time>2013-06-20T12:06:50Z</time>
      </trkpt>
      <trkpt lat="43.95419" lon="7.36017">
        <ele>1337</ele>
        <time>2013-06-20T12:06:53Z</time>
      </trkpt>
      <trkpt lat="43.95423" lon="7.36021">
        <ele>1336</ele>
        <time>2013-06-20T12:06:56Z</time>
      </trkpt>
      <trkpt lat="43.95428" lon="7.36019">
        <ele>1335</ele>
        <time>2013-06-20T12:07:00Z</time>
      </trkpt>
      <trkpt lat="43.95432" lon="7.36014">
        <ele>1335</ele>
        <time>2013-06-20T12:07:03Z</time>
      </trkpt>
      <trkpt lat="43.95437" lon="7.36016">
        <ele>1332</ele>
        <time>2013-06-20T12:07:09Z</time>
      </trkpt>
      <trkpt lat="43.95439" lon="7.36009">
        <ele>1332</ele>
        <time>2013-06-20T12:07:13Z</time>
      </trkpt>
      <trkpt lat="43.95444" lon="7.36008">
        <ele>1331</ele>
        <time>2013-06-20T12:07:23Z</time>
      </trkpt>
      <trkpt lat="43.95449" lon="7.36006">
        <ele>1330</ele>
        <time>2013-06-20T12:07:28Z</time>
      </trkpt>
      <trkpt lat="43.95452" lon="7.35999">
        <ele>1329</ele>
        <time>2013-06-20T12:07:30Z</time>
      </trkpt>
      <trkpt lat="43.95457" lon="7.36002">
        <ele>1327</ele>
        <time>2013-06-20T12:08:12Z</time>
      </trkpt>
      <trkpt lat="43.95463" lon="7.36003">
        <ele>1325</ele>
        <time>2013-06-20T12:08:14Z</time>
      </trkpt>
      <trkpt lat="43.95469" lon="7.36001">
        <ele>1325</ele>
        <time>2013-06-20T12:08:16Z</time>
      </trkpt>
      <trkpt lat="43.95474" lon="7.35999">
        <ele>1323</ele>
        <time>2013-06-20T12:08:22Z</time>
      </trkpt>
      <trkpt lat="43.95477" lon="7.35998">
        <ele>1322</ele>
        <time>2013-06-20T12:08:29Z</time>
      </trkpt>
      <trkpt lat="43.95482" lon="7.35996">
        <ele>1320</ele>
        <time>2013-06-20T12:08:52Z</time>
      </trkpt>
      <trkpt lat="43.95487" lon="7.35993">
        <ele>1319</ele>
        <time>2013-06-20T12:08:55Z</time>
      </trkpt>
      <trkpt lat="43.95491" lon="7.35988">
        <ele>1318</ele>
        <time>2013-06-20T12:08:58Z</time>
      </trkpt>
      <trkpt lat="43.9549" lon="7.35983">
        <ele>1315</ele>
        <time>2013-06-20T12:09:48Z</time>
      </trkpt>
      <trkpt lat="43.95487" lon="7.35977">
        <ele>1315</ele>
        <time>2013-06-20T12:09:53Z</time>
      </trkpt>
      <trkpt lat="43.95484" lon="7.35971">
        <ele>1315</ele>
        <time>2013-06-20T12:09:58Z</time>
      </trkpt>
      <trkpt lat="43.95479" lon="7.35967">
        <ele>1315</ele>
        <time>2013-06-20T12:10:02Z</time>
      </trkpt>
      <trkpt lat="43.95475" lon="7.35962">
        <ele>1315</ele>
        <time>2013-06-20T12:10:06Z</time>
      </trkpt>
      <trkpt lat="43.95473" lon="7.35957">
        <ele>1316</ele>
        <time>2013-06-20T12:10:11Z</time>
      </trkpt>
      <trkpt lat="43.95468" lon="7.35952">
        <ele>1315</ele>
        <time>2013-06-20T12:10:16Z</time>
      </trkpt>
      <trkpt lat="43.95463" lon="7.35948">
        <ele>1314</ele>
        <time>2013-06-20T12:10:20Z</time>
      </trkpt>
      <trkpt lat="43.95466" lon="7.35948">
        <ele>1308</ele>
        <time>2013-06-20T12:10:42Z</time>
      </trkpt>
      <trkpt lat="43.95471" lon="7.35948">
        <ele>1307</ele>
        <time>2013-06-20T12:10:50Z</time>
      </trkpt>
      <trkpt lat="43.95475" lon="7.35955">
        <ele>1306</ele>
        <time>2013-06-20T12:11:14Z</time>
      </trkpt>
      <trkpt lat="43.9548" lon="7.35958">
        <ele>1304</ele>
        <time>2013-06-20T12:11:17Z</time>
      </trkpt>
      <trkpt lat="43.95486" lon="7.35959">
        <ele>1302</ele>
        <time>2013-06-20T12:11:20Z</time>
      </trkpt>
      <trkpt lat="43.95491" lon="7.35958">
        <ele>1301</ele>
        <time>2013-06-20T12:11:23Z</time>
      </trkpt>
      <trkpt lat="43.95496" lon="7.35958">
        <ele>1301</ele>
        <time>2013-06-20T12:11:26Z</time>
      </trkpt>
      <trkpt lat="43.95501" lon="7.35957">
        <ele>1301</ele>
        <time>2013-06-20T12:11:28Z</time>
      </trkpt>
      <trkpt lat="43.95506" lon="7.35956">
        <ele>1301</ele>
        <time>2013-06-20T12:11:30Z</time>
      </trkpt>
      <trkpt lat="43.95511" lon="7.35958">
        <ele>1300</ele>
        <time>2013-06-20T12:11:33Z</time>
      </trkpt>
      <trkpt lat="43.95515" lon="7.35961">
        <ele>1300</ele>
        <time>2013-06-20T12:11:38Z</time>
      </trkpt>
      <trkpt lat="43.95519" lon="7.35958">
        <ele>1301</ele>
        <time>2013-06-20T12:11:42Z</time>
      </trkpt>
      <trkpt lat="43.95523" lon="7.35953">
        <ele>1301</ele>
        <time>2013-06-20T12:11:46Z</time>
      </trkpt>
      <trkpt lat="43.95526" lon="7.35952">
        <ele>1299</ele>
        <time>2013-06-20T12:11:53Z</time>
      </trkpt>
      <trkpt lat="43.95527" lon="7.35958">
        <ele>1297</ele>
        <time>2013-06-20T12:11:57Z</time>
      </trkpt>
      <trkpt lat="43.95523" lon="7.35957">
        <ele>1295</ele>
        <time>2013-06-20T12:12:08Z</time>
      </trkpt>
      <trkpt lat="43.95523" lon="7.35952">
        <ele>1294</ele>
        <time>2013-06-20T12:12:25Z</time>
      </trkpt>
      <trkpt lat="43.95519" lon="7.35948">
        <ele>1293</ele>
        <time>2013-06-20T12:12:35Z</time>
      </trkpt>
      <trkpt lat="43.95522" lon="7.35942">
        <ele>1293</ele>
        <time>2013-06-20T12:13:38Z</time>
      </trkpt>
      <trkpt lat="43.95529" lon="7.35944">
        <ele>1293</ele>
        <time>2013-06-20T12:13:44Z</time>
      </trkpt>
      <trkpt lat="43.95544" lon="7.3595">
        <ele>1284</ele>
        <time>2013-06-20T12:13:54Z</time>
      </trkpt>
      <trkpt lat="43.95549" lon="7.35945">
        <ele>1283</ele>
        <time>2013-06-20T12:13:58Z</time>
      </trkpt>
      <trkpt lat="43.95549" lon="7.35937">
        <ele>1282</ele>
        <time>2013-06-20T12:14:02Z</time>
      </trkpt>
      <trkpt lat="43.95552" lon="7.35934">
        <ele>1281</ele>
        <time>2013-06-20T12:14:13Z</time>
      </trkpt>
      <trkpt lat="43.95557" lon="7.35936">
        <ele>1280</ele>
        <time>2013-06-20T12:14:17Z</time>
      </trkpt>
      <trkpt lat="43.9556" lon="7.35935">
        <ele>1279</ele>
        <time>2013-06-20T12:14:25Z</time>
      </trkpt>
      <trkpt lat="43.95557" lon="7.35929">
        <ele>1277</ele>
        <time>2013-06-20T12:14:34Z</time>
      </trkpt>
      <trkpt lat="43.95555" lon="7.35921">
        <ele>1276</ele>
        <time>2013-06-20T12:14:37Z</time>
      </trkpt>
      <trkpt lat="43.95551" lon="7.35917">
        <ele>1276</ele>
        <time>2013-06-20T12:14:40Z</time>
      </trkpt>
      <trkpt lat="43.95549" lon="7.35919">
        <ele>1273</ele>
        <time>2013-06-20T12:14:58Z</time>
      </trkpt>
      <trkpt lat="43.95544" lon="7.35915">
        <ele>1272</ele>
        <time>2013-06-20T12:15:16Z</time>
      </trkpt>
      <trkpt lat="43.9554" lon="7.35913">
        <ele>1271</ele>
        <time>2013-06-20T12:15:21Z</time>
      </trkpt>
      <trkpt lat="43.95545" lon="7.35909">
        <ele>1270</ele>
        <time>2013-06-20T12:15:32Z</time>
      </trkpt>
      <trkpt lat="43.95539" lon="7.35902">
        <ele>1270</ele>
        <time>2013-06-20T12:16:00Z</time>
      </trkpt>
      <trkpt lat="43.95536" lon="7.35896">
        <ele>1271</ele>
        <time>2013-06-20T12:16:05Z</time>
      </trkpt>
      <trkpt lat="43.9553" lon="7.35898">
        <ele>1270</ele>
        <time>2013-06-20T12:16:11Z</time>
      </trkpt>
      <trkpt lat="43.95525" lon="7.35901">
        <ele>1269</ele>
        <time>2013-06-20T12:16:15Z</time>
      </trkpt>
      <trkpt lat="43.95522" lon="7.35895">
        <ele>1268</ele>
        <time>2013-06-20T12:16:20Z</time>
      </trkpt>
      <trkpt lat="43.95519" lon="7.3589">
        <ele>1269</ele>
        <time>2013-06-20T12:16:25Z</time>
      </trkpt>
      <trkpt lat="43.95516" lon="7.35884">
        <ele>1269</ele>
        <time>2013-06-20T12:16:28Z</time>
      </trkpt>
      <trkpt lat="43.95513" lon="7.35878">
        <ele>1269</ele>
        <time>2013-06-20T12:16:33Z</time>
      </trkpt>
      <trkpt lat="43.9551" lon="7.35872">
        <ele>1269</ele>
        <time>2013-06-20T12:16:39Z</time>
      </trkpt>
      <trkpt lat="43.9551" lon="7.35864">
        <ele>1269</ele>
        <time>2013-06-20T12:16:53Z</time>
      </trkpt>
      <trkpt lat="43.95505" lon="7.3586">
        <ele>1269</ele>
        <time>2013-06-20T12:16:57Z</time>
      </trkpt>
      <trkpt lat="43.95501" lon="7.35859">
        <ele>1266</ele>
        <time>2013-06-20T12:17:03Z</time>
      </trkpt>
      <trkpt lat="43.95497" lon="7.35852">
        <ele>1262</ele>
        <time>2013-06-20T12:17:16Z</time>
      </trkpt>
      <trkpt lat="43.95493" lon="7.35848">
        <ele>1261</ele>
        <time>2013-06-20T12:17:21Z</time>
      </trkpt>
      <trkpt lat="43.95488" lon="7.35847">
        <ele>1259</ele>
        <time>2013-06-20T12:17:27Z</time>
      </trkpt>
      <trkpt lat="43.95485" lon="7.35843">
        <ele>1256</ele>
        <time>2013-06-20T12:17:33Z</time>
      </trkpt>
      <trkpt lat="43.9548" lon="7.3584">
        <ele>1255</ele>
        <time>2013-06-20T12:17:38Z</time>
      </trkpt>
      <trkpt lat="43.95477" lon="7.35837">
        <ele>1254</ele>
        <time>2013-06-20T12:17:47Z</time>
      </trkpt>
      <trkpt lat="43.95482" lon="7.35833">
        <ele>1253</ele>
        <time>2013-06-20T12:18:17Z</time>
      </trkpt>
      <trkpt lat="43.95488" lon="7.35834">
        <ele>1253</ele>
        <time>2013-06-20T12:18:21Z</time>
      </trkpt>
      <trkpt lat="43.95493" lon="7.35832">
        <ele>1252</ele>
        <time>2013-06-20T12:18:23Z</time>
      </trkpt>
      <trkpt lat="43.95497" lon="7.35827">
        <ele>1252</ele>
        <time>2013-06-20T12:18:25Z</time>
      </trkpt>
      <trkpt lat="43.95499" lon="7.3582">
        <ele>1251</ele>
        <time>2013-06-20T12:18:28Z</time>
      </trkpt>
      <trkpt lat="43.95494" lon="7.35812">
        <ele>1246</ele>
        <time>2013-06-20T12:18:40Z</time>
      </trkpt>
      <trkpt lat="43.95498" lon="7.35814">
        <ele>1245</ele>
        <time>2013-06-20T12:19:05Z</time>
      </trkpt>
      <trkpt lat="43.95499" lon="7.35834">
        <ele>1236</ele>
        <time>2013-06-20T12:19:15Z</time>
      </trkpt>
      <trkpt lat="43.95504" lon="7.35834">
        <ele>1237</ele>
        <time>2013-06-20T12:19:18Z</time>
      </trkpt>
      <trkpt lat="43.95508" lon="7.35833">
        <ele>1239</ele>
        <time>2013-06-20T12:19:27Z</time>
      </trkpt>
      <trkpt lat="43.95513" lon="7.35837">
        <ele>1238</ele>
        <time>2013-06-20T12:19:47Z</time>
      </trkpt>
      <trkpt lat="43.95518" lon="7.35837">
        <ele>1237</ele>
        <time>2013-06-20T12:19:50Z</time>
      </trkpt>
      <trkpt lat="43.95523" lon="7.35836">
        <ele>1237</ele>
        <time>2013-06-20T12:19:54Z</time>
      </trkpt>
      <trkpt lat="43.95523" lon="7.35837">
        <ele>1229</ele>
        <time>2013-06-20T12:20:25Z</time>
      </trkpt>
      <trkpt lat="43.95523" lon="7.35829">
        <ele>1227</ele>
        <time>2013-06-20T12:20:48Z</time>
      </trkpt>
      <trkpt lat="43.95523" lon="7.35822">
        <ele>1226</ele>
        <time>2013-06-20T12:20:53Z</time>
      </trkpt>
      <trkpt lat="43.9552" lon="7.35816">
        <ele>1225</ele>
        <time>2013-06-20T12:20:59Z</time>
      </trkpt>
      <trkpt lat="43.95521" lon="7.35811">
        <ele>1224</ele>
        <time>2013-06-20T12:21:11Z</time>
      </trkpt>
      <trkpt lat="43.95522" lon="7.35807">
        <ele>1222</ele>
        <time>2013-06-20T12:22:04Z</time>
      </trkpt>
      <trkpt lat="43.95525" lon="7.35803">
        <ele>1221</ele>
        <time>2013-06-20T12:22:26Z</time>
      </trkpt>
      <trkpt lat="43.95522" lon="7.35799">
        <ele>1220</ele>
        <time>2013-06-20T12:22:37Z</time>
      </trkpt>
      <trkpt lat="43.95518" lon="7.35798">
        <ele>1218</ele>
        <time>2013-06-20T12:23:34Z</time>
      </trkpt>
      <trkpt lat="43.95516" lon="7.35804">
        <ele>1219</ele>
        <time>2013-06-20T12:25:38Z</time>
      </trkpt>
      <trkpt lat="43.95517" lon="7.35808">
        <ele>1219</ele>
        <time>2013-06-20T12:25:51Z</time>
      </trkpt>
      <trkpt lat="43.95516" lon="7.35814">
        <ele>1217</ele>
        <time>2013-06-20T12:25:53Z</time>
      </trkpt>
      <trkpt lat="43.9552" lon="7.35819">
        <ele>1215</ele>
        <time>2013-06-20T12:25:58Z</time>
      </trkpt>
      <trkpt lat="43.95524" lon="7.35823">
        <ele>1214</ele>
        <time>2013-06-20T12:26:02Z</time>
      </trkpt>
      <trkpt lat="43.95528" lon="7.35825">
        <ele>1213</ele>
        <time>2013-06-20T12:26:23Z</time>
      </trkpt>
      <trkpt lat="43.95533" lon="7.35825">
        <ele>1212</ele>
        <time>2013-06-20T12:26:37Z</time>
      </trkpt>
      <trkpt lat="43.95537" lon="7.35821">
        <ele>1210</ele>
        <time>2013-06-20T12:26:42Z</time>
      </trkpt>
      <trkpt lat="43.95541" lon="7.35817">
        <ele>1210</ele>
        <time>2013-06-20T12:26:46Z</time>
      </trkpt>
      <trkpt lat="43.95546" lon="7.35815">
        <ele>1209</ele>
        <time>2013-06-20T12:26:50Z</time>
      </trkpt>
      <trkpt lat="43.95551" lon="7.35813">
        <ele>1208</ele>
        <time>2013-06-20T12:26:53Z</time>
      </trkpt>
      <trkpt lat="43.95555" lon="7.35806">
        <ele>1205</ele>
        <time>2013-06-20T12:27:07Z</time>
      </trkpt>
      <trkpt lat="43.95553" lon="7.358">
        <ele>1206</ele>
        <time>2013-06-20T12:27:24Z</time>
      </trkpt>
      <trkpt lat="43.95548" lon="7.35797">
        <ele>1206</ele>
        <time>2013-06-20T12:27:27Z</time>
      </trkpt>
      <trkpt lat="43.95539" lon="7.35793">
        <ele>1201</ele>
        <time>2013-06-20T12:27:36Z</time>
      </trkpt>
      <trkpt lat="43.95539" lon="7.35787">
        <ele>1198</ele>
        <time>2013-06-20T12:27:44Z</time>
      </trkpt>
      <trkpt lat="43.95541" lon="7.35781">
        <ele>1197</ele>
        <time>2013-06-20T12:27:49Z</time>
      </trkpt>
      <trkpt lat="43.95541" lon="7.35774">
        <ele>1197</ele>
        <time>2013-06-20T12:27:53Z</time>
      </trkpt>
      <trkpt lat="43.95536" lon="7.35769">
        <ele>1196</ele>
        <time>2013-06-20T12:27:56Z</time>
      </trkpt>
      <trkpt lat="43.95533" lon="7.35765">
        <ele>1196</ele>
        <time>2013-06-20T12:27:58Z</time>
      </trkpt>
      <trkpt lat="43.95529" lon="7.35761">
        <ele>1197</ele>
        <time>2013-06-20T12:28:00Z</time>
      </trkpt>
      <trkpt lat="43.95525" lon="7.35756">
        <ele>1197</ele>
        <time>2013-06-20T12:28:03Z</time>
      </trkpt>
      <trkpt lat="43.95526" lon="7.35758">
        <ele>1195</ele>
        <time>2013-06-20T12:28:17Z</time>
      </trkpt>
      <trkpt lat="43.95529" lon="7.35763">
        <ele>1194</ele>
        <time>2013-06-20T12:28:22Z</time>
      </trkpt>
      <trkpt lat="43.95529" lon="7.35769">
        <ele>1193</ele>
        <time>2013-06-20T12:28:30Z</time>
      </trkpt>
      <trkpt lat="43.95534" lon="7.35772">
        <ele>1193</ele>
        <time>2013-06-20T12:28:35Z</time>
      </trkpt>
      <trkpt lat="43.95538" lon="7.35773">
        <ele>1192</ele>
        <time>2013-06-20T12:28:38Z</time>
      </trkpt>
      <trkpt lat="43.95541" lon="7.35775">
        <ele>1192</ele>
        <time>2013-06-20T12:28:45Z</time>
      </trkpt>
      <trkpt lat="43.95546" lon="7.35772">
        <ele>1191</ele>
        <time>2013-06-20T12:28:52Z</time>
      </trkpt>
      <trkpt lat="43.95552" lon="7.35773">
        <ele>1190</ele>
        <time>2013-06-20T12:28:56Z</time>
      </trkpt>
      <trkpt lat="43.95556" lon="7.35778">
        <ele>1190</ele>
        <time>2013-06-20T12:29:05Z</time>
      </trkpt>
      <trkpt lat="43.95561" lon="7.35777">
        <ele>1189</ele>
        <time>2013-06-20T12:29:09Z</time>
      </trkpt>
      <trkpt lat="43.95563" lon="7.35775">
        <ele>1187</ele>
        <time>2013-06-20T12:29:16Z</time>
      </trkpt>
      <trkpt lat="43.95565" lon="7.35781">
        <ele>1186</ele>
        <time>2013-06-20T12:29:27Z</time>
      </trkpt>
      <trkpt lat="43.9557" lon="7.35782">
        <ele>1185</ele>
        <time>2013-06-20T12:29:34Z</time>
      </trkpt>
      <trkpt lat="43.95574" lon="7.35784">
        <ele>1185</ele>
        <time>2013-06-20T12:29:36Z</time>
      </trkpt>
      <trkpt lat="43.9558" lon="7.35785">
        <ele>1184</ele>
        <time>2013-06-20T12:29:38Z</time>
      </trkpt>
      <trkpt lat="43.95585" lon="7.35786">
        <ele>1183</ele>
        <time>2013-06-20T12:29:40Z</time>
      </trkpt>
      <trkpt lat="43.95592" lon="7.35789">
        <ele>1183</ele>
        <time>2013-06-20T12:29:43Z</time>
      </trkpt>
      <trkpt lat="43.95596" lon="7.35791">
        <ele>1182</ele>
        <time>2013-06-20T12:29:45Z</time>
      </trkpt>
      <trkpt lat="43.95601" lon="7.35794">
        <ele>1181</ele>
        <time>2013-06-20T12:29:48Z</time>
      </trkpt>
      <trkpt lat="43.95607" lon="7.35798">
        <ele>1180</ele>
        <time>2013-06-20T12:29:51Z</time>
      </trkpt>
      <trkpt lat="43.95612" lon="7.358">
        <ele>1180</ele>
        <time>2013-06-20T12:29:53Z</time>
      </trkpt>
      <trkpt lat="43.95619" lon="7.35799">
        <ele>1179</ele>
        <time>2013-06-20T12:29:56Z</time>
      </trkpt>
      <trkpt lat="43.95624" lon="7.35796">
        <ele>1179</ele>
        <time>2013-06-20T12:29:59Z</time>
      </trkpt>
      <trkpt lat="43.95629" lon="7.35795">
        <ele>1179</ele>
        <time>2013-06-20T12:30:02Z</time>
      </trkpt>
      <trkpt lat="43.95634" lon="7.35794">
        <ele>1179</ele>
        <time>2013-06-20T12:30:05Z</time>
      </trkpt>
      <trkpt lat="43.95638" lon="7.35791">
        <ele>1179</ele>
        <time>2013-06-20T12:30:10Z</time>
      </trkpt>
      <trkpt lat="43.95644" lon="7.35791">
        <ele>1178</ele>
        <time>2013-06-20T12:30:15Z</time>
      </trkpt>
      <trkpt lat="43.95648" lon="7.35794">
        <ele>1177</ele>
        <time>2013-06-20T12:30:20Z</time>
      </trkpt>
      <trkpt lat="43.95653" lon="7.35795">
        <ele>1176</ele>
        <time>2013-06-20T12:30:26Z</time>
      </trkpt>
      <trkpt lat="43.95659" lon="7.35795">
        <ele>1175</ele>
        <time>2013-06-20T12:30:31Z</time>
      </trkpt>
      <trkpt lat="43.95664" lon="7.35794">
        <ele>1173</ele>
        <time>2013-06-20T12:30:35Z</time>
      </trkpt>
      <trkpt lat="43.95667" lon="7.35789">
        <ele>1172</ele>
        <time>2013-06-20T12:30:42Z</time>
      </trkpt>
      <trkpt lat="43.95669" lon="7.35785">
        <ele>1169</ele>
        <time>2013-06-20T12:31:13Z</time>
      </trkpt>
      <trkpt lat="43.95673" lon="7.35788">
        <ele>1168</ele>
        <time>2013-06-20T12:31:17Z</time>
      </trkpt>
      <trkpt lat="43.95677" lon="7.35791">
        <ele>1167</ele>
        <time>2013-06-20T12:31:24Z</time>
      </trkpt>
      <trkpt lat="43.95678" lon="7.35798">
        <ele>1166</ele>
        <time>2013-06-20T12:31:31Z</time>
      </trkpt>
      <trkpt lat="43.95681" lon="7.35803">
        <ele>1165</ele>
        <time>2013-06-20T12:31:36Z</time>
      </trkpt>
      <trkpt lat="43.95683" lon="7.35809">
        <ele>1164</ele>
        <time>2013-06-20T12:31:42Z</time>
      </trkpt>
      <trkpt lat="43.95685" lon="7.35817">
        <ele>1162</ele>
        <time>2013-06-20T12:31:47Z</time>
      </trkpt>
      <trkpt lat="43.95685" lon="7.35823">
        <ele>1161</ele>
        <time>2013-06-20T12:31:52Z</time>
      </trkpt>
      <trkpt lat="43.95688" lon="7.35828">
        <ele>1159</ele>
        <time>2013-06-20T12:31:58Z</time>
      </trkpt>
      <trkpt lat="43.95684" lon="7.35833">
        <ele>1159</ele>
        <time>2013-06-20T12:32:03Z</time>
      </trkpt>
      <trkpt lat="43.9568" lon="7.35837">
        <ele>1158</ele>
        <time>2013-06-20T12:32:06Z</time>
      </trkpt>
      <trkpt lat="43.95683" lon="7.35842">
        <ele>1157</ele>
        <time>2013-06-20T12:32:12Z</time>
      </trkpt>
      <trkpt lat="43.95687" lon="7.35846">
        <ele>1157</ele>
        <time>2013-06-20T12:32:14Z</time>
      </trkpt>
      <trkpt lat="43.95693" lon="7.35849">
        <ele>1155</ele>
        <time>2013-06-20T12:32:17Z</time>
      </trkpt>
      <trkpt lat="43.95698" lon="7.35846">
        <ele>1153</ele>
        <time>2013-06-20T12:32:20Z</time>
      </trkpt>
      <trkpt lat="43.95701" lon="7.35841">
        <ele>1152</ele>
        <time>2013-06-20T12:32:23Z</time>
      </trkpt>
      <trkpt lat="43.95705" lon="7.35836">
        <ele>1150</ele>
        <time>2013-06-20T12:32:27Z</time>
      </trkpt>
      <trkpt lat="43.95709" lon="7.35831">
        <ele>1149</ele>
        <time>2013-06-20T12:32:31Z</time>
      </trkpt>
      <trkpt lat="43.95706" lon="7.35825">
        <ele>1148</ele>
        <time>2013-06-20T12:32:35Z</time>
      </trkpt>
      <trkpt lat="43.95707" lon="7.35818">
        <ele>1147</ele>
        <time>2013-06-20T12:32:43Z</time>
      </trkpt>
      <trkpt lat="43.95712" lon="7.35817">
        <ele>1147</ele>
        <time>2013-06-20T12:32:49Z</time>
      </trkpt>
      <trkpt lat="43.95716" lon="7.35814">
        <ele>1146</ele>
        <time>2013-06-20T12:32:53Z</time>
      </trkpt>
      <trkpt lat="43.95721" lon="7.35811">
        <ele>1145</ele>
        <time>2013-06-20T12:32:56Z</time>
      </trkpt>
      <trkpt lat="43.95725" lon="7.35807">
        <ele>1144</ele>
        <time>2013-06-20T12:32:59Z</time>
      </trkpt>
      <trkpt lat="43.95727" lon="7.35801">
        <ele>1143</ele>
        <time>2013-06-20T12:33:04Z</time>
      </trkpt>
      <trkpt lat="43.95728" lon="7.35794">
        <ele>1143</ele>
        <time>2013-06-20T12:33:09Z</time>
      </trkpt>
      <trkpt lat="43.95729" lon="7.35786">
        <ele>1143</ele>
        <time>2013-06-20T12:33:13Z</time>
      </trkpt>
      <trkpt lat="43.95729" lon="7.35779">
        <ele>1143</ele>
        <time>2013-06-20T12:33:16Z</time>
      </trkpt>
      <trkpt lat="43.95729" lon="7.35772">
        <ele>1142</ele>
        <time>2013-06-20T12:33:21Z</time>
      </trkpt>
      <trkpt lat="43.9573" lon="7.35764">
        <ele>1140</ele>
        <time>2013-06-20T12:33:26Z</time>
      </trkpt>
      <trkpt lat="43.95729" lon="7.35757">
        <ele>1137</ele>
        <time>2013-06-20T12:33:30Z</time>
      </trkpt>
      <trkpt lat="43.95731" lon="7.3575">
        <ele>1135</ele>
        <time>2013-06-20T12:33:34Z</time>
      </trkpt>
      <trkpt lat="43.95731" lon="7.35744">
        <ele>1134</ele>
        <time>2013-06-20T12:33:37Z</time>
      </trkpt>
      <trkpt lat="43.95727" lon="7.35738">
        <ele>1131</ele>
        <time>2013-06-20T12:33:41Z</time>
      </trkpt>
      <trkpt lat="43.95726" lon="7.35743">
        <ele>1129</ele>
        <time>2013-06-20T12:34:18Z</time>
      </trkpt>
      <trkpt lat="43.95728" lon="7.35749">
        <ele>1129</ele>
        <time>2013-06-20T12:34:20Z</time>
      </trkpt>
      <trkpt lat="43.95731" lon="7.35756">
        <ele>1128</ele>
        <time>2013-06-20T12:34:22Z</time>
      </trkpt>
      <trkpt lat="43.95734" lon="7.35761">
        <ele>1127</ele>
        <time>2013-06-20T12:34:24Z</time>
      </trkpt>
      <trkpt lat="43.95738" lon="7.35769">
        <ele>1125</ele>
        <time>2013-06-20T12:34:27Z</time>
      </trkpt>
      <trkpt lat="43.9574" lon="7.35775">
        <ele>1124</ele>
        <time>2013-06-20T12:34:30Z</time>
      </trkpt>
      <trkpt lat="43.95744" lon="7.35781">
        <ele>1121</ele>
        <time>2013-06-20T12:34:35Z</time>
      </trkpt>
      <trkpt lat="43.95747" lon="7.35787">
        <ele>1120</ele>
        <time>2013-06-20T12:34:39Z</time>
      </trkpt>
      <trkpt lat="43.95749" lon="7.35793">
        <ele>1118</ele>
        <time>2013-06-20T12:34:44Z</time>
      </trkpt>
      <trkpt lat="43.95752" lon="7.35801">
        <ele>1117</ele>
        <time>2013-06-20T12:34:48Z</time>
      </trkpt>
      <trkpt lat="43.95755" lon="7.35806">
        <ele>1115</ele>
        <time>2013-06-20T12:34:51Z</time>
      </trkpt>
      <trkpt lat="43.95758" lon="7.35811">
        <ele>1114</ele>
        <time>2013-06-20T12:34:54Z</time>
      </trkpt>
      <trkpt lat="43.95759" lon="7.35818">
        <ele>1112</ele>
        <time>2013-06-20T12:34:59Z</time>
      </trkpt>
      <trkpt lat="43.95758" lon="7.35824">
        <ele>1110</ele>
        <time>2013-06-20T12:35:04Z</time>
      </trkpt>
      <trkpt lat="43.95763" lon="7.35824">
        <ele>1109</ele>
        <time>2013-06-20T12:35:10Z</time>
      </trkpt>
      <trkpt lat="43.95773" lon="7.35816">
        <ele>1104</ele>
        <time>2013-06-20T12:35:18Z</time>
      </trkpt>
      <trkpt lat="43.95776" lon="7.3581">
        <ele>1102</ele>
        <time>2013-06-20T12:35:22Z</time>
      </trkpt>
      <trkpt lat="43.95779" lon="7.35805">
        <ele>1100</ele>
        <time>2013-06-20T12:35:26Z</time>
      </trkpt>
      <trkpt lat="43.9578" lon="7.35799">
        <ele>1099</ele>
        <time>2013-06-20T12:35:34Z</time>
      </trkpt>
      <trkpt lat="43.95785" lon="7.35796">
        <ele>1100</ele>
        <time>2013-06-20T12:35:36Z</time>
      </trkpt>
      <trkpt lat="43.9579" lon="7.35794">
        <ele>1100</ele>
        <time>2013-06-20T12:35:39Z</time>
      </trkpt>
      <trkpt lat="43.95795" lon="7.3579">
        <ele>1098</ele>
        <time>2013-06-20T12:35:44Z</time>
      </trkpt>
      <trkpt lat="43.95793" lon="7.35783">
        <ele>1097</ele>
        <time>2013-06-20T12:35:49Z</time>
      </trkpt>
      <trkpt lat="43.95793" lon="7.35777">
        <ele>1096</ele>
        <time>2013-06-20T12:35:54Z</time>
      </trkpt>
      <trkpt lat="43.95796" lon="7.35771">
        <ele>1096</ele>
        <time>2013-06-20T12:35:57Z</time>
      </trkpt>
      <trkpt lat="43.95799" lon="7.35765">
        <ele>1095</ele>
        <time>2013-06-20T12:36:01Z</time>
      </trkpt>
      <trkpt lat="43.95799" lon="7.35757">
        <ele>1095</ele>
        <time>2013-06-20T12:36:06Z</time>
      </trkpt>
      <trkpt lat="43.95798" lon="7.35754">
        <ele>1092</ele>
        <time>2013-06-20T12:36:37Z</time>
      </trkpt>
      <trkpt lat="43.95792" lon="7.35756">
        <ele>1092</ele>
        <time>2013-06-20T12:36:41Z</time>
      </trkpt>
      <trkpt lat="43.95787" lon="7.35756">
        <ele>1090</ele>
        <time>2013-06-20T12:36:44Z</time>
      </trkpt>
      <trkpt lat="43.9578" lon="7.3575">
        <ele>1086</ele>
        <time>2013-06-20T12:36:58Z</time>
      </trkpt>
      <trkpt lat="43.95774" lon="7.35751">
        <ele>1085</ele>
        <time>2013-06-20T12:37:01Z</time>
      </trkpt>
      <trkpt lat="43.95771" lon="7.35748">
        <ele>1081</ele>
        <time>2013-06-20T12:37:26Z</time>
      </trkpt>
      <trkpt lat="43.9578" lon="7.35743">
        <ele>1080</ele>
        <time>2013-06-20T12:37:36Z</time>
      </trkpt>
      <trkpt lat="43.95789" lon="7.35737">
        <ele>1079</ele>
        <time>2013-06-20T12:37:43Z</time>
      </trkpt>
      <trkpt lat="43.9579" lon="7.35746">
        <ele>1077</ele>
        <time>2013-06-20T12:38:03Z</time>
      </trkpt>
      <trkpt lat="43.95781" lon="7.35751">
        <ele>1077</ele>
        <time>2013-06-20T12:38:11Z</time>
      </trkpt>
      <trkpt lat="43.95779" lon="7.35744">
        <ele>1076</ele>
        <time>2013-06-20T12:38:23Z</time>
      </trkpt>
      <trkpt lat="43.95774" lon="7.35745">
        <ele>1073</ele>
        <time>2013-06-20T12:38:30Z</time>
      </trkpt>
      <trkpt lat="43.9577" lon="7.35747">
        <ele>1072</ele>
        <time>2013-06-20T12:38:34Z</time>
      </trkpt>
      <trkpt lat="43.95768" lon="7.3574">
        <ele>1070</ele>
        <time>2013-06-20T12:39:04Z</time>
      </trkpt>
      <trkpt lat="43.95771" lon="7.35734">
        <ele>1070</ele>
        <time>2013-06-20T12:39:19Z</time>
      </trkpt>
      <trkpt lat="43.95777" lon="7.35729">
        <ele>1072</ele>
        <time>2013-06-20T12:39:22Z</time>
      </trkpt>
      <trkpt lat="43.9578" lon="7.35725">
        <ele>1074</ele>
        <time>2013-06-20T12:39:24Z</time>
      </trkpt>
      <trkpt lat="43.95784" lon="7.3572">
        <ele>1075</ele>
        <time>2013-06-20T12:39:27Z</time>
      </trkpt>
      <trkpt lat="43.95779" lon="7.35717">
        <ele>1076</ele>
        <time>2013-06-20T12:39:31Z</time>
      </trkpt>
      <trkpt lat="43.9578" lon="7.3571">
        <ele>1075</ele>
        <time>2013-06-20T12:39:35Z</time>
      </trkpt>
      <trkpt lat="43.95778" lon="7.35701">
        <ele>1073</ele>
        <time>2013-06-20T12:39:50Z</time>
      </trkpt>
      <trkpt lat="43.95776" lon="7.35695">
        <ele>1071</ele>
        <time>2013-06-20T12:39:55Z</time>
      </trkpt>
      <trkpt lat="43.95775" lon="7.35688">
        <ele>1069</ele>
        <time>2013-06-20T12:39:59Z</time>
      </trkpt>
      <trkpt lat="43.95774" lon="7.35681">
        <ele>1068</ele>
        <time>2013-06-20T12:40:03Z</time>
      </trkpt>
      <trkpt lat="43.95773" lon="7.35673">
        <ele>1066</ele>
        <time>2013-06-20T12:40:07Z</time>
      </trkpt>
      <trkpt lat="43.95773" lon="7.35666">
        <ele>1064</ele>
        <time>2013-06-20T12:40:10Z</time>
      </trkpt>
      <trkpt lat="43.95771" lon="7.35645">
        <ele>1055</ele>
        <time>2013-06-20T12:40:39Z</time>
      </trkpt>
      <trkpt lat="43.95768" lon="7.35641">
        <ele>1054</ele>
        <time>2013-06-20T12:40:42Z</time>
      </trkpt>
      <trkpt lat="43.95764" lon="7.35635">
        <ele>1053</ele>
        <time>2013-06-20T12:40:45Z</time>
      </trkpt>
      <trkpt lat="43.9576" lon="7.35632">
        <ele>1052</ele>
        <time>2013-06-20T12:40:48Z</time>
      </trkpt>
      <trkpt lat="43.95756" lon="7.35627">
        <ele>1050</ele>
        <time>2013-06-20T12:40:54Z</time>
      </trkpt>
      <trkpt lat="43.95753" lon="7.35621">
        <ele>1049</ele>
        <time>2013-06-20T12:40:59Z</time>
      </trkpt>
      <trkpt lat="43.95749" lon="7.35617">
        <ele>1049</ele>
        <time>2013-06-20T12:41:02Z</time>
      </trkpt>
      <trkpt lat="43.95754" lon="7.35609">
        <ele>1051</ele>
        <time>2013-06-20T12:41:24Z</time>
      </trkpt>
      <trkpt lat="43.9576" lon="7.35607">
        <ele>1052</ele>
        <time>2013-06-20T12:41:29Z</time>
      </trkpt>
      <trkpt lat="43.95767" lon="7.35601">
        <ele>1052</ele>
        <time>2013-06-20T12:41:38Z</time>
      </trkpt>
      <trkpt lat="43.95771" lon="7.35596">
        <ele>1053</ele>
        <time>2013-06-20T12:41:41Z</time>
      </trkpt>
      <trkpt lat="43.95775" lon="7.35593">
        <ele>1054</ele>
        <time>2013-06-20T12:41:44Z</time>
      </trkpt>
      <trkpt lat="43.95777" lon="7.35586">
        <ele>1053</ele>
        <time>2013-06-20T12:41:48Z</time>
      </trkpt>
      <trkpt lat="43.95779" lon="7.3558">
        <ele>1051</ele>
        <time>2013-06-20T12:41:52Z</time>
      </trkpt>
      <trkpt lat="43.95782" lon="7.35573">
        <ele>1049</ele>
        <time>2013-06-20T12:41:56Z</time>
      </trkpt>
      <trkpt lat="43.95784" lon="7.35565">
        <ele>1047</ele>
        <time>2013-06-20T12:42:00Z</time>
      </trkpt>
      <trkpt lat="43.95784" lon="7.35558">
        <ele>1045</ele>
        <time>2013-06-20T12:42:03Z</time>
      </trkpt>
      <trkpt lat="43.95782" lon="7.35549">
        <ele>1045</ele>
        <time>2013-06-20T12:42:06Z</time>
      </trkpt>
      <trkpt lat="43.95781" lon="7.35543">
        <ele>1044</ele>
        <time>2013-06-20T12:42:08Z</time>
      </trkpt>
      <trkpt lat="43.95782" lon="7.35535">
        <ele>1043</ele>
        <time>2013-06-20T12:42:11Z</time>
      </trkpt>
      <trkpt lat="43.95786" lon="7.35529">
        <ele>1044</ele>
        <time>2013-06-20T12:42:14Z</time>
      </trkpt>
      <trkpt lat="43.95789" lon="7.35522">
        <ele>1044</ele>
        <time>2013-06-20T12:42:18Z</time>
      </trkpt>
      <trkpt lat="43.95788" lon="7.35514">
        <ele>1045</ele>
        <time>2013-06-20T12:42:22Z</time>
      </trkpt>
      <trkpt lat="43.95787" lon="7.35507">
        <ele>1047</ele>
        <time>2013-06-20T12:42:26Z</time>
      </trkpt>
      <trkpt lat="43.95788" lon="7.355">
        <ele>1048</ele>
        <time>2013-06-20T12:42:30Z</time>
      </trkpt>
      <trkpt lat="43.95787" lon="7.35493">
        <ele>1048</ele>
        <time>2013-06-20T12:42:36Z</time>
      </trkpt>
      <trkpt lat="43.95785" lon="7.35487">
        <ele>1046</ele>
        <time>2013-06-20T12:42:41Z</time>
      </trkpt>
      <trkpt lat="43.95784" lon="7.3548">
        <ele>1045</ele>
        <time>2013-06-20T12:42:44Z</time>
      </trkpt>
      <trkpt lat="43.9578" lon="7.35474">
        <ele>1043</ele>
        <time>2013-06-20T12:42:47Z</time>
      </trkpt>
      <trkpt lat="43.9578" lon="7.35468">
        <ele>1042</ele>
        <time>2013-06-20T12:42:51Z</time>
      </trkpt>
      <trkpt lat="43.9578" lon="7.3546">
        <ele>1041</ele>
        <time>2013-06-20T12:42:56Z</time>
      </trkpt>
      <trkpt lat="43.95778" lon="7.35453">
        <ele>1041</ele>
        <time>2013-06-20T12:43:00Z</time>
      </trkpt>
      <trkpt lat="43.95778" lon="7.35446">
        <ele>1040</ele>
        <time>2013-06-20T12:43:03Z</time>
      </trkpt>
      <trkpt lat="43.9578" lon="7.35439">
        <ele>1041</ele>
        <time>2013-06-20T12:43:06Z</time>
      </trkpt>
      <trkpt lat="43.95781" lon="7.35432">
        <ele>1041</ele>
        <time>2013-06-20T12:43:09Z</time>
      </trkpt>
      <trkpt lat="43.95781" lon="7.35424">
        <ele>1041</ele>
        <time>2013-06-20T12:43:12Z</time>
      </trkpt>
      <trkpt lat="43.95782" lon="7.35417">
        <ele>1042</ele>
        <time>2013-06-20T12:43:15Z</time>
      </trkpt>
      <trkpt lat="43.95783" lon="7.35409">
        <ele>1042</ele>
        <time>2013-06-20T12:43:19Z</time>
      </trkpt>
      <trkpt lat="43.95785" lon="7.35403">
        <ele>1042</ele>
        <time>2013-06-20T12:43:23Z</time>
      </trkpt>
      <trkpt lat="43.95784" lon="7.35396">
        <ele>1043</ele>
        <time>2013-06-20T12:43:27Z</time>
      </trkpt>
      <trkpt lat="43.95781" lon="7.35389">
        <ele>1043</ele>
        <time>2013-06-20T12:43:31Z</time>
      </trkpt>
      <trkpt lat="43.95779" lon="7.35382">
        <ele>1044</ele>
        <time>2013-06-20T12:43:35Z</time>
      </trkpt>
      <trkpt lat="43.95781" lon="7.35374">
        <ele>1044</ele>
        <time>2013-06-20T12:43:38Z</time>
      </trkpt>
      <trkpt lat="43.95777" lon="7.35367">
        <ele>1044</ele>
        <time>2013-06-20T12:43:41Z</time>
      </trkpt>
      <trkpt lat="43.95772" lon="7.35363">
        <ele>1044</ele>
        <time>2013-06-20T12:43:43Z</time>
      </trkpt>
      <trkpt lat="43.95769" lon="7.35359">
        <ele>1045</ele>
        <time>2013-06-20T12:43:45Z</time>
      </trkpt>
      <trkpt lat="43.95764" lon="7.35353">
        <ele>1045</ele>
        <time>2013-06-20T12:43:48Z</time>
      </trkpt>
      <trkpt lat="43.95759" lon="7.3535">
        <ele>1045</ele>
        <time>2013-06-20T12:43:50Z</time>
      </trkpt>
      <trkpt lat="43.95755" lon="7.35347">
        <ele>1045</ele>
        <time>2013-06-20T12:43:52Z</time>
      </trkpt>
      <trkpt lat="43.95752" lon="7.35341">
        <ele>1045</ele>
        <time>2013-06-20T12:43:55Z</time>
      </trkpt>
      <trkpt lat="43.95748" lon="7.35333">
        <ele>1045</ele>
        <time>2013-06-20T12:43:57Z</time>
      </trkpt>
      <trkpt lat="43.95745" lon="7.35326">
        <ele>1046</ele>
        <time>2013-06-20T12:43:59Z</time>
      </trkpt>
      <trkpt lat="43.95744" lon="7.35319">
        <ele>1046</ele>
        <time>2013-06-20T12:44:02Z</time>
      </trkpt>
      <trkpt lat="43.95745" lon="7.35312">
        <ele>1046</ele>
        <time>2013-06-20T12:44:06Z</time>
      </trkpt>
      <trkpt lat="43.95741" lon="7.35309">
        <ele>1044</ele>
        <time>2013-06-20T12:44:14Z</time>
      </trkpt>
      <trkpt lat="43.95737" lon="7.35303">
        <ele>1042</ele>
        <time>2013-06-20T12:44:19Z</time>
      </trkpt>
      <trkpt lat="43.95736" lon="7.35297">
        <ele>1041</ele>
        <time>2013-06-20T12:44:22Z</time>
      </trkpt>
      <trkpt lat="43.95733" lon="7.35293">
        <ele>1039</ele>
        <time>2013-06-20T12:44:25Z</time>
      </trkpt>
      <trkpt lat="43.95728" lon="7.35292">
        <ele>1037</ele>
        <time>2013-06-20T12:44:28Z</time>
      </trkpt>
      <trkpt lat="43.95724" lon="7.35288">
        <ele>1036</ele>
        <time>2013-06-20T12:44:32Z</time>
      </trkpt>
      <trkpt lat="43.95725" lon="7.35281">
        <ele>1036</ele>
        <time>2013-06-20T12:44:36Z</time>
      </trkpt>
      <trkpt lat="43.95723" lon="7.35274">
        <ele>1035</ele>
        <time>2013-06-20T12:44:40Z</time>
      </trkpt>
      <trkpt lat="43.95717" lon="7.3527">
        <ele>1035</ele>
        <time>2013-06-20T12:44:43Z</time>
      </trkpt>
      <trkpt lat="43.95712" lon="7.35268">
        <ele>1035</ele>
        <time>2013-06-20T12:44:45Z</time>
      </trkpt>
      <trkpt lat="43.95708" lon="7.35273">
        <ele>1034</ele>
        <time>2013-06-20T12:44:51Z</time>
      </trkpt>
      <trkpt lat="43.9571" lon="7.35271">
        <ele>1033</ele>
        <time>2013-06-20T12:45:12Z</time>
      </trkpt>
      <trkpt lat="43.95705" lon="7.35265">
        <ele>1032</ele>
        <time>2013-06-20T12:45:29Z</time>
      </trkpt>
      <trkpt lat="43.95706" lon="7.35258">
        <ele>1031</ele>
        <time>2013-06-20T12:45:34Z</time>
      </trkpt>
      <trkpt lat="43.95711" lon="7.35254">
        <ele>1030</ele>
        <time>2013-06-20T12:45:37Z</time>
      </trkpt>
      <trkpt lat="43.95713" lon="7.35248">
        <ele>1029</ele>
        <time>2013-06-20T12:45:41Z</time>
      </trkpt>
      <trkpt lat="43.95709" lon="7.35242">
        <ele>1028</ele>
        <time>2013-06-20T12:45:45Z</time>
      </trkpt>
      <trkpt lat="43.95707" lon="7.35236">
        <ele>1027</ele>
        <time>2013-06-20T12:45:49Z</time>
      </trkpt>
      <trkpt lat="43.95704" lon="7.3523">
        <ele>1026</ele>
        <time>2013-06-20T12:45:54Z</time>
      </trkpt>
      <trkpt lat="43.95701" lon="7.35225">
        <ele>1026</ele>
        <time>2013-06-20T12:45:57Z</time>
      </trkpt>
      <trkpt lat="43.95699" lon="7.35219">
        <ele>1026</ele>
        <time>2013-06-20T12:46:00Z</time>
      </trkpt>
      <trkpt lat="43.95696" lon="7.35214">
        <ele>1026</ele>
        <time>2013-06-20T12:46:04Z</time>
      </trkpt>
      <trkpt lat="43.95694" lon="7.35211">
        <ele>1027</ele>
        <time>2013-06-20T12:46:11Z</time>
      </trkpt>
      <trkpt lat="43.95689" lon="7.35208">
        <ele>1027</ele>
        <time>2013-06-20T12:46:13Z</time>
      </trkpt>
      <trkpt lat="43.95683" lon="7.35207">
        <ele>1026</ele>
        <time>2013-06-20T12:46:16Z</time>
      </trkpt>
      <trkpt lat="43.95679" lon="7.35203">
        <ele>1024</ele>
        <time>2013-06-20T12:46:20Z</time>
      </trkpt>
      <trkpt lat="43.95675" lon="7.35197">
        <ele>1022</ele>
        <time>2013-06-20T12:46:28Z</time>
      </trkpt>
      <trkpt lat="43.95673" lon="7.35191">
        <ele>1021</ele>
        <time>2013-06-20T12:46:32Z</time>
      </trkpt>
      <trkpt lat="43.95676" lon="7.35185">
        <ele>1021</ele>
        <time>2013-06-20T12:46:37Z</time>
      </trkpt>
      <trkpt lat="43.95673" lon="7.35179">
        <ele>1019</ele>
        <time>2013-06-20T12:46:43Z</time>
      </trkpt>
      <trkpt lat="43.9567" lon="7.35174">
        <ele>1019</ele>
        <time>2013-06-20T12:46:46Z</time>
      </trkpt>
      <trkpt lat="43.95668" lon="7.35168">
        <ele>1018</ele>
        <time>2013-06-20T12:46:49Z</time>
      </trkpt>
      <trkpt lat="43.95664" lon="7.35163">
        <ele>1017</ele>
        <time>2013-06-20T12:46:52Z</time>
      </trkpt>
      <trkpt lat="43.9566" lon="7.3516">
        <ele>1018</ele>
        <time>2013-06-20T12:46:57Z</time>
      </trkpt>
      <trkpt lat="43.95656" lon="7.35156">
        <ele>1019</ele>
        <time>2013-06-20T12:47:01Z</time>
      </trkpt>
      <trkpt lat="43.95652" lon="7.35152">
        <ele>1018</ele>
        <time>2013-06-20T12:47:07Z</time>
      </trkpt>
      <trkpt lat="43.95646" lon="7.35149">
        <ele>1017</ele>
        <time>2013-06-20T12:47:11Z</time>
      </trkpt>
      <trkpt lat="43.95642" lon="7.35145">
        <ele>1016</ele>
        <time>2013-06-20T12:47:14Z</time>
      </trkpt>
      <trkpt lat="43.9564" lon="7.35138">
        <ele>1014</ele>
        <time>2013-06-20T12:47:17Z</time>
      </trkpt>
      <trkpt lat="43.95642" lon="7.35133">
        <ele>1011</ele>
        <time>2013-06-20T12:47:27Z</time>
      </trkpt>
      <trkpt lat="43.9564" lon="7.35128">
        <ele>1009</ele>
        <time>2013-06-20T12:47:38Z</time>
      </trkpt>
      <trkpt lat="43.9564" lon="7.35124">
        <ele>1007</ele>
        <time>2013-06-20T12:47:45Z</time>
      </trkpt>
      <trkpt lat="43.9564" lon="7.3512">
        <ele>1007</ele>
        <time>2013-06-20T12:47:51Z</time>
      </trkpt>
      <trkpt lat="43.95636" lon="7.35115">
        <ele>1006</ele>
        <time>2013-06-20T12:48:00Z</time>
      </trkpt>
      <trkpt lat="43.95632" lon="7.35111">
        <ele>1003</ele>
        <time>2013-06-20T12:48:04Z</time>
      </trkpt>
      <trkpt lat="43.9563" lon="7.35106">
        <ele>1002</ele>
        <time>2013-06-20T12:48:09Z</time>
      </trkpt>
      <trkpt lat="43.9563" lon="7.35102">
        <ele>999</ele>
        <time>2013-06-20T12:48:15Z</time>
      </trkpt>
      <trkpt lat="43.95625" lon="7.35099">
        <ele>998</ele>
        <time>2013-06-20T12:48:23Z</time>
      </trkpt>
      <trkpt lat="43.95623" lon="7.35094">
        <ele>996</ele>
        <time>2013-06-20T12:48:29Z</time>
      </trkpt>
      <trkpt lat="43.95618" lon="7.35087">
        <ele>996</ele>
        <time>2013-06-20T12:48:39Z</time>
      </trkpt>
      <trkpt lat="43.95613" lon="7.35087">
        <ele>997</ele>
        <time>2013-06-20T12:48:41Z</time>
      </trkpt>
      <trkpt lat="43.95608" lon="7.35084">
        <ele>997</ele>
        <time>2013-06-20T12:48:43Z</time>
      </trkpt>
      <trkpt lat="43.95606" lon="7.35076">
        <ele>999</ele>
        <time>2013-06-20T12:48:52Z</time>
      </trkpt>
      <trkpt lat="43.95603" lon="7.35069">
        <ele>998</ele>
        <time>2013-06-20T12:48:56Z</time>
      </trkpt>
      <trkpt lat="43.956" lon="7.35064">
        <ele>999</ele>
        <time>2013-06-20T12:48:59Z</time>
      </trkpt>
      <trkpt lat="43.95597" lon="7.35058">
        <ele>998</ele>
        <time>2013-06-20T12:49:03Z</time>
      </trkpt>
      <trkpt lat="43.95593" lon="7.35054">
        <ele>997</ele>
        <time>2013-06-20T12:49:07Z</time>
      </trkpt>
      <trkpt lat="43.95591" lon="7.35047">
        <ele>997</ele>
        <time>2013-06-20T12:49:12Z</time>
      </trkpt>
      <trkpt lat="43.95588" lon="7.35041">
        <ele>996</ele>
        <time>2013-06-20T12:49:16Z</time>
      </trkpt>
      <trkpt lat="43.95584" lon="7.35038">
        <ele>997</ele>
        <time>2013-06-20T12:49:19Z</time>
      </trkpt>
      <trkpt lat="43.9558" lon="7.35034">
        <ele>996</ele>
        <time>2013-06-20T12:49:24Z</time>
      </trkpt>
      <trkpt lat="43.95576" lon="7.35029">
        <ele>995</ele>
        <time>2013-06-20T12:49:29Z</time>
      </trkpt>
      <trkpt lat="43.95572" lon="7.35024">
        <ele>995</ele>
        <time>2013-06-20T12:49:32Z</time>
      </trkpt>
      <trkpt lat="43.95568" lon="7.35019">
        <ele>996</ele>
        <time>2013-06-20T12:49:35Z</time>
      </trkpt>
      <trkpt lat="43.95563" lon="7.35018">
        <ele>995</ele>
        <time>2013-06-20T12:49:39Z</time>
      </trkpt>
      <trkpt lat="43.95557" lon="7.35019">
        <ele>993</ele>
        <time>2013-06-20T12:49:43Z</time>
      </trkpt>
      <trkpt lat="43.95553" lon="7.35015">
        <ele>992</ele>
        <time>2013-06-20T12:49:47Z</time>
      </trkpt>
      <trkpt lat="43.95549" lon="7.3501">
        <ele>992</ele>
        <time>2013-06-20T12:49:51Z</time>
      </trkpt>
      <trkpt lat="43.95546" lon="7.35005">
        <ele>992</ele>
        <time>2013-06-20T12:49:54Z</time>
      </trkpt>
      <trkpt lat="43.95544" lon="7.35003">
        <ele>990</ele>
        <time>2013-06-20T12:50:00Z</time>
      </trkpt>
      <trkpt lat="43.95535" lon="7.34999">
        <ele>988</ele>
        <time>2013-06-20T12:50:15Z</time>
      </trkpt>
      <trkpt lat="43.9553" lon="7.34998">
        <ele>987</ele>
        <time>2013-06-20T12:50:19Z</time>
      </trkpt>
      <trkpt lat="43.95526" lon="7.34996">
        <ele>986</ele>
        <time>2013-06-20T12:50:21Z</time>
      </trkpt>
      <trkpt lat="43.9552" lon="7.34996">
        <ele>985</ele>
        <time>2013-06-20T12:50:23Z</time>
      </trkpt>
      <trkpt lat="43.95514" lon="7.34997">
        <ele>984</ele>
        <time>2013-06-20T12:50:25Z</time>
      </trkpt>
      <trkpt lat="43.9551" lon="7.34996">
        <ele>983</ele>
        <time>2013-06-20T12:50:27Z</time>
      </trkpt>
      <trkpt lat="43.95503" lon="7.34997">
        <ele>981</ele>
        <time>2013-06-20T12:50:30Z</time>
      </trkpt>
      <trkpt lat="43.95465" lon="7.35006">
        <ele>961</ele>
        <time>2013-06-20T12:51:03Z</time>
      </trkpt>
      <trkpt lat="43.9546" lon="7.35009">
        <ele>958</ele>
        <time>2013-06-20T12:51:09Z</time>
      </trkpt>
      <trkpt lat="43.95455" lon="7.3501">
        <ele>960</ele>
        <time>2013-06-20T12:51:15Z</time>
      </trkpt>
      <trkpt lat="43.95452" lon="7.35012">
        <ele>960</ele>
        <time>2013-06-20T12:51:23Z</time>
      </trkpt>
      <trkpt lat="43.95448" lon="7.35008">
        <ele>960</ele>
        <time>2013-06-20T12:51:32Z</time>
      </trkpt>
      <trkpt lat="43.95445" lon="7.35001">
        <ele>961</ele>
        <time>2013-06-20T12:51:36Z</time>
      </trkpt>
      <trkpt lat="43.95448" lon="7.34996">
        <ele>960</ele>
        <time>2013-06-20T12:51:41Z</time>
      </trkpt>
      <trkpt lat="43.95446" lon="7.3499">
        <ele>961</ele>
        <time>2013-06-20T12:51:45Z</time>
      </trkpt>
      <trkpt lat="43.95441" lon="7.34987">
        <ele>961</ele>
        <time>2013-06-20T12:51:48Z</time>
      </trkpt>
      <trkpt lat="43.95436" lon="7.34986">
        <ele>961</ele>
        <time>2013-06-20T12:51:52Z</time>
      </trkpt>
      <trkpt lat="43.95431" lon="7.34985">
        <ele>960</ele>
        <time>2013-06-20T12:51:56Z</time>
      </trkpt>
      <trkpt lat="43.95426" lon="7.34985">
        <ele>959</ele>
        <time>2013-06-20T12:52:00Z</time>
      </trkpt>
      <trkpt lat="43.9542" lon="7.34984">
        <ele>959</ele>
        <time>2013-06-20T12:52:03Z</time>
      </trkpt>
      <trkpt lat="43.95414" lon="7.34983">
        <ele>958</ele>
        <time>2013-06-20T12:52:06Z</time>
      </trkpt>
      <trkpt lat="43.95408" lon="7.34983">
        <ele>956</ele>
        <time>2013-06-20T12:52:10Z</time>
      </trkpt>
      <trkpt lat="43.95403" lon="7.34984">
        <ele>955</ele>
        <time>2013-06-20T12:52:14Z</time>
      </trkpt>
      <trkpt lat="43.95395" lon="7.34985">
        <ele>953</ele>
        <time>2013-06-20T12:52:21Z</time>
      </trkpt>
      <trkpt lat="43.95391" lon="7.3499">
        <ele>951</ele>
        <time>2013-06-20T12:52:26Z</time>
      </trkpt>
      <trkpt lat="43.95386" lon="7.34992">
        <ele>950</ele>
        <time>2013-06-20T12:52:29Z</time>
      </trkpt>
      <trkpt lat="43.95379" lon="7.3499">
        <ele>949</ele>
        <time>2013-06-20T12:52:32Z</time>
      </trkpt>
      <trkpt lat="43.95374" lon="7.34988">
        <ele>949</ele>
        <time>2013-06-20T12:52:35Z</time>
      </trkpt>
      <trkpt lat="43.9537" lon="7.34987">
        <ele>948</ele>
        <time>2013-06-20T12:52:39Z</time>
      </trkpt>
      <trkpt lat="43.95364" lon="7.34993">
        <ele>950</ele>
        <time>2013-06-20T12:52:49Z</time>
      </trkpt>
      <trkpt lat="43.9536" lon="7.34997">
        <ele>950</ele>
        <time>2013-06-20T12:52:54Z</time>
      </trkpt>
      <trkpt lat="43.95355" lon="7.34995">
        <ele>950</ele>
        <time>2013-06-20T12:53:01Z</time>
      </trkpt>
      <trkpt lat="43.95357" lon="7.34989">
        <ele>949</ele>
        <time>2013-06-20T12:53:13Z</time>
      </trkpt>
      <trkpt lat="43.95354" lon="7.34984">
        <ele>948</ele>
        <time>2013-06-20T12:53:21Z</time>
      </trkpt>
      <trkpt lat="43.95351" lon="7.34979">
        <ele>948</ele>
        <time>2013-06-20T12:53:24Z</time>
      </trkpt>
      <trkpt lat="43.95347" lon="7.34974">
        <ele>947</ele>
        <time>2013-06-20T12:53:27Z</time>
      </trkpt>
      <trkpt lat="43.95343" lon="7.34971">
        <ele>947</ele>
        <time>2013-06-20T12:53:29Z</time>
      </trkpt>
      <trkpt lat="43.95338" lon="7.34969">
        <ele>946</ele>
        <time>2013-06-20T12:53:32Z</time>
      </trkpt>
      <trkpt lat="43.95334" lon="7.34965">
        <ele>945</ele>
        <time>2013-06-20T12:53:42Z</time>
      </trkpt>
      <trkpt lat="43.95329" lon="7.34964">
        <ele>945</ele>
        <time>2013-06-20T12:53:48Z</time>
      </trkpt>
      <trkpt lat="43.95324" lon="7.34963">
        <ele>945</ele>
        <time>2013-06-20T12:53:50Z</time>
      </trkpt>
      <trkpt lat="43.95317" lon="7.34963">
        <ele>945</ele>
        <time>2013-06-20T12:53:53Z</time>
      </trkpt>
      <trkpt lat="43.95313" lon="7.34963">
        <ele>943</ele>
        <time>2013-06-20T12:53:55Z</time>
      </trkpt>
      <trkpt lat="43.95305" lon="7.3497">
        <ele>938</ele>
        <time>2013-06-20T12:54:04Z</time>
      </trkpt>
      <trkpt lat="43.95299" lon="7.3497">
        <ele>935</ele>
        <time>2013-06-20T12:54:21Z</time>
      </trkpt>
      <trkpt lat="43.95292" lon="7.34966">
        <ele>935</ele>
        <time>2013-06-20T12:54:28Z</time>
      </trkpt>
      <trkpt lat="43.9529" lon="7.3496">
        <ele>938</ele>
        <time>2013-06-20T12:54:35Z</time>
      </trkpt>
      <trkpt lat="43.95287" lon="7.34954">
        <ele>939</ele>
        <time>2013-06-20T12:54:38Z</time>
      </trkpt>
      <trkpt lat="43.95285" lon="7.34947">
        <ele>940</ele>
        <time>2013-06-20T12:54:43Z</time>
      </trkpt>
      <trkpt lat="43.95281" lon="7.34943">
        <ele>940</ele>
        <time>2013-06-20T12:54:47Z</time>
      </trkpt>
      <trkpt lat="43.95281" lon="7.34936">
        <ele>939</ele>
        <time>2013-06-20T12:54:56Z</time>
      </trkpt>
      <trkpt lat="43.95276" lon="7.34935">
        <ele>939</ele>
        <time>2013-06-20T12:55:00Z</time>
      </trkpt>
      <trkpt lat="43.95271" lon="7.34927">
        <ele>936</ele>
        <time>2013-06-20T12:55:15Z</time>
      </trkpt>
      <trkpt lat="43.95268" lon="7.34921">
        <ele>936</ele>
        <time>2013-06-20T12:55:18Z</time>
      </trkpt>
      <trkpt lat="43.95264" lon="7.34914">
        <ele>936</ele>
        <time>2013-06-20T12:55:20Z</time>
      </trkpt>
      <trkpt lat="43.95261" lon="7.34908">
        <ele>935</ele>
        <time>2013-06-20T12:55:22Z</time>
      </trkpt>
      <trkpt lat="43.9526" lon="7.34904">
        <ele>935</ele>
        <time>2013-06-20T12:55:30Z</time>
      </trkpt>
      <trkpt lat="43.95258" lon="7.34898">
        <ele>935</ele>
        <time>2013-06-20T12:55:32Z</time>
      </trkpt>
      <trkpt lat="43.9525" lon="7.34876">
        <ele>934</ele>
        <time>2013-06-20T12:55:46Z</time>
      </trkpt>
      <trkpt lat="43.95246" lon="7.34871">
        <ele>934</ele>
        <time>2013-06-20T12:55:48Z</time>
      </trkpt>
      <trkpt lat="43.95246" lon="7.34864">
        <ele>932</ele>
        <time>2013-06-20T12:56:00Z</time>
      </trkpt>
      <trkpt lat="43.95242" lon="7.34859">
        <ele>931</ele>
        <time>2013-06-20T12:56:02Z</time>
      </trkpt>
      <trkpt lat="43.95237" lon="7.34855">
        <ele>929</ele>
        <time>2013-06-20T12:56:06Z</time>
      </trkpt>
      <trkpt lat="43.95233" lon="7.34847">
        <ele>925</ele>
        <time>2013-06-20T12:56:20Z</time>
      </trkpt>
      <trkpt lat="43.9523" lon="7.34842">
        <ele>924</ele>
        <time>2013-06-20T12:56:23Z</time>
      </trkpt>
      <trkpt lat="43.95227" lon="7.34834">
        <ele>923</ele>
        <time>2013-06-20T12:56:26Z</time>
      </trkpt>
      <trkpt lat="43.95224" lon="7.34828">
        <ele>921</ele>
        <time>2013-06-20T12:56:30Z</time>
      </trkpt>
      <trkpt lat="43.95217" lon="7.34819">
        <ele>916</ele>
        <time>2013-06-20T12:56:37Z</time>
      </trkpt>
      <trkpt lat="43.95217" lon="7.34812">
        <ele>915</ele>
        <time>2013-06-20T12:56:42Z</time>
      </trkpt>
      <trkpt lat="43.95222" lon="7.34806">
        <ele>915</ele>
        <time>2013-06-20T12:56:46Z</time>
      </trkpt>
      <trkpt lat="43.95224" lon="7.34799">
        <ele>915</ele>
        <time>2013-06-20T12:56:49Z</time>
      </trkpt>
      <trkpt lat="43.95222" lon="7.34793">
        <ele>915</ele>
        <time>2013-06-20T12:56:55Z</time>
      </trkpt>
      <trkpt lat="43.95226" lon="7.34788">
        <ele>915</ele>
        <time>2013-06-20T12:57:00Z</time>
      </trkpt>
      <trkpt lat="43.95224" lon="7.34782">
        <ele>915</ele>
        <time>2013-06-20T12:57:07Z</time>
      </trkpt>
      <trkpt lat="43.95219" lon="7.34784">
        <ele>910</ele>
        <time>2013-06-20T12:57:15Z</time>
      </trkpt>
      <trkpt lat="43.9522" lon="7.34792">
        <ele>909</ele>
        <time>2013-06-20T12:57:18Z</time>
      </trkpt>
      <trkpt lat="43.95219" lon="7.348">
        <ele>906</ele>
        <time>2013-06-20T12:57:22Z</time>
      </trkpt>
      <trkpt lat="43.9522" lon="7.34806">
        <ele>904</ele>
        <time>2013-06-20T12:57:28Z</time>
      </trkpt>
      <trkpt lat="43.95224" lon="7.3481">
        <ele>903</ele>
        <time>2013-06-20T12:57:31Z</time>
      </trkpt>
      <trkpt lat="43.9523" lon="7.3481">
        <ele>903</ele>
        <time>2013-06-20T12:57:34Z</time>
      </trkpt>
      <trkpt lat="43.95235" lon="7.3481">
        <ele>904</ele>
        <time>2013-06-20T12:57:43Z</time>
      </trkpt>
      <trkpt lat="43.95241" lon="7.34823">
        <ele>904</ele>
        <time>2013-06-20T12:57:56Z</time>
      </trkpt>
      <trkpt lat="43.95235" lon="7.34821">
        <ele>903</ele>
        <time>2013-06-20T12:58:33Z</time>
      </trkpt>
      <trkpt lat="43.95227" lon="7.34827">
        <ele>904</ele>
        <time>2013-06-20T12:58:39Z</time>
      </trkpt>
      <trkpt lat="43.95226" lon="7.34837">
        <ele>906</ele>
        <time>2013-06-20T12:59:12Z</time>
      </trkpt>
      <trkpt lat="43.95235" lon="7.34836">
        <ele>907</ele>
        <time>2013-06-20T13:01:20Z</time>
      </trkpt>
      <trkpt lat="43.9524" lon="7.34826">
        <ele>908</ele>
        <time>2013-06-20T13:01:36Z</time>
      </trkpt>
      <trkpt lat="43.95233" lon="7.34816">
        <ele>906</ele>
        <time>2013-06-20T13:02:38Z</time>
      </trkpt>
      <trkpt lat="43.9523" lon="7.34804">
        <ele>906</ele>
        <time>2013-06-20T13:02:41Z</time>
      </trkpt>
      <trkpt lat="43.9523" lon="7.34791">
        <ele>906</ele>
        <time>2013-06-20T13:02:45Z</time>
      </trkpt>
      <trkpt lat="43.95227" lon="7.34775">
        <ele>904</ele>
        <time>2013-06-20T13:03:03Z</time>
      </trkpt>
      <trkpt lat="43.95218" lon="7.34775">
        <ele>903</ele>
        <time>2013-06-20T13:03:16Z</time>
      </trkpt>
      <trkpt lat="43.95216" lon="7.34778">
        <ele>903</ele>
        <time>2013-06-20T13:03:30Z</time>
      </trkpt>
      <trkpt lat="43.95212" lon="7.3478">
        <ele>904</ele>
        <time>2013-06-20T13:03:45Z</time>
      </trkpt>
      <trkpt lat="43.95208" lon="7.3477">
        <ele>908</ele>
        <time>2013-06-20T13:06:02Z</time>
      </trkpt>
      <trkpt lat="43.952" lon="7.34762">
        <ele>908</ele>
        <time>2013-06-20T13:06:37Z</time>
      </trkpt>
      <trkpt lat="43.95196" lon="7.34782">
        <ele>908</ele>
        <time>2013-06-20T13:07:00Z</time>
      </trkpt>
      <trkpt lat="43.95208" lon="7.34786">
        <ele>909</ele>
        <time>2013-06-20T13:09:24Z</time>
      </trkpt>
      <trkpt lat="43.95213" lon="7.34787">
        <ele>908</ele>
        <time>2013-06-20T13:09:32Z</time>
      </trkpt>
      <trkpt lat="43.95217" lon="7.34788">
        <ele>904</ele>
        <time>2013-06-20T13:09:40Z</time>
      </trkpt>
      <trkpt lat="43.95221" lon="7.34778">
        <ele>900</ele>
        <time>2013-06-20T13:11:12Z</time>
      </trkpt>
      <trkpt lat="43.95215" lon="7.34779">
        <ele>903</ele>
        <time>2013-06-20T13:11:19Z</time>
      </trkpt>
      <trkpt lat="43.95215" lon="7.34787">
        <ele>910</ele>
        <time>2013-06-20T13:14:04Z</time>
      </trkpt>
      <trkpt lat="43.95218" lon="7.34788">
        <ele>910</ele>
        <time>2013-06-20T13:14:24Z</time>
      </trkpt>
      <trkpt lat="43.9522" lon="7.34782">
        <ele>913</ele>
        <time>2013-06-20T13:14:56Z</time>
      </trkpt>
      <trkpt lat="43.95223" lon="7.34784">
        <ele>912</ele>
        <time>2013-06-20T13:15:12Z</time>
      </trkpt>
      <trkpt lat="43.95226" lon="7.34785">
        <ele>904</ele>
        <time>2013-06-20T13:15:53Z</time>
      </trkpt>
      <trkpt lat="43.95214" lon="7.34779">
        <ele>902</ele>
        <time>2013-06-20T13:16:42Z</time>
      </trkpt>
      <trkpt lat="43.95219" lon="7.34785">
        <ele>905</ele>
        <time>2013-06-20T13:28:14Z</time>
      </trkpt>
      <trkpt lat="43.95221" lon="7.34791">
        <ele>908</ele>
        <time>2013-06-20T13:28:48Z</time>
      </trkpt>
      <trkpt lat="43.95239" lon="7.34756">
        <ele>908</ele>
        <time>2013-06-20T13:28:28Z</time>
      </trkpt>
      <trkpt lat="43.95232" lon="7.34764">
        <ele>905</ele>
        <time>2013-06-20T13:34:04Z</time>
      </trkpt>
      <trkpt lat="43.9524" lon="7.34762">
        <ele>903</ele>
        <time>2013-06-20T13:36:44Z</time>
      </trkpt>
      <trkpt lat="43.95246" lon="7.34724">
        <ele>900</ele>
        <time>2013-06-20T13:38:20Z</time>
      </trkpt>
      <trkpt lat="43.95235" lon="7.3468">
        <ele>897</ele>
        <time>2013-06-20T13:38:36Z</time>
      </trkpt>
      <trkpt lat="43.95234" lon="7.34628">
        <ele>894</ele>
        <time>2013-06-20T13:38:52Z</time>
      </trkpt>
      <trkpt lat="43.95232" lon="7.34598">
        <ele>892</ele>
        <time>2013-06-20T13:39:08Z</time>
      </trkpt>
      <trkpt lat="43.95235" lon="7.34566">
        <ele>889</ele>
        <time>2013-06-20T13:39:24Z</time>
      </trkpt>
      <trkpt lat="43.95237" lon="7.34543">
        <ele>886</ele>
        <time>2013-06-20T13:39:40Z</time>
      </trkpt>
      <trkpt lat="43.95237" lon="7.3452">
        <ele>883</ele>
        <time>2013-06-20T13:39:56Z</time>
      </trkpt>
      <trkpt lat="43.95235" lon="7.34495">
        <ele>881</ele>
        <time>2013-06-20T13:40:12Z</time>
      </trkpt>
      <trkpt lat="43.95237" lon="7.34473">
        <ele>878</ele>
        <time>2013-06-20T13:40:28Z</time>
      </trkpt>
      <trkpt lat="43.95241" lon="7.34442">
        <ele>875</ele>
        <time>2013-06-20T13:40:44Z</time>
      </trkpt>
      <trkpt lat="43.95242" lon="7.3442">
        <ele>873</ele>
        <time>2013-06-20T13:41:00Z</time>
      </trkpt>
      <trkpt lat="43.95245" lon="7.34393">
        <ele>870</ele>
        <time>2013-06-20T13:41:16Z</time>
      </trkpt>
      <trkpt lat="43.95255" lon="7.34368">
        <ele>867</ele>
        <time>2013-06-20T13:41:32Z</time>
      </trkpt>
      <trkpt lat="43.95259" lon="7.34346">
        <ele>864</ele>
        <time>2013-06-20T13:42:20Z</time>
      </trkpt>
      <trkpt lat="43.95256" lon="7.34325">
        <ele>862</ele>
        <time>2013-06-20T13:42:36Z</time>
      </trkpt>
      <trkpt lat="43.95258" lon="7.34283">
        <ele>859</ele>
        <time>2013-06-20T13:43:08Z</time>
      </trkpt>
      <trkpt lat="43.95274" lon="7.34289">
        <ele>856</ele>
        <time>2013-06-20T13:43:24Z</time>
      </trkpt>
      <trkpt lat="43.95281" lon="7.34299">
        <ele>853</ele>
        <time>2013-06-20T13:43:40Z</time>
      </trkpt>
      <trkpt lat="43.9531" lon="7.3431">
        <ele>851</ele>
        <time>2013-06-20T13:44:12Z</time>
      </trkpt>
      <trkpt lat="43.95325" lon="7.34309">
        <ele>848</ele>
        <time>2013-06-20T13:44:28Z</time>
      </trkpt>
      <trkpt lat="43.95342" lon="7.34293">
        <ele>845</ele>
        <time>2013-06-20T13:44:44Z</time>
      </trkpt>
      <trkpt lat="43.95336" lon="7.3428">
        <ele>842</ele>
        <time>2013-06-20T13:45:00Z</time>
      </trkpt>
      <trkpt lat="43.95326" lon="7.34246">
        <ele>840</ele>
        <time>2013-06-20T13:45:32Z</time>
      </trkpt>
      <trkpt lat="43.95324" lon="7.34198">
        <ele>838</ele>
        <time>2013-06-20T13:46:04Z</time>
      </trkpt>
      <trkpt lat="43.95319" lon="7.3419">
        <ele>837</ele>
        <time>2013-06-20T13:46:17Z</time>
      </trkpt>
      <trkpt lat="43.95316" lon="7.34184">
        <ele>835</ele>
        <time>2013-06-20T13:46:21Z</time>
      </trkpt>
      <trkpt lat="43.95314" lon="7.34178">
        <ele>833</ele>
        <time>2013-06-20T13:46:26Z</time>
      </trkpt>
      <trkpt lat="43.95313" lon="7.34172">
        <ele>831</ele>
        <time>2013-06-20T13:46:30Z</time>
      </trkpt>
      <trkpt lat="43.95312" lon="7.34164">
        <ele>830</ele>
        <time>2013-06-20T13:46:34Z</time>
      </trkpt>
      <trkpt lat="43.95313" lon="7.34158">
        <ele>829</ele>
        <time>2013-06-20T13:46:37Z</time>
      </trkpt>
      <trkpt lat="43.95313" lon="7.34152">
        <ele>828</ele>
        <time>2013-06-20T13:46:41Z</time>
      </trkpt>
      <trkpt lat="43.95315" lon="7.34146">
        <ele>828</ele>
        <time>2013-06-20T13:46:46Z</time>
      </trkpt>
      <trkpt lat="43.95318" lon="7.34139">
        <ele>828</ele>
        <time>2013-06-20T13:46:51Z</time>
      </trkpt>
      <trkpt lat="43.9532" lon="7.34133">
        <ele>828</ele>
        <time>2013-06-20T13:46:55Z</time>
      </trkpt>
      <trkpt lat="43.95321" lon="7.34126">
        <ele>828</ele>
        <time>2013-06-20T13:46:59Z</time>
      </trkpt>
      <trkpt lat="43.95322" lon="7.3412">
        <ele>827</ele>
        <time>2013-06-20T13:47:03Z</time>
      </trkpt>
      <trkpt lat="43.95324" lon="7.34113">
        <ele>829</ele>
        <time>2013-06-20T13:47:09Z</time>
      </trkpt>
      <trkpt lat="43.95326" lon="7.34107">
        <ele>829</ele>
        <time>2013-06-20T13:47:14Z</time>
      </trkpt>
      <trkpt lat="43.9533" lon="7.34101">
        <ele>830</ele>
        <time>2013-06-20T13:47:19Z</time>
      </trkpt>
      <trkpt lat="43.95334" lon="7.34097">
        <ele>830</ele>
        <time>2013-06-20T13:47:24Z</time>
      </trkpt>
      <trkpt lat="43.95338" lon="7.34093">
        <ele>830</ele>
        <time>2013-06-20T13:47:30Z</time>
      </trkpt>
      <trkpt lat="43.95339" lon="7.34087">
        <ele>830</ele>
        <time>2013-06-20T13:47:34Z</time>
      </trkpt>
      <trkpt lat="43.9534" lon="7.3408">
        <ele>832</ele>
        <time>2013-06-20T13:47:39Z</time>
      </trkpt>
      <trkpt lat="43.95343" lon="7.34077">
        <ele>833</ele>
        <time>2013-06-20T13:47:48Z</time>
      </trkpt>
      <trkpt lat="43.95344" lon="7.34068">
        <ele>833</ele>
        <time>2013-06-20T13:47:51Z</time>
      </trkpt>
      <trkpt lat="43.95346" lon="7.34062">
        <ele>834</ele>
        <time>2013-06-20T13:47:53Z</time>
      </trkpt>
      <trkpt lat="43.9535" lon="7.34056">
        <ele>834</ele>
        <time>2013-06-20T13:47:56Z</time>
      </trkpt>
      <trkpt lat="43.95353" lon="7.34051">
        <ele>835</ele>
        <time>2013-06-20T13:47:59Z</time>
      </trkpt>
      <trkpt lat="43.95354" lon="7.34043">
        <ele>835</ele>
        <time>2013-06-20T13:48:03Z</time>
      </trkpt>
      <trkpt lat="43.95355" lon="7.34036">
        <ele>835</ele>
        <time>2013-06-20T13:48:07Z</time>
      </trkpt>
      <trkpt lat="43.95356" lon="7.34029">
        <ele>835</ele>
        <time>2013-06-20T13:48:10Z</time>
      </trkpt>
      <trkpt lat="43.95359" lon="7.34023">
        <ele>837</ele>
        <time>2013-06-20T13:48:13Z</time>
      </trkpt>
      <trkpt lat="43.95362" lon="7.34017">
        <ele>839</ele>
        <time>2013-06-20T13:48:17Z</time>
      </trkpt>
      <trkpt lat="43.95365" lon="7.34008">
        <ele>839</ele>
        <time>2013-06-20T13:48:21Z</time>
      </trkpt>
      <trkpt lat="43.95368" lon="7.34">
        <ele>839</ele>
        <time>2013-06-20T13:48:23Z</time>
      </trkpt>
      <trkpt lat="43.9537" lon="7.33994">
        <ele>839</ele>
        <time>2013-06-20T13:48:30Z</time>
      </trkpt>
      <trkpt lat="43.95366" lon="7.33989">
        <ele>838</ele>
        <time>2013-06-20T13:48:36Z</time>
      </trkpt>
      <trkpt lat="43.95364" lon="7.33983">
        <ele>838</ele>
        <time>2013-06-20T13:48:41Z</time>
      </trkpt>
      <trkpt lat="43.95365" lon="7.33976">
        <ele>838</ele>
        <time>2013-06-20T13:48:45Z</time>
      </trkpt>
      <trkpt lat="43.95366" lon="7.33969">
        <ele>837</ele>
        <time>2013-06-20T13:48:47Z</time>
      </trkpt>
      <trkpt lat="43.95368" lon="7.33964">
        <ele>837</ele>
        <time>2013-06-20T13:48:49Z</time>
      </trkpt>
      <trkpt lat="43.95373" lon="7.33961">
        <ele>837</ele>
        <time>2013-06-20T13:48:51Z</time>
      </trkpt>
      <trkpt lat="43.95372" lon="7.33954">
        <ele>837</ele>
        <time>2013-06-20T13:48:58Z</time>
      </trkpt>
      <trkpt lat="43.95371" lon="7.33947">
        <ele>837</ele>
        <time>2013-06-20T13:49:03Z</time>
      </trkpt>
      <trkpt lat="43.95375" lon="7.33944">
        <ele>834</ele>
        <time>2013-06-20T13:49:09Z</time>
      </trkpt>
      <trkpt lat="43.9538" lon="7.33943">
        <ele>831</ele>
        <time>2013-06-20T13:49:13Z</time>
      </trkpt>
      <trkpt lat="43.95385" lon="7.33942">
        <ele>829</ele>
        <time>2013-06-20T13:49:17Z</time>
      </trkpt>
      <trkpt lat="43.9539" lon="7.33939">
        <ele>827</ele>
        <time>2013-06-20T13:49:22Z</time>
      </trkpt>
      <trkpt lat="43.95394" lon="7.33939">
        <ele>826</ele>
        <time>2013-06-20T13:49:27Z</time>
      </trkpt>
      <trkpt lat="43.95399" lon="7.33936">
        <ele>825</ele>
        <time>2013-06-20T13:49:31Z</time>
      </trkpt>
      <trkpt lat="43.95404" lon="7.33932">
        <ele>824</ele>
        <time>2013-06-20T13:49:38Z</time>
      </trkpt>
      <trkpt lat="43.95409" lon="7.33928">
        <ele>824</ele>
        <time>2013-06-20T13:49:41Z</time>
      </trkpt>
      <trkpt lat="43.95413" lon="7.33926">
        <ele>824</ele>
        <time>2013-06-20T13:49:43Z</time>
      </trkpt>
      <trkpt lat="43.95418" lon="7.33924">
        <ele>823</ele>
        <time>2013-06-20T13:49:46Z</time>
      </trkpt>
      <trkpt lat="43.95423" lon="7.33922">
        <ele>822</ele>
        <time>2013-06-20T13:49:53Z</time>
      </trkpt>
      <trkpt lat="43.95428" lon="7.33923">
        <ele>823</ele>
        <time>2013-06-20T13:49:58Z</time>
      </trkpt>
      <trkpt lat="43.95433" lon="7.33926">
        <ele>823</ele>
        <time>2013-06-20T13:50:03Z</time>
      </trkpt>
      <trkpt lat="43.95437" lon="7.33928">
        <ele>824</ele>
        <time>2013-06-20T13:50:07Z</time>
      </trkpt>
      <trkpt lat="43.95442" lon="7.33929">
        <ele>824</ele>
        <time>2013-06-20T13:50:12Z</time>
      </trkpt>
      <trkpt lat="43.95448" lon="7.3393">
        <ele>823</ele>
        <time>2013-06-20T13:50:16Z</time>
      </trkpt>
      <trkpt lat="43.95452" lon="7.33934">
        <ele>824</ele>
        <time>2013-06-20T13:50:22Z</time>
      </trkpt>
      <trkpt lat="43.95457" lon="7.33938">
        <ele>825</ele>
        <time>2013-06-20T13:50:27Z</time>
      </trkpt>
      <trkpt lat="43.95461" lon="7.33941">
        <ele>826</ele>
        <time>2013-06-20T13:50:34Z</time>
      </trkpt>
      <trkpt lat="43.95465" lon="7.33946">
        <ele>827</ele>
        <time>2013-06-20T13:50:39Z</time>
      </trkpt>
      <trkpt lat="43.95468" lon="7.33951">
        <ele>828</ele>
        <time>2013-06-20T13:50:43Z</time>
      </trkpt>
      <trkpt lat="43.95472" lon="7.33956">
        <ele>828</ele>
        <time>2013-06-20T13:50:47Z</time>
      </trkpt>
      <trkpt lat="43.95476" lon="7.33959">
        <ele>829</ele>
        <time>2013-06-20T13:50:51Z</time>
      </trkpt>
      <trkpt lat="43.95481" lon="7.33956">
        <ele>829</ele>
        <time>2013-06-20T13:50:54Z</time>
      </trkpt>
      <trkpt lat="43.95482" lon="7.33948">
        <ele>828</ele>
        <time>2013-06-20T13:50:59Z</time>
      </trkpt>
      <trkpt lat="43.95482" lon="7.33941">
        <ele>828</ele>
        <time>2013-06-20T13:51:02Z</time>
      </trkpt>
      <trkpt lat="43.95483" lon="7.33934">
        <ele>827</ele>
        <time>2013-06-20T13:51:06Z</time>
      </trkpt>
      <trkpt lat="43.95479" lon="7.3393">
        <ele>826</ele>
        <time>2013-06-20T13:51:10Z</time>
      </trkpt>
      <trkpt lat="43.95476" lon="7.33924">
        <ele>826</ele>
        <time>2013-06-20T13:51:13Z</time>
      </trkpt>
      <trkpt lat="43.95472" lon="7.3392">
        <ele>826</ele>
        <time>2013-06-20T13:51:16Z</time>
      </trkpt>
      <trkpt lat="43.95467" lon="7.33917">
        <ele>826</ele>
        <time>2013-06-20T13:51:19Z</time>
      </trkpt>
      <trkpt lat="43.95466" lon="7.3391">
        <ele>825</ele>
        <time>2013-06-20T13:51:25Z</time>
      </trkpt>
      <trkpt lat="43.95464" lon="7.33903">
        <ele>823</ele>
        <time>2013-06-20T13:51:29Z</time>
      </trkpt>
      <trkpt lat="43.95461" lon="7.33896">
        <ele>823</ele>
        <time>2013-06-20T13:51:33Z</time>
      </trkpt>
      <trkpt lat="43.95456" lon="7.33893">
        <ele>825</ele>
        <time>2013-06-20T13:51:36Z</time>
      </trkpt>
      <trkpt lat="43.95453" lon="7.33887">
        <ele>825</ele>
        <time>2013-06-20T13:51:41Z</time>
      </trkpt>
      <trkpt lat="43.95449" lon="7.33882">
        <ele>826</ele>
        <time>2013-06-20T13:51:46Z</time>
      </trkpt>
      <trkpt lat="43.95446" lon="7.33877">
        <ele>828</ele>
        <time>2013-06-20T13:51:52Z</time>
      </trkpt>
      <trkpt lat="43.95443" lon="7.33871">
        <ele>827</ele>
        <time>2013-06-20T13:52:00Z</time>
      </trkpt>
      <trkpt lat="43.95443" lon="7.33864">
        <ele>825</ele>
        <time>2013-06-20T13:52:05Z</time>
      </trkpt>
      <trkpt lat="43.95444" lon="7.33849">
        <ele>819</ele>
        <time>2013-06-20T13:52:18Z</time>
      </trkpt>
      <trkpt lat="43.95448" lon="7.33842">
        <ele>816</ele>
        <time>2013-06-20T13:52:22Z</time>
      </trkpt>
      <trkpt lat="43.95448" lon="7.33835">
        <ele>813</ele>
        <time>2013-06-20T13:52:28Z</time>
      </trkpt>
      <trkpt lat="43.95448" lon="7.33828">
        <ele>812</ele>
        <time>2013-06-20T13:52:32Z</time>
      </trkpt>
      <trkpt lat="43.9545" lon="7.33823">
        <ele>811</ele>
        <time>2013-06-20T13:52:42Z</time>
      </trkpt>
      <trkpt lat="43.95448" lon="7.33815">
        <ele>810</ele>
        <time>2013-06-20T13:52:48Z</time>
      </trkpt>
      <trkpt lat="43.95453" lon="7.33806">
        <ele>807</ele>
        <time>2013-06-20T13:52:55Z</time>
      </trkpt>
      <trkpt lat="43.95453" lon="7.33798">
        <ele>806</ele>
        <time>2013-06-20T13:52:58Z</time>
      </trkpt>
      <trkpt lat="43.95453" lon="7.3379">
        <ele>806</ele>
        <time>2013-06-20T13:53:01Z</time>
      </trkpt>
      <trkpt lat="43.95451" lon="7.33783">
        <ele>806</ele>
        <time>2013-06-20T13:53:04Z</time>
      </trkpt>
      <trkpt lat="43.95447" lon="7.33773">
        <ele>806</ele>
        <time>2013-06-20T13:53:13Z</time>
      </trkpt>
      <trkpt lat="43.95445" lon="7.33766">
        <ele>806</ele>
        <time>2013-06-20T13:53:17Z</time>
      </trkpt>
      <trkpt lat="43.95443" lon="7.33759">
        <ele>805</ele>
        <time>2013-06-20T13:53:21Z</time>
      </trkpt>
      <trkpt lat="43.95443" lon="7.33752">
        <ele>804</ele>
        <time>2013-06-20T13:53:24Z</time>
      </trkpt>
      <trkpt lat="43.95444" lon="7.33746">
        <ele>802</ele>
        <time>2013-06-20T13:53:28Z</time>
      </trkpt>
      <trkpt lat="43.95445" lon="7.33739">
        <ele>804</ele>
        <time>2013-06-20T13:53:34Z</time>
      </trkpt>
      <trkpt lat="43.95446" lon="7.33732">
        <ele>805</ele>
        <time>2013-06-20T13:53:42Z</time>
      </trkpt>
      <trkpt lat="43.95446" lon="7.33724">
        <ele>805</ele>
        <time>2013-06-20T13:53:54Z</time>
      </trkpt>
      <trkpt lat="43.95449" lon="7.33718">
        <ele>804</ele>
        <time>2013-06-20T13:53:58Z</time>
      </trkpt>
      <trkpt lat="43.95452" lon="7.33714">
        <ele>803</ele>
        <time>2013-06-20T13:54:02Z</time>
      </trkpt>
      <trkpt lat="43.95455" lon="7.33709">
        <ele>803</ele>
        <time>2013-06-20T13:54:06Z</time>
      </trkpt>
      <trkpt lat="43.95457" lon="7.33705">
        <ele>803</ele>
        <time>2013-06-20T13:54:14Z</time>
      </trkpt>
      <trkpt lat="43.95459" lon="7.33698">
        <ele>803</ele>
        <time>2013-06-20T13:54:20Z</time>
      </trkpt>
      <trkpt lat="43.95461" lon="7.33691">
        <ele>803</ele>
        <time>2013-06-20T13:54:24Z</time>
      </trkpt>
      <trkpt lat="43.95462" lon="7.33685">
        <ele>804</ele>
        <time>2013-06-20T13:54:28Z</time>
      </trkpt>
      <trkpt lat="43.95461" lon="7.33679">
        <ele>805</ele>
        <time>2013-06-20T13:54:31Z</time>
      </trkpt>
      <trkpt lat="43.95463" lon="7.33673">
        <ele>802</ele>
        <time>2013-06-20T13:54:37Z</time>
      </trkpt>
      <trkpt lat="43.95466" lon="7.33668">
        <ele>801</ele>
        <time>2013-06-20T13:54:39Z</time>
      </trkpt>
      <trkpt lat="43.95471" lon="7.33661">
        <ele>799</ele>
        <time>2013-06-20T13:54:41Z</time>
      </trkpt>
      <trkpt lat="43.95474" lon="7.33655">
        <ele>797</ele>
        <time>2013-06-20T13:54:43Z</time>
      </trkpt>
      <trkpt lat="43.95476" lon="7.33648">
        <ele>796</ele>
        <time>2013-06-20T13:54:54Z</time>
      </trkpt>
      <trkpt lat="43.95478" lon="7.33641">
        <ele>794</ele>
        <time>2013-06-20T13:55:00Z</time>
      </trkpt>
      <trkpt lat="43.9548" lon="7.33635">
        <ele>794</ele>
        <time>2013-06-20T13:55:03Z</time>
      </trkpt>
      <trkpt lat="43.95483" lon="7.33629">
        <ele>794</ele>
        <time>2013-06-20T13:55:10Z</time>
      </trkpt>
      <trkpt lat="43.95487" lon="7.33623">
        <ele>793</ele>
        <time>2013-06-20T13:55:14Z</time>
      </trkpt>
      <trkpt lat="43.95491" lon="7.33618">
        <ele>793</ele>
        <time>2013-06-20T13:55:17Z</time>
      </trkpt>
      <trkpt lat="43.95495" lon="7.33613">
        <ele>792</ele>
        <time>2013-06-20T13:55:19Z</time>
      </trkpt>
      <trkpt lat="43.955" lon="7.33608">
        <ele>791</ele>
        <time>2013-06-20T13:55:22Z</time>
      </trkpt>
      <trkpt lat="43.95503" lon="7.33604">
        <ele>790</ele>
        <time>2013-06-20T13:55:36Z</time>
      </trkpt>
      <trkpt lat="43.95508" lon="7.33604">
        <ele>791</ele>
        <time>2013-06-20T13:55:44Z</time>
      </trkpt>
      <trkpt lat="43.95512" lon="7.33605">
        <ele>793</ele>
        <time>2013-06-20T13:55:51Z</time>
      </trkpt>
      <trkpt lat="43.95517" lon="7.33601">
        <ele>794</ele>
        <time>2013-06-20T13:55:54Z</time>
      </trkpt>
      <trkpt lat="43.95521" lon="7.33598">
        <ele>794</ele>
        <time>2013-06-20T13:55:57Z</time>
      </trkpt>
      <trkpt lat="43.95525" lon="7.33594">
        <ele>794</ele>
        <time>2013-06-20T13:56:06Z</time>
      </trkpt>
      <trkpt lat="43.95529" lon="7.33588">
        <ele>793</ele>
        <time>2013-06-20T13:56:10Z</time>
      </trkpt>
      <trkpt lat="43.95533" lon="7.33581">
        <ele>791</ele>
        <time>2013-06-20T13:56:13Z</time>
      </trkpt>
      <trkpt lat="43.95536" lon="7.33575">
        <ele>790</ele>
        <time>2013-06-20T13:56:17Z</time>
      </trkpt>
      <trkpt lat="43.95537" lon="7.33568">
        <ele>790</ele>
        <time>2013-06-20T13:56:21Z</time>
      </trkpt>
      <trkpt lat="43.95536" lon="7.3356">
        <ele>788</ele>
        <time>2013-06-20T13:56:26Z</time>
      </trkpt>
      <trkpt lat="43.95532" lon="7.33556">
        <ele>789</ele>
        <time>2013-06-20T13:56:30Z</time>
      </trkpt>
      <trkpt lat="43.95526" lon="7.33555">
        <ele>789</ele>
        <time>2013-06-20T13:56:33Z</time>
      </trkpt>
      <trkpt lat="43.95522" lon="7.33552">
        <ele>790</ele>
        <time>2013-06-20T13:56:36Z</time>
      </trkpt>
      <trkpt lat="43.95518" lon="7.33547">
        <ele>791</ele>
        <time>2013-06-20T13:56:40Z</time>
      </trkpt>
      <trkpt lat="43.95519" lon="7.3354">
        <ele>790</ele>
        <time>2013-06-20T13:56:44Z</time>
      </trkpt>
      <trkpt lat="43.95517" lon="7.33534">
        <ele>789</ele>
        <time>2013-06-20T13:56:48Z</time>
      </trkpt>
      <trkpt lat="43.95513" lon="7.33527">
        <ele>789</ele>
        <time>2013-06-20T13:56:51Z</time>
      </trkpt>
      <trkpt lat="43.95506" lon="7.33526">
        <ele>789</ele>
        <time>2013-06-20T13:56:54Z</time>
      </trkpt>
      <trkpt lat="43.95502" lon="7.33522">
        <ele>790</ele>
        <time>2013-06-20T13:56:58Z</time>
      </trkpt>
      <trkpt lat="43.95502" lon="7.33514">
        <ele>789</ele>
        <time>2013-06-20T13:57:08Z</time>
      </trkpt>
      <trkpt lat="43.95503" lon="7.33507">
        <ele>788</ele>
        <time>2013-06-20T13:57:12Z</time>
      </trkpt>
      <trkpt lat="43.95501" lon="7.335">
        <ele>790</ele>
        <time>2013-06-20T13:57:21Z</time>
      </trkpt>
      <trkpt lat="43.95502" lon="7.33492">
        <ele>789</ele>
        <time>2013-06-20T13:57:26Z</time>
      </trkpt>
      <trkpt lat="43.95505" lon="7.33486">
        <ele>787</ele>
        <time>2013-06-20T13:57:30Z</time>
      </trkpt>
      <trkpt lat="43.95506" lon="7.3348">
        <ele>785</ele>
        <time>2013-06-20T13:57:33Z</time>
      </trkpt>
      <trkpt lat="43.9551" lon="7.33475">
        <ele>782</ele>
        <time>2013-06-20T13:57:37Z</time>
      </trkpt>
      <trkpt lat="43.95514" lon="7.33469">
        <ele>782</ele>
        <time>2013-06-20T13:57:42Z</time>
      </trkpt>
      <trkpt lat="43.95518" lon="7.33464">
        <ele>779</ele>
        <time>2013-06-20T13:57:44Z</time>
      </trkpt>
      <trkpt lat="43.95522" lon="7.3346">
        <ele>778</ele>
        <time>2013-06-20T13:57:46Z</time>
      </trkpt>
      <trkpt lat="43.95526" lon="7.33459">
        <ele>777</ele>
        <time>2013-06-20T13:57:49Z</time>
      </trkpt>
      <trkpt lat="43.95531" lon="7.33459">
        <ele>776</ele>
        <time>2013-06-20T13:57:53Z</time>
      </trkpt>
      <trkpt lat="43.95537" lon="7.33459">
        <ele>777</ele>
        <time>2013-06-20T13:58:00Z</time>
      </trkpt>
      <trkpt lat="43.95543" lon="7.33457">
        <ele>777</ele>
        <time>2013-06-20T13:58:07Z</time>
      </trkpt>
      <trkpt lat="43.95548" lon="7.33457">
        <ele>775</ele>
        <time>2013-06-20T13:58:10Z</time>
      </trkpt>
      <trkpt lat="43.95553" lon="7.33456">
        <ele>775</ele>
        <time>2013-06-20T13:58:13Z</time>
      </trkpt>
      <trkpt lat="43.95558" lon="7.33456">
        <ele>775</ele>
        <time>2013-06-20T13:58:17Z</time>
      </trkpt>
      <trkpt lat="43.95562" lon="7.33459">
        <ele>776</ele>
        <time>2013-06-20T13:58:21Z</time>
      </trkpt>
      <trkpt lat="43.95567" lon="7.33461">
        <ele>778</ele>
        <time>2013-06-20T13:58:26Z</time>
      </trkpt>
      <trkpt lat="43.95569" lon="7.33467">
        <ele>777</ele>
        <time>2013-06-20T13:58:30Z</time>
      </trkpt>
      <trkpt lat="43.95573" lon="7.33468">
        <ele>776</ele>
        <time>2013-06-20T13:58:34Z</time>
      </trkpt>
      <trkpt lat="43.95579" lon="7.33469">
        <ele>776</ele>
        <time>2013-06-20T13:58:38Z</time>
      </trkpt>
      <trkpt lat="43.95584" lon="7.33472">
        <ele>777</ele>
        <time>2013-06-20T13:58:43Z</time>
      </trkpt>
      <trkpt lat="43.95588" lon="7.33471">
        <ele>778</ele>
        <time>2013-06-20T13:58:47Z</time>
      </trkpt>
      <trkpt lat="43.95593" lon="7.33473">
        <ele>780</ele>
        <time>2013-06-20T13:58:52Z</time>
      </trkpt>
      <trkpt lat="43.95598" lon="7.33474">
        <ele>782</ele>
        <time>2013-06-20T13:58:58Z</time>
      </trkpt>
      <trkpt lat="43.95603" lon="7.33473">
        <ele>782</ele>
        <time>2013-06-20T13:59:01Z</time>
      </trkpt>
      <trkpt lat="43.95608" lon="7.33468">
        <ele>782</ele>
        <time>2013-06-20T13:59:05Z</time>
      </trkpt>
      <trkpt lat="43.9561" lon="7.33461">
        <ele>783</ele>
        <time>2013-06-20T13:59:08Z</time>
      </trkpt>
      <trkpt lat="43.95609" lon="7.33455">
        <ele>783</ele>
        <time>2013-06-20T13:59:12Z</time>
      </trkpt>
      <trkpt lat="43.95607" lon="7.33449">
        <ele>783</ele>
        <time>2013-06-20T13:59:16Z</time>
      </trkpt>
      <trkpt lat="43.95603" lon="7.33444">
        <ele>784</ele>
        <time>2013-06-20T13:59:20Z</time>
      </trkpt>
      <trkpt lat="43.95599" lon="7.3344">
        <ele>785</ele>
        <time>2013-06-20T13:59:24Z</time>
      </trkpt>
      <trkpt lat="43.95595" lon="7.33438">
        <ele>787</ele>
        <time>2013-06-20T13:59:29Z</time>
      </trkpt>
      <trkpt lat="43.9559" lon="7.33435">
        <ele>787</ele>
        <time>2013-06-20T13:59:35Z</time>
      </trkpt>
      <trkpt lat="43.95587" lon="7.3343">
        <ele>787</ele>
        <time>2013-06-20T13:59:39Z</time>
      </trkpt>
      <trkpt lat="43.95586" lon="7.33424">
        <ele>785</ele>
        <time>2013-06-20T13:59:43Z</time>
      </trkpt>
      <trkpt lat="43.95585" lon="7.33418">
        <ele>783</ele>
        <time>2013-06-20T13:59:46Z</time>
      </trkpt>
      <trkpt lat="43.95583" lon="7.33411">
        <ele>782</ele>
        <time>2013-06-20T13:59:53Z</time>
      </trkpt>
      <trkpt lat="43.95585" lon="7.33405">
        <ele>783</ele>
        <time>2013-06-20T13:59:59Z</time>
      </trkpt>
      <trkpt lat="43.95579" lon="7.334">
        <ele>782</ele>
        <time>2013-06-20T14:00:03Z</time>
      </trkpt>
      <trkpt lat="43.95574" lon="7.33398">
        <ele>782</ele>
        <time>2013-06-20T14:00:06Z</time>
      </trkpt>
      <trkpt lat="43.95568" lon="7.334">
        <ele>782</ele>
        <time>2013-06-20T14:00:12Z</time>
      </trkpt>
      <trkpt lat="43.95564" lon="7.33399">
        <ele>782</ele>
        <time>2013-06-20T14:00:15Z</time>
      </trkpt>
      <trkpt lat="43.95559" lon="7.33399">
        <ele>781</ele>
        <time>2013-06-20T14:00:18Z</time>
      </trkpt>
      <trkpt lat="43.95554" lon="7.33396">
        <ele>780</ele>
        <time>2013-06-20T14:00:21Z</time>
      </trkpt>
      <trkpt lat="43.95549" lon="7.33392">
        <ele>779</ele>
        <time>2013-06-20T14:00:24Z</time>
      </trkpt>
      <trkpt lat="43.95546" lon="7.33387">
        <ele>779</ele>
        <time>2013-06-20T14:00:33Z</time>
      </trkpt>
      <trkpt lat="43.95541" lon="7.33388">
        <ele>780</ele>
        <time>2013-06-20T14:00:40Z</time>
      </trkpt>
      <trkpt lat="43.95535" lon="7.33386">
        <ele>781</ele>
        <time>2013-06-20T14:00:45Z</time>
      </trkpt>
      <trkpt lat="43.95526" lon="7.33383">
        <ele>781</ele>
        <time>2013-06-20T14:00:49Z</time>
      </trkpt>
      <trkpt lat="43.95522" lon="7.3338">
        <ele>781</ele>
        <time>2013-06-20T14:00:51Z</time>
      </trkpt>
      <trkpt lat="43.95521" lon="7.33373">
        <ele>781</ele>
        <time>2013-06-20T14:00:57Z</time>
      </trkpt>
      <trkpt lat="43.95517" lon="7.33368">
        <ele>781</ele>
        <time>2013-06-20T14:01:02Z</time>
      </trkpt>
      <trkpt lat="43.95512" lon="7.33367">
        <ele>782</ele>
        <time>2013-06-20T14:01:05Z</time>
      </trkpt>
      <trkpt lat="43.95505" lon="7.33363">
        <ele>782</ele>
        <time>2013-06-20T14:01:08Z</time>
      </trkpt>
      <trkpt lat="43.95501" lon="7.33359">
        <ele>782</ele>
        <time>2013-06-20T14:01:10Z</time>
      </trkpt>
      <trkpt lat="43.95498" lon="7.33355">
        <ele>781</ele>
        <time>2013-06-20T14:01:12Z</time>
      </trkpt>
      <trkpt lat="43.95494" lon="7.33348">
        <ele>781</ele>
        <time>2013-06-20T14:01:18Z</time>
      </trkpt>
      <trkpt lat="43.95495" lon="7.33342">
        <ele>779</ele>
        <time>2013-06-20T14:01:24Z</time>
      </trkpt>
      <trkpt lat="43.95495" lon="7.33335">
        <ele>778</ele>
        <time>2013-06-20T14:01:29Z</time>
      </trkpt>
      <trkpt lat="43.95492" lon="7.3333">
        <ele>777</ele>
        <time>2013-06-20T14:01:35Z</time>
      </trkpt>
      <trkpt lat="43.95493" lon="7.33322">
        <ele>776</ele>
        <time>2013-06-20T14:01:39Z</time>
      </trkpt>
      <trkpt lat="43.95494" lon="7.33315">
        <ele>773</ele>
        <time>2013-06-20T14:01:44Z</time>
      </trkpt>
      <trkpt lat="43.95495" lon="7.33308">
        <ele>772</ele>
        <time>2013-06-20T14:01:48Z</time>
      </trkpt>
      <trkpt lat="43.95498" lon="7.33303">
        <ele>771</ele>
        <time>2013-06-20T14:01:52Z</time>
      </trkpt>
      <trkpt lat="43.95503" lon="7.33304">
        <ele>769</ele>
        <time>2013-06-20T14:01:55Z</time>
      </trkpt>
      <trkpt lat="43.95507" lon="7.33299">
        <ele>767</ele>
        <time>2013-06-20T14:01:58Z</time>
      </trkpt>
      <trkpt lat="43.95508" lon="7.33291">
        <ele>766</ele>
        <time>2013-06-20T14:02:02Z</time>
      </trkpt>
      <trkpt lat="43.95509" lon="7.33284">
        <ele>766</ele>
        <time>2013-06-20T14:02:05Z</time>
      </trkpt>
      <trkpt lat="43.95513" lon="7.33279">
        <ele>764</ele>
        <time>2013-06-20T14:02:08Z</time>
      </trkpt>
      <trkpt lat="43.95514" lon="7.33272">
        <ele>765</ele>
        <time>2013-06-20T14:02:13Z</time>
      </trkpt>
      <trkpt lat="43.95513" lon="7.33264">
        <ele>767</ele>
        <time>2013-06-20T14:02:17Z</time>
      </trkpt>
      <trkpt lat="43.95514" lon="7.33257">
        <ele>768</ele>
        <time>2013-06-20T14:02:21Z</time>
      </trkpt>
      <trkpt lat="43.95514" lon="7.3325">
        <ele>770</ele>
        <time>2013-06-20T14:02:28Z</time>
      </trkpt>
      <trkpt lat="43.95515" lon="7.33242">
        <ele>771</ele>
        <time>2013-06-20T14:02:31Z</time>
      </trkpt>
      <trkpt lat="43.95516" lon="7.33235">
        <ele>769</ele>
        <time>2013-06-20T14:02:36Z</time>
      </trkpt>
      <trkpt lat="43.95517" lon="7.33229">
        <ele>768</ele>
        <time>2013-06-20T14:02:39Z</time>
      </trkpt>
      <trkpt lat="43.95515" lon="7.33222">
        <ele>764</ele>
        <time>2013-06-20T14:02:45Z</time>
      </trkpt>
      <trkpt lat="43.95518" lon="7.33216">
        <ele>763</ele>
        <time>2013-06-20T14:02:49Z</time>
      </trkpt>
      <trkpt lat="43.95519" lon="7.3321">
        <ele>761</ele>
        <time>2013-06-20T14:02:58Z</time>
      </trkpt>
      <trkpt lat="43.95519" lon="7.33203">
        <ele>760</ele>
        <time>2013-06-20T14:03:02Z</time>
      </trkpt>
      <trkpt lat="43.9552" lon="7.33197">
        <ele>758</ele>
        <time>2013-06-20T14:03:05Z</time>
      </trkpt>
      <trkpt lat="43.95518" lon="7.33189">
        <ele>757</ele>
        <time>2013-06-20T14:03:10Z</time>
      </trkpt>
      <trkpt lat="43.95519" lon="7.33182">
        <ele>756</ele>
        <time>2013-06-20T14:03:13Z</time>
      </trkpt>
      <trkpt lat="43.95519" lon="7.33175">
        <ele>756</ele>
        <time>2013-06-20T14:03:16Z</time>
      </trkpt>
      <trkpt lat="43.95523" lon="7.3317">
        <ele>754</ele>
        <time>2013-06-20T14:03:20Z</time>
      </trkpt>
      <trkpt lat="43.95525" lon="7.33165">
        <ele>753</ele>
        <time>2013-06-20T14:03:27Z</time>
      </trkpt>
      <trkpt lat="43.95524" lon="7.33158">
        <ele>753</ele>
        <time>2013-06-20T14:03:30Z</time>
      </trkpt>
      <trkpt lat="43.95521" lon="7.33151">
        <ele>753</ele>
        <time>2013-06-20T14:03:35Z</time>
      </trkpt>
      <trkpt lat="43.95521" lon="7.33142">
        <ele>752</ele>
        <time>2013-06-20T14:03:38Z</time>
      </trkpt>
      <trkpt lat="43.95518" lon="7.33131">
        <ele>751</ele>
        <time>2013-06-20T14:03:44Z</time>
      </trkpt>
      <trkpt lat="43.95517" lon="7.33122">
        <ele>753</ele>
        <time>2013-06-20T14:03:54Z</time>
      </trkpt>
      <trkpt lat="43.95518" lon="7.33115">
        <ele>756</ele>
        <time>2013-06-20T14:03:58Z</time>
      </trkpt>
      <trkpt lat="43.95522" lon="7.33111">
        <ele>758</ele>
        <time>2013-06-20T14:04:04Z</time>
      </trkpt>
      <trkpt lat="43.95527" lon="7.33111">
        <ele>759</ele>
        <time>2013-06-20T14:04:09Z</time>
      </trkpt>
      <trkpt lat="43.95532" lon="7.33113">
        <ele>760</ele>
        <time>2013-06-20T14:04:13Z</time>
      </trkpt>
      <trkpt lat="43.95537" lon="7.33115">
        <ele>762</ele>
        <time>2013-06-20T14:04:17Z</time>
      </trkpt>
      <trkpt lat="43.95543" lon="7.33115">
        <ele>762</ele>
        <time>2013-06-20T14:04:22Z</time>
      </trkpt>
      <trkpt lat="43.95548" lon="7.33114">
        <ele>762</ele>
        <time>2013-06-20T14:04:26Z</time>
      </trkpt>
      <trkpt lat="43.95553" lon="7.33113">
        <ele>764</ele>
        <time>2013-06-20T14:04:30Z</time>
      </trkpt>
      <trkpt lat="43.95558" lon="7.33109">
        <ele>766</ele>
        <time>2013-06-20T14:04:35Z</time>
      </trkpt>
      <trkpt lat="43.9556" lon="7.33102">
        <ele>767</ele>
        <time>2013-06-20T14:04:39Z</time>
      </trkpt>
      <trkpt lat="43.95559" lon="7.33094">
        <ele>767</ele>
        <time>2013-06-20T14:04:43Z</time>
      </trkpt>
      <trkpt lat="43.95556" lon="7.33089">
        <ele>768</ele>
        <time>2013-06-20T14:04:47Z</time>
      </trkpt>
      <trkpt lat="43.95552" lon="7.33084">
        <ele>768</ele>
        <time>2013-06-20T14:04:51Z</time>
      </trkpt>
      <trkpt lat="43.95548" lon="7.33081">
        <ele>768</ele>
        <time>2013-06-20T14:04:56Z</time>
      </trkpt>
      <trkpt lat="43.95543" lon="7.33076">
        <ele>767</ele>
        <time>2013-06-20T14:05:01Z</time>
      </trkpt>
      <trkpt lat="43.9554" lon="7.33069">
        <ele>763</ele>
        <time>2013-06-20T14:05:04Z</time>
      </trkpt>
      <trkpt lat="43.9554" lon="7.33063">
        <ele>761</ele>
        <time>2013-06-20T14:05:09Z</time>
      </trkpt>
      <trkpt lat="43.95536" lon="7.33055">
        <ele>759</ele>
        <time>2013-06-20T14:05:15Z</time>
      </trkpt>
      <trkpt lat="43.95533" lon="7.33049">
        <ele>758</ele>
        <time>2013-06-20T14:05:17Z</time>
      </trkpt>
      <trkpt lat="43.95531" lon="7.33044">
        <ele>756</ele>
        <time>2013-06-20T14:05:22Z</time>
      </trkpt>
      <trkpt lat="43.95527" lon="7.33038">
        <ele>756</ele>
        <time>2013-06-20T14:05:27Z</time>
      </trkpt>
      <trkpt lat="43.95528" lon="7.33031">
        <ele>754</ele>
        <time>2013-06-20T14:05:30Z</time>
      </trkpt>
      <trkpt lat="43.9553" lon="7.33024">
        <ele>752</ele>
        <time>2013-06-20T14:05:38Z</time>
      </trkpt>
      <trkpt lat="43.95527" lon="7.33019">
        <ele>752</ele>
        <time>2013-06-20T14:05:41Z</time>
      </trkpt>
      <trkpt lat="43.95524" lon="7.33013">
        <ele>752</ele>
        <time>2013-06-20T14:05:44Z</time>
      </trkpt>
      <trkpt lat="43.95519" lon="7.33008">
        <ele>751</ele>
        <time>2013-06-20T14:05:50Z</time>
      </trkpt>
      <trkpt lat="43.95517" lon="7.33002">
        <ele>750</ele>
        <time>2013-06-20T14:05:54Z</time>
      </trkpt>
      <trkpt lat="43.95515" lon="7.32995">
        <ele>749</ele>
        <time>2013-06-20T14:05:57Z</time>
      </trkpt>
      <trkpt lat="43.95512" lon="7.32989">
        <ele>745</ele>
        <time>2013-06-20T14:06:02Z</time>
      </trkpt>
      <trkpt lat="43.95513" lon="7.32981">
        <ele>745</ele>
        <time>2013-06-20T14:06:06Z</time>
      </trkpt>
      <trkpt lat="43.95515" lon="7.32974">
        <ele>744</ele>
        <time>2013-06-20T14:06:10Z</time>
      </trkpt>
      <trkpt lat="43.95519" lon="7.32969">
        <ele>745</ele>
        <time>2013-06-20T14:06:18Z</time>
      </trkpt>
      <trkpt lat="43.9552" lon="7.32961">
        <ele>748</ele>
        <time>2013-06-20T14:06:22Z</time>
      </trkpt>
      <trkpt lat="43.95522" lon="7.32955">
        <ele>749</ele>
        <time>2013-06-20T14:06:26Z</time>
      </trkpt>
      <trkpt lat="43.95524" lon="7.32949">
        <ele>747</ele>
        <time>2013-06-20T14:06:31Z</time>
      </trkpt>
      <trkpt lat="43.95523" lon="7.32939">
        <ele>746</ele>
        <time>2013-06-20T14:06:35Z</time>
      </trkpt>
      <trkpt lat="43.95524" lon="7.32933">
        <ele>745</ele>
        <time>2013-06-20T14:06:38Z</time>
      </trkpt>
      <trkpt lat="43.95525" lon="7.32926">
        <ele>744</ele>
        <time>2013-06-20T14:06:43Z</time>
      </trkpt>
      <trkpt lat="43.95524" lon="7.3292">
        <ele>744</ele>
        <time>2013-06-20T14:06:47Z</time>
      </trkpt>
      <trkpt lat="43.95523" lon="7.32912">
        <ele>743</ele>
        <time>2013-06-20T14:06:50Z</time>
      </trkpt>
      <trkpt lat="43.95523" lon="7.32905">
        <ele>743</ele>
        <time>2013-06-20T14:06:53Z</time>
      </trkpt>
      <trkpt lat="43.95523" lon="7.32898">
        <ele>742</ele>
        <time>2013-06-20T14:06:57Z</time>
      </trkpt>
      <trkpt lat="43.95525" lon="7.32891">
        <ele>741</ele>
        <time>2013-06-20T14:07:01Z</time>
      </trkpt>
      <trkpt lat="43.95525" lon="7.32884">
        <ele>740</ele>
        <time>2013-06-20T14:07:07Z</time>
      </trkpt>
      <trkpt lat="43.95523" lon="7.32877">
        <ele>740</ele>
        <time>2013-06-20T14:07:12Z</time>
      </trkpt>
      <trkpt lat="43.9552" lon="7.32871">
        <ele>742</ele>
        <time>2013-06-20T14:07:25Z</time>
      </trkpt>
      <trkpt lat="43.95518" lon="7.32864">
        <ele>741</ele>
        <time>2013-06-20T14:07:30Z</time>
      </trkpt>
      <trkpt lat="43.9552" lon="7.32856">
        <ele>737</ele>
        <time>2013-06-20T14:07:33Z</time>
      </trkpt>
      <trkpt lat="43.95514" lon="7.32855">
        <ele>738</ele>
        <time>2013-06-20T14:07:39Z</time>
      </trkpt>
      <trkpt lat="43.95512" lon="7.32847">
        <ele>738</ele>
        <time>2013-06-20T14:07:43Z</time>
      </trkpt>
      <trkpt lat="43.95509" lon="7.3284">
        <ele>736</ele>
        <time>2013-06-20T14:07:47Z</time>
      </trkpt>
      <trkpt lat="43.955" lon="7.32813">
        <ele>728</ele>
        <time>2013-06-20T14:08:03Z</time>
      </trkpt>
      <trkpt lat="43.95498" lon="7.32808">
        <ele>727</ele>
        <time>2013-06-20T14:08:05Z</time>
      </trkpt>
      <trkpt lat="43.95497" lon="7.328">
        <ele>726</ele>
        <time>2013-06-20T14:08:12Z</time>
      </trkpt>
      <trkpt lat="43.95495" lon="7.32793">
        <ele>728</ele>
        <time>2013-06-20T14:08:19Z</time>
      </trkpt>
      <trkpt lat="43.95491" lon="7.32788">
        <ele>731</ele>
        <time>2013-06-20T14:08:23Z</time>
      </trkpt>
      <trkpt lat="43.9549" lon="7.32781">
        <ele>732</ele>
        <time>2013-06-20T14:08:27Z</time>
      </trkpt>
      <trkpt lat="43.95489" lon="7.32773">
        <ele>734</ele>
        <time>2013-06-20T14:08:32Z</time>
      </trkpt>
      <trkpt lat="43.95489" lon="7.32767">
        <ele>734</ele>
        <time>2013-06-20T14:08:39Z</time>
      </trkpt>
      <trkpt lat="43.95488" lon="7.3276">
        <ele>733</ele>
        <time>2013-06-20T14:08:43Z</time>
      </trkpt>
      <trkpt lat="43.95483" lon="7.32759">
        <ele>737</ele>
        <time>2013-06-20T14:08:53Z</time>
      </trkpt>
      <trkpt lat="43.95482" lon="7.32753">
        <ele>737</ele>
        <time>2013-06-20T14:08:56Z</time>
      </trkpt>
      <trkpt lat="43.95479" lon="7.32747">
        <ele>737</ele>
        <time>2013-06-20T14:08:59Z</time>
      </trkpt>
      <trkpt lat="43.95478" lon="7.3274">
        <ele>736</ele>
        <time>2013-06-20T14:09:02Z</time>
      </trkpt>
      <trkpt lat="43.95477" lon="7.32733">
        <ele>734</ele>
        <time>2013-06-20T14:09:06Z</time>
      </trkpt>
      <trkpt lat="43.95474" lon="7.32727">
        <ele>732</ele>
        <time>2013-06-20T14:09:10Z</time>
      </trkpt>
      <trkpt lat="43.95471" lon="7.32721">
        <ele>730</ele>
        <time>2013-06-20T14:09:14Z</time>
      </trkpt>
      <trkpt lat="43.95467" lon="7.32717">
        <ele>732</ele>
        <time>2013-06-20T14:09:20Z</time>
      </trkpt>
      <trkpt lat="43.95462" lon="7.32712">
        <ele>733</ele>
        <time>2013-06-20T14:09:24Z</time>
      </trkpt>
      <trkpt lat="43.9546" lon="7.32705">
        <ele>733</ele>
        <time>2013-06-20T14:09:28Z</time>
      </trkpt>
      <trkpt lat="43.95458" lon="7.32696">
        <ele>731</ele>
        <time>2013-06-20T14:09:31Z</time>
      </trkpt>
      <trkpt lat="43.95454" lon="7.32691">
        <ele>733</ele>
        <time>2013-06-20T14:09:36Z</time>
      </trkpt>
      <trkpt lat="43.95456" lon="7.32684">
        <ele>734</ele>
        <time>2013-06-20T14:09:44Z</time>
      </trkpt>
      <trkpt lat="43.95455" lon="7.32678">
        <ele>732</ele>
        <time>2013-06-20T14:09:47Z</time>
      </trkpt>
      <trkpt lat="43.95452" lon="7.3267">
        <ele>730</ele>
        <time>2013-06-20T14:09:50Z</time>
      </trkpt>
      <trkpt lat="43.9545" lon="7.32664">
        <ele>728</ele>
        <time>2013-06-20T14:09:54Z</time>
      </trkpt>
      <trkpt lat="43.95448" lon="7.32657">
        <ele>726</ele>
        <time>2013-06-20T14:09:58Z</time>
      </trkpt>
      <trkpt lat="43.95445" lon="7.3265">
        <ele>724</ele>
        <time>2013-06-20T14:10:03Z</time>
      </trkpt>
      <trkpt lat="43.95444" lon="7.32644">
        <ele>723</ele>
        <time>2013-06-20T14:10:07Z</time>
      </trkpt>
      <trkpt lat="43.95441" lon="7.32638">
        <ele>721</ele>
        <time>2013-06-20T14:10:13Z</time>
      </trkpt>
      <trkpt lat="43.95437" lon="7.32632">
        <ele>721</ele>
        <time>2013-06-20T14:10:22Z</time>
      </trkpt>
      <trkpt lat="43.95434" lon="7.32627">
        <ele>718</ele>
        <time>2013-06-20T14:10:25Z</time>
      </trkpt>
      <trkpt lat="43.95433" lon="7.32624">
        <ele>718</ele>
        <time>2013-06-20T14:10:31Z</time>
      </trkpt>
      <trkpt lat="43.95432" lon="7.32617">
        <ele>718</ele>
        <time>2013-06-20T14:10:35Z</time>
      </trkpt>
      <trkpt lat="43.95431" lon="7.3261">
        <ele>717</ele>
        <time>2013-06-20T14:10:39Z</time>
      </trkpt>
      <trkpt lat="43.9543" lon="7.32603">
        <ele>716</ele>
        <time>2013-06-20T14:10:43Z</time>
      </trkpt>
      <trkpt lat="43.95428" lon="7.32596">
        <ele>716</ele>
        <time>2013-06-20T14:10:47Z</time>
      </trkpt>
      <trkpt lat="43.95424" lon="7.32591">
        <ele>716</ele>
        <time>2013-06-20T14:10:52Z</time>
      </trkpt>
      <trkpt lat="43.95423" lon="7.32584">
        <ele>715</ele>
        <time>2013-06-20T14:10:57Z</time>
      </trkpt>
      <trkpt lat="43.95422" lon="7.32576">
        <ele>713</ele>
        <time>2013-06-20T14:11:01Z</time>
      </trkpt>
      <trkpt lat="43.9542" lon="7.32568">
        <ele>712</ele>
        <time>2013-06-20T14:11:04Z</time>
      </trkpt>
      <trkpt lat="43.95418" lon="7.32561">
        <ele>710</ele>
        <time>2013-06-20T14:11:09Z</time>
      </trkpt>
      <trkpt lat="43.95413" lon="7.32557">
        <ele>705</ele>
        <time>2013-06-20T14:11:13Z</time>
      </trkpt>
      <trkpt lat="43.95408" lon="7.32554">
        <ele>704</ele>
        <time>2013-06-20T14:11:17Z</time>
      </trkpt>
      <trkpt lat="43.95406" lon="7.32548">
        <ele>706</ele>
        <time>2013-06-20T14:11:20Z</time>
      </trkpt>
      <trkpt lat="43.95407" lon="7.3254">
        <ele>709</ele>
        <time>2013-06-20T14:11:26Z</time>
      </trkpt>
      <trkpt lat="43.95408" lon="7.32532">
        <ele>710</ele>
        <time>2013-06-20T14:11:30Z</time>
      </trkpt>
      <trkpt lat="43.95408" lon="7.32525">
        <ele>712</ele>
        <time>2013-06-20T14:11:34Z</time>
      </trkpt>
      <trkpt lat="43.95408" lon="7.32518">
        <ele>714</ele>
        <time>2013-06-20T14:11:41Z</time>
      </trkpt>
      <trkpt lat="43.9541" lon="7.32504">
        <ele>720</ele>
        <time>2013-06-20T14:11:51Z</time>
      </trkpt>
    </trkseg>
  </trk>
</gpx>